[[{"header":{"parameterUnit":"m.s-1","parameterCategory":1,"la1":30.6,"la2":29.2853,"lo1":-89.7004,"lo2":-87.6739,"dy":0.0162,"dx":0.0183,"nx":112,"ny":82,"refTime":"2026-03-09T12:00:00:Z","depth":0,"parameterNumber":2,"parameterNumberName":"U-component_of_WINDS"},"data":[0.0,0.0,0.0,0.0,0.0,0.0,0.0,0.0,0.0,0.0,0.0,0.0,0.0,0.0,0.0,0.0,0.0,0.0,0.0,0.0,0.0,0.0,0.0,0.0,0.0,0.0,0.0,0.0,0.0,0.0,0.0,0.0,0.0,0.0,0.0,0.0,0.0,0.0,0.0,0.0,0.0,0.0,0.0,0.0,0.0,0.0,0.0,0.0,0.0,0.0,0.0,0.0,0.0,0.0,0.0,0.0,0.0,0.0,0.0,0.0,0.0,0.0,0.0,0.0,0.0,0.0,0.0,0.0,0.0,0.0,0.0,0.0,0.0,0.0,0.0,0.0,0.0,0.0,0.0,0.0,0.0,0.0,0.0,0.0,0.0,0.0,0.0,0.0,0.0,0.0,0.0,0.3168,0.3412,0.3791,0.4251,0.4355,0.4136,0.3536,0.0,0.0,0.0,0.0,0.0,0.0,0.0,0.0,0.0,0.0,0.0,0.0,0.0,0.0,0.0,0.0,0.0,0.0,0.0,0.0,0.0,0.0,0.0,0.0,0.0,0.0,0.0,0.0,0.0,0.0,0.0,0.0,0.0,0.0,0.0,0.0,0.0,0.0,0.0,0.0,0.0,0.0,0.0,0.0,0.0,0.0,0.0,0.0,0.0,0.0,0.0,0.0,0.0,0.0,0.0,0.0,0.0,0.0,0.0,0.0,0.0,0.0,0.0,0.0,0.0,0.0,0.0,0.0,0.0,0.0,0.0,0.0,0.0,0.0,0.0,0.0,0.0,0.0,0.0,0.0,0.0,0.0,0.0,0.0,0.0,0.0,0.0,0.0,0.0,0.0,0.0,0.0,0.0,0.0,0.0,0.0,0.0,0.0,0.0,0.0,0.0,0.0,0.0,0.0,0.2982,0.3244,0.3769,0.4016,0.3823,0.4172,0.4138,0.3539,0.0,0.0,0.0,0.0,0.0,0.0,0.0,0.0,0.0,0.0,0.0,0.0,0.0,0.0,0.0,0.0,0.0,0.0,0.0,0.0,0.0,0.0,0.0,0.0,0.0,0.0,0.0,0.0,0.0,0.0,0.0,0.0,0.0,0.0,0.0,0.0,0.0,0.0,0.0,0.0,0.0,0.0,0.0,0.0,0.0,0.0,0.0,0.0,0.0,0.0,0.0,0.0,0.0,0.0,0.0,0.0,0.0,0.0,0.0,0.0,0.0,0.0,0.0,0.0,0.0,0.0,0.0,0.0,0.0,0.0,0.0,0.0,0.0,0.0,0.0,0.0,0.0,0.0,0.0,0.0,0.0,0.0,0.0,0.0,0.0,0.0,0.0,0.0,0.0,0.0,0.0,0.0,0.0,0.0,0.0,0.0,0.0,0.0,0.0,0.0,0.0,0.0,0.0,0.247,0.2733,0.3246,0.348,0.3703,0.3955,0.3859,0.3796,0.3772,0.3575,0.0,0.0,0.0,0.0,0.0,0.0,0.0,0.0,0.0,0.0,0.0,0.0,0.0,0.0,0.0,0.0,0.0,0.0,0.0,0.0,0.0,0.0,0.0,0.0,0.0,0.0,0.0,0.0,0.0,0.0,0.0,0.0,0.0,0.0,0.0,0.0,0.0,0.0,0.0,0.0,0.0,0.0,0.0,0.0,0.0,0.0,0.0,0.0,0.0,0.0,0.0,0.0,0.0,0.0,0.0,0.0,0.0,0.0,0.0,0.0,0.0,0.0,0.0,0.0,0.0,0.0,0.0,0.0,0.0,0.0,0.0,0.0,0.0,0.0,0.0,0.0,0.0,0.0,0.0,0.0,0.0,0.0,0.0,0.0,0.0,0.0,0.0,0.0,0.0,0.0,0.0,0.0,0.0,0.0,0.0,0.0,0.0,0.0,0.0,0.0,0.0,0.0,0.2008,0.2307,0.2878,0.298,0.3255,0.3838,0.3532,0.3448,0.382,0.3236,0.0,0.0,0.0,0.0,0.0,0.0,0.0,0.0,0.0,0.0,0.0,0.0,0.0,0.0,0.0,0.0,0.0,0.0,0.0,0.0,0.0,0.0,0.0,0.0,0.0,0.0,0.0,0.0,0.0,0.0,0.0,0.0,0.0,0.0,0.0,0.0,0.0,0.0,0.0,0.0,0.0,0.0,0.0,0.0,0.0,0.0,0.0,0.0,0.0,0.0,0.0,0.0,0.0,0.0,0.0,0.0,0.0,0.0,0.0,0.0,0.0,0.0,0.0,0.0,0.0,0.0,0.0,0.0,0.0,0.0,0.0,0.0,0.0,0.0,0.0,0.0,0.0,0.0,0.0,0.0,0.0,0.0,0.0,0.0,0.0,0.0,0.0,0.0,0.0,0.0,0.0,0.0,0.0,0.0,0.0,0.0,0.0,0.0,0.0,0.0,0.0,0.0,0.1109,0.1377,0.1852,0.2403,0.2803,0.2974,0.318,0.3317,0.3355,0.2662,0.0,0.0,0.0,0.0,0.0,0.0,0.0,0.0,0.0,0.0,0.0,0.0,0.0,0.0,0.0,0.0,0.0,0.0,0.0,0.0,0.0,0.0,0.0,0.0,0.0,0.0,0.0,0.0,0.0,0.0,0.0,0.0,0.0,0.0,0.0,0.0,0.0,0.0,0.0,0.0,0.0,0.0,0.0,0.0,0.0,0.0,0.0,0.0,0.0,0.0,0.0,0.0,0.0,0.0,0.0,0.0,0.0,0.0,0.0,0.0,0.0,0.0,0.0,0.0,0.0,0.0,0.0,0.0,0.0,0.0,0.0,0.0,0.0,0.0,0.0,0.0,0.0,0.0,0.0,0.0,0.0,0.0,0.0,0.0,0.0,0.0,0.0,0.0,0.0,0.0,0.0,0.0,0.0,0.0,0.0,0.0,0.0,0.0,0.0,0.0,0.0,0.0,0.0883,0.1164,0.0,0.1899,0.235,0.2573,0.2609,0.2781,0.3149,0.0,0.0,0.0,0.0,0.0,0.0,0.0,0.0,0.0,0.0,0.0,0.0,0.0,0.0,0.0,0.0,0.0,0.0,0.0,0.0,0.0,0.0,0.0,0.0,0.0,0.0,0.0,0.0,0.0,0.0,0.0,0.0,0.0,0.0,0.0,0.0,0.0,0.0,0.0,0.0,0.0,0.0,0.0,0.0,0.0,0.0,0.0,0.0,0.0,0.0,0.0,0.0,0.0,0.0,0.0,0.0,0.0,0.0,0.0,0.0,0.0,0.0,0.0,0.0,0.0,0.0,0.0,0.0,0.0,0.0,0.0,0.0,0.0,0.0,0.0,0.0,0.0,0.0,0.0,0.0,0.0,0.0,0.0,0.0,0.0,0.0,0.0,0.0,0.0,0.0,0.0,0.0,0.0,0.0,0.0,0.0,0.0,0.0,0.0,0.0,0.0,0.0,-0.0062,0.0281,0.0582,0.0,0.1115,0.1544,0.2012,0.1969,0.2159,0.2717,0.0,0.0,0.0,0.0,0.0,0.0,0.0,0.0,0.0,0.0,0.0,0.0,0.0,0.0,0.0,0.0,0.0,0.0,0.0,0.0,0.0,0.0,0.0,0.0,0.0,0.0,0.0,0.0,0.0,0.0,0.0,0.0,0.0,0.0,0.0,0.0,0.0,0.0,0.0,0.0,0.0,0.0,0.0,0.0,0.0,0.0,0.0,0.0,0.0,0.0,0.0,0.0,0.0,0.0,0.0,0.0,0.0,0.0,0.0,0.0,0.0,0.0,0.0,0.0,0.0,0.0,0.0,0.0,0.0,0.0,0.0,0.0,0.0,0.0,0.0,0.0,0.0,0.0,0.0,0.0,0.0,0.0,0.0,0.0,0.0,0.0,0.0,0.0,0.0,0.0,0.0,0.0,0.0,0.0,0.0,0.0,0.0,0.0,0.0,0.0,0.0,0.0,-0.1035,-0.0869,-0.0529,-0.0055,0.0,0.0349,0.121,0.1291,0.1493,0.0,0.0,0.0,0.0,0.0,0.0,0.0,0.0,0.0,0.0,0.0,0.0,0.0,0.0,0.0,0.0,0.0,0.0,0.0,0.0,0.0,0.0,0.0,0.0,0.0,0.0,0.0,0.0,0.0,0.0,0.0,0.0,0.0,0.0,0.0,0.0,0.0,0.0,0.0,0.0,0.0,0.0,0.0,0.0,0.0,0.0,0.0,0.0,0.0,0.0,0.0,0.0,0.0,0.0,0.0,0.0,0.0,0.0,0.0,0.0,0.0,0.0,0.0,0.0,0.0,0.0,0.0,0.0,0.0,0.0,0.0,0.0,0.0,0.0,0.0,0.0,0.0,0.0,0.0,0.0,0.0,0.0,0.0,0.0,0.0,0.0,0.0,0.0,0.0,0.0,0.0,0.0,0.0,0.0,0.0,0.0,0.0,0.0,0.0,0.0,0.0,0.0,0.0,-0.0927,-0.0806,-0.0686,-0.0635,-0.017,0.0204,0.0375,0.086,0.1175,0.1221,0.0,0.0,0.0,0.0,0.0,0.0,0.0,0.0,0.0,0.0,0.0,0.0,0.0,0.0,0.0,0.0,0.0,0.0,0.0,0.0,0.0,0.0,0.0,0.0,0.0,0.0,0.0,0.0,0.0,0.0,0.0,0.0,0.0,0.0,0.0,0.0,0.0,0.0,0.0,0.0,0.0,0.0,0.0,0.0,0.0,0.0,0.0,0.0,0.0,0.0,0.0,0.0,0.0,0.0,0.0,0.0,0.0,0.0,0.0,0.0,0.0,0.0,0.0,0.0,0.0,0.0,0.0,0.0,0.0,0.0,0.0,0.0,0.0,0.0,0.0,0.0,0.0,0.0,0.0,0.0,0.0,0.0,0.0,0.0,0.0,0.0,0.0,0.0,0.0,0.0,0.0,0.0,0.0,0.0,0.0,0.0,0.0,0.0,0.0,0.0,0.0,0.0,-0.1461,-0.1174,-0.0996,-0.1164,-0.0789,-0.0479,-0.0364,0.0215,0.0568,0.0545,0.0,0.0,0.0,0.0,0.0,0.0,0.0,0.0,0.0,0.0,0.0,0.0,0.0,0.0,0.0,0.0,0.0,0.0,0.0,0.0,0.0,0.0,0.0,0.0,0.0,0.0,0.0,0.0,0.0,0.0,0.0,0.0,0.0,0.0,0.0,0.0,0.0,0.0,0.0,0.0,0.0,0.0,0.0,0.0,0.0,0.0,0.0,0.0,0.0,0.0,0.0,0.0,0.0,0.0,0.0,0.0,0.0,0.0,0.0,0.0,0.0,0.0,0.0,0.0,0.0,0.0,0.0,0.0,0.0,0.0,0.0,0.0,0.0,0.0,0.0,0.0,0.0,0.0,0.0,0.0,0.0,0.0,0.0,0.0,0.0,0.0,0.0,0.0,0.0,0.0,0.0,0.0,0.0,0.0,0.0,0.0,0.0,0.0,0.0,0.0,0.0,0.0,-0.2315,-0.175,-0.1379,-0.1596,-0.1585,-0.14,-0.0969,-0.0509,-0.0183,-0.0048,0.0,0.0,0.0,0.0,0.0,0.0,0.0,0.0,0.0,0.0,0.0,0.0,0.0,0.0,0.0,0.0,0.0,0.0,0.0,0.0,0.0,0.0,0.0,0.0,0.0,0.0,0.0,0.0,0.0,0.0,0.0,0.0,0.0,0.0,0.0,0.0,0.0,0.0,0.0,0.0,0.0,0.0,0.0,0.0,0.0,0.0,0.0,0.0,0.0,0.0,0.0,0.0,0.0,0.0,0.0,0.0,0.0,0.0,0.0,0.0,-0.4364,0.0,0.0,0.0,0.0,0.0,0.0,0.0,0.0,0.0,0.0,0.0,0.0,0.0,0.0,0.0,0.0,0.0,0.0,0.0,0.0,0.0,0.0,0.0,0.0,0.0,0.0,0.0,0.0,0.0,0.0,0.0,0.0,0.0,0.0,0.0,0.0,0.0,0.0,0.0,0.0,0.0,-0.2228,-0.1696,-0.1422,-0.1723,-0.1522,-0.1321,-0.1222,-0.0831,-0.051,-0.0329,0.0,0.0,0.0,0.0,0.0,0.0,0.0,0.0,0.0,0.0,0.0,0.0,0.0,0.0,0.0,0.0,0.0,0.0,0.0,0.0,0.0,0.0,0.0,0.0,0.0,0.0,0.0,0.0,0.0,0.0,0.0,0.0,0.0,0.0,0.0,0.0,0.0,0.0,0.0,0.0,0.0,0.0,0.0,0.0,0.0,0.0,0.0,0.0,0.0,0.0,0.0,0.0,0.0,0.0,0.0,0.0,0.0,0.0,0.0,0.0,0.0,-0.4838,0.0,0.0,0.0,0.0,0.0,0.0,0.0,0.0,0.0,0.0,0.0,0.0,0.0,0.0,0.0,0.0,0.0,0.0,0.0,0.0,0.0,0.0,0.0,0.0,0.0,0.0,0.0,0.0,0.0,0.0,0.0,0.0,0.0,0.0,0.0,0.0,0.0,0.0,0.0,0.0,-0.264,-0.2163,-0.1874,-0.1981,-0.1836,-0.1685,-0.1548,-0.12,-0.0915,-0.0752,-0.0458,0.0,0.0,0.0,0.0,0.0,0.0,0.0,0.0,0.0,0.0,0.0,0.0,0.0,0.0,0.0,0.0,0.0,0.0,0.0,0.0,0.0,0.0,0.0,0.0,0.0,0.0,0.0,0.0,0.0,0.0,0.0,0.0,0.0,0.0,0.0,0.0,0.0,0.0,0.0,0.0,0.0,0.0,0.0,0.0,0.0,0.0,0.0,0.0,0.0,0.0,0.0,0.0,0.0,0.0,-0.777,-0.8243,-0.7967,-0.7822,-0.773,-0.5961,-0.5456,-0.5852,0.0,0.0,0.0,0.0,0.0,0.0,0.0,0.0,0.0,0.0,0.0,0.0,0.0,0.0,0.0,0.0,0.0,0.0,0.0,0.0,0.0,0.0,0.0,0.0,0.0,-0.2347,-0.2369,0.0,0.0,0.0,0.0,0.0,0.0,0.0,0.0,0.0,0.0,0.0,0.0,-0.3117,-0.2696,-0.2367,-0.2295,-0.2237,-0.2106,-0.1891,-0.1556,-0.1289,-0.1141,-0.0747,-0.0386,0.0,0.0,0.0,0.0,0.0,0.0,0.0,0.0,0.0,0.0,0.0,0.0,0.0,0.0,0.0,0.0,0.0,0.0,0.0,0.0,0.0,0.0,0.0,0.0,0.0,0.0,0.0,0.0,0.0,0.0,0.0,0.0,-0.6516,-0.7409,0.0,0.0,0.0,0.0,0.0,0.0,0.0,0.0,0.0,0.0,0.0,0.0,0.0,0.0,-0.8619,-0.8833,-0.8964,-0.901,-0.827,-0.7963,-0.8026,-0.7699,-0.7554,-0.7542,-0.7259,0.0,-0.6555,-0.639,0.0,0.0,0.0,0.0,0.0,0.0,0.0,0.0,0.0,0.0,0.0,0.0,0.0,0.0,0.0,0.0,0.0,0.0,0.0,0.0,0.0,0.0,-0.3384,-0.3296,-0.332,-0.3318,0.0,-0.2854,-0.26,-0.2655,0.0,0.0,0.0,0.0,0.0,0.0,0.0,0.0,-0.3149,-0.2696,-0.246,-0.2618,-0.2367,-0.2182,-0.215,-0.1791,-0.148,-0.1289,-0.111,-0.0807,-0.0362,-0.0219,0.0,0.0,0.0,0.0,0.0,0.0,0.0,0.0,0.0,0.0,0.0,0.0,0.0,0.0,0.0,0.0,0.0,0.0,0.0,0.0,0.0,0.0,0.0,0.0,0.0,0.0,0.0,0.0,0.0,-0.6748,-0.7534,-0.8248,-0.8124,-0.8365,0.0,0.0,0.0,0.0,0.0,0.0,0.0,0.0,0.0,-0.8374,-0.9241,-0.9384,-0.8685,-0.9133,-0.9455,-0.9657,-0.9676,-0.9855,-1.019,-1.0386,-1.0285,-0.9973,-0.9973,-0.9442,-0.8484,-0.7628,-0.7439,-0.7693,0.0,0.0,0.0,0.0,0.0,-0.774,-0.7632,0.0,0.0,0.0,0.0,0.0,0.0,0.0,0.0,0.0,0.0,0.0,0.0,0.0,0.0,-0.5293,-0.4983,-0.4788,-0.5214,-0.4792,-0.4152,0.0,-0.4035,-0.4496,-0.4296,0.0,0.0,0.0,0.0,0.0,-0.3609,-0.3373,-0.3168,-0.295,-0.2794,-0.2567,-0.2226,-0.2042,-0.1805,-0.1483,-0.1304,-0.1088,-0.0806,-0.0487,-0.0119,0.0,0.0,0.0,0.0,0.0,0.0,0.0,0.0,0.0,0.0,0.0,0.0,0.0,0.0,0.0,0.0,0.0,0.0,0.0,0.0,0.0,0.0,0.0,0.0,0.0,0.0,0.0,0.0,-0.7505,-0.8174,-0.8912,-0.8611,-0.8673,0.0,0.0,0.0,0.0,0.0,0.0,-0.96,-0.9819,-0.9639,-0.8994,-1.0168,-1.0439,-0.9578,-1.0431,-1.0935,-1.111,-1.1514,-1.1905,-1.2263,-1.2633,-1.255,-1.2133,-1.2133,-1.159,-1.06,-0.9067,-0.8552,-0.8763,-0.8812,-0.887,0.0,-0.9267,-0.8989,-0.8484,-0.8549,-0.818,-0.7588,-0.7076,0.0,-0.7217,-0.677,0.0,0.0,0.0,0.0,-0.7922,-0.7495,0.0,-0.6948,-0.6915,-0.6489,-0.6234,-0.6787,-0.6482,-0.5784,0.0,-0.5028,-0.5399,-0.4886,0.0,0.0,0.0,0.0,-0.4863,-0.4389,-0.4244,-0.4024,-0.3633,-0.343,-0.3107,-0.2583,-0.2467,-0.2233,-0.1782,-0.1608,-0.1416,-0.1163,-0.0783,-0.0392,-0.0008,0.0,0.0,0.0,0.0,0.0,0.0,0.0,0.0,0.0,0.0,0.0,0.0,0.0,0.0,0.0,0.0,0.0,0.0,0.0,0.0,0.0,0.0,0.0,0.0,0.0,0.0,0.0,0.0,0.0,-0.8897,-0.8862,0.0,0.0,0.0,0.0,-1.0337,-0.9568,-0.9658,-1.093,-1.0245,-1.0022,-1.0469,-1.1859,-1.2551,-1.2484,-1.3848,-1.4379,-1.4078,-1.3803,-1.3513,-1.3214,-1.2923,-1.2787,-1.276,-1.276,-1.2732,-1.2509,-1.0655,-0.972,-0.9461,-0.9461,-0.9616,-0.9793,-0.9433,-0.9273,-0.9146,-0.8463,-0.819,-0.8088,-0.7611,-0.7642,-0.7863,-0.7816,-0.8028,0.0,0.0,-0.8432,-0.8334,-0.8189,-0.804,-0.7851,-0.7531,-0.7429,-0.7417,-0.7452,-0.7476,-0.7152,0.0,-0.5886,-0.5778,-0.5184,0.0,-0.6107,-0.5469,-0.5692,-0.5832,-0.5548,-0.5181,-0.4935,-0.4909,-0.4342,-0.3808,-0.3459,-0.3196,-0.2801,-0.2204,-0.2159,-0.1892,-0.1315,-0.1148,-0.0732,-0.0017,0.02,0.0,0.0,0.0,0.0,0.0,0.0,0.0,0.0,0.0,0.0,0.0,0.0,0.0,0.0,0.0,0.0,0.0,0.0,0.0,0.0,0.0,0.0,0.0,0.0,0.0,0.0,0.0,0.0,-1.0324,-1.0024,0.0,0.0,-1.0756,-1.0829,-1.0968,-1.0531,-1.0734,-1.1806,-1.2031,-1.2348,-1.2837,-1.3795,-1.4233,-1.4046,-1.4551,-1.4738,-1.4631,-1.4928,-1.5013,-1.4922,-1.5229,-1.5145,-1.4714,-1.449,-1.4158,-1.3707,-1.2807,-1.2118,-1.1624,-1.1624,-1.1686,-1.1751,-1.1612,-1.1309,-1.0933,-1.0673,-1.031,-0.9844,-0.929,-0.8944,-0.8802,-0.9154,-0.9319,-0.9486,-0.9921,-1.0029,-1.0003,-0.9943,-0.9718,-0.9454,-0.9385,-0.8998,-0.8737,-0.8985,-0.8685,-0.8328,-0.8189,-0.7537,-0.6793,-0.6056,-0.6409,-0.6618,-0.6119,-0.6165,-0.6153,-0.5895,-0.5508,-0.5191,-0.5019,-0.4559,-0.4146,-0.3845,-0.338,-0.2935,-0.2543,-0.2159,-0.1844,-0.1632,-0.1284,-0.0933,-0.0589,-0.0125,0.0324,0.0,0.0,0.0,0.0,0.0,0.0,0.0,0.0,0.0,0.0,0.0,0.0,0.0,0.0,0.0,0.0,0.0,0.0,0.0,0.0,0.0,0.0,0.0,0.0,0.0,0.0,-1.0032,-1.1316,-1.1177,-1.1119,-1.1505,-1.1809,-1.204,-1.2198,-1.231,-1.2706,-1.3511,-1.4007,-1.4371,-1.4608,-1.5314,-1.5624,-1.5441,-1.5687,-1.5763,-1.5645,-1.6093,-1.6253,-1.6148,-1.6591,-1.6572,-1.612,-1.5772,-1.5394,-1.4947,-1.4611,-1.4211,-1.3768,-1.331,-1.314,-1.3126,-1.3018,-1.2723,-1.2359,-1.2241,-1.1912,-1.1471,-1.1065,-1.0708,-1.0479,-1.085,-1.0938,-1.1035,-1.1428,-1.1615,-1.1677,-1.1565,-1.1438,-1.1284,-1.1236,-1.0677,-1.0211,-1.0379,-0.9731,-0.9187,-0.9369,-0.8639,-0.7752,-0.6938,-0.715,-0.7301,-0.6907,-0.6842,-0.6826,-0.681,-0.6206,-0.5702,-0.5534,-0.5025,-0.4586,-0.4289,-0.3909,-0.3438,-0.2866,-0.2462,-0.2103,-0.1817,-0.1457,-0.1192,-0.104,-0.0394,0.0208,0.0765,0.0,0.0,0.0,0.0,0.0,0.0,0.0,0.0,0.0,0.0,0.0,0.0,0.0,0.0,0.0,0.0,0.0,0.0,0.0,0.0,0.0,0.0,0.0,-0.9652,-1.017,-1.0881,-1.1754,-1.2273,-1.2352,-1.1753,-1.2966,-1.3868,-1.4047,-1.4784,-1.5461,-1.5992,-1.6009,-1.5908,-1.5673,-1.6367,-1.6749,-1.6766,-1.7473,-1.768,-1.7386,-1.7353,-1.7183,-1.686,-1.6844,-1.6828,-1.6815,-1.6474,-1.6328,-1.6301,-1.5955,-1.5813,-1.5679,-1.4378,-1.3857,-1.3816,-1.3502,-1.3353,-1.3299,-1.2951,-1.2829,-1.2829,-1.2829,-1.2829,-1.2829,-1.2829,-1.2829,-1.2829,-1.2829,-1.3072,-1.3244,-1.2924,-1.3058,-1.3231,-1.2896,-1.2369,-1.1848,-1.1522,-1.0625,-0.9816,-0.9537,-0.9162,-0.8637,-0.7787,-0.8013,-0.8176,-0.7783,-0.771,0.0,-0.8316,-0.7295,-0.6518,-0.6535,-0.5811,-0.5208,-0.489,-0.4821,-0.4321,-0.3195,-0.3086,-0.2696,-0.1843,-0.1675,-0.1496,-0.1286,-0.0553,0.0173,0.0889,0.0,0.0,0.0,0.0,0.0,0.0,0.0,0.0,0.0,0.0,0.0,0.0,0.0,0.0,0.0,0.0,0.0,0.0,0.0,0.0,0.0,0.0,-1.0562,-1.1115,-1.1624,-1.2233,-1.3004,-1.3778,-1.4179,-1.4016,-1.4992,-1.5608,-1.5451,-1.5669,-1.5983,-1.6475,-1.6506,-1.672,-1.7185,-1.7388,-1.7743,-1.8296,-1.8488,-1.8812,-1.9248,-1.8723,-1.8406,-1.8305,-1.7764,-1.7531,-1.7519,-1.7175,-1.6888,-1.6633,-1.6301,-1.6025,-1.5769,-1.5395,-1.5245,-1.5245,-1.5146,-1.4806,-1.4304,-1.3725,-1.3537,-1.3537,-1.3537,-1.3537,-1.3537,-1.3537,-1.3537,-1.3537,-1.3537,-1.3589,-1.364,-1.355,-1.3589,-1.3574,-1.3231,-1.3036,-1.2815,-1.2483,-1.2183,-1.1872,-1.1512,-1.133,-1.0675,-0.8801,-0.8588,-0.8551,-0.8191,0.0,0.0,-0.7876,-0.7334,-0.7046,-0.7346,-0.656,-0.6023,-0.6026,-0.5094,-0.429,0.0,-0.2929,-0.2337,-0.2099,-0.1777,-0.1366,-0.0872,-0.0142,0.0337,0.0,0.0,0.0,0.0,0.0,0.0,0.0,0.0,0.0,0.0,0.0,0.0,0.0,0.0,0.0,0.0,0.0,0.0,0.0,0.0,0.0,0.0,-1.0794,-1.1633,-1.2764,-1.3123,-1.3489,-1.4151,-1.5053,-1.5587,-1.55,-1.6393,-1.6904,-1.6728,-1.7132,-1.7453,-1.7652,-1.766,-1.7768,-1.7964,-1.7971,-1.8274,-1.8888,-1.8589,-1.8809,-1.9524,-1.8792,-1.8437,-1.842,-1.8003,-1.78,0.0,-1.7455,-1.7187,-1.6977,-1.6659,-1.638,0.0,0.0,0.0,0.0,0.0,-1.5559,-1.5155,-1.4767,-1.4646,-1.4646,-1.4646,-1.4646,-1.4646,-1.4646,-1.4646,-1.4646,-1.4646,-1.4646,-1.4646,-1.4646,-1.4646,-1.4591,-1.4385,-1.4124,-1.3785,-1.3291,-1.2955,-1.2595,-1.2038,0.0,0.0,-1.0202,-0.9837,-0.9579,-0.9203,-0.8655,-0.8263,0.0,-0.7556,-0.7194,-0.7422,-0.6817,-0.6353,-0.6264,-0.5507,0.0,0.0,0.0,-0.2725,-0.2224,-0.1867,0.0,0.0,0.0,0.0,0.0,0.0,0.0,0.0,0.1447,0.162,0.0,0.0,0.0,0.0,0.0,0.0,0.0,0.0,0.0,0.0,0.0,0.0,0.0,0.0,0.0,0.0,-1.185,-1.2863,-1.4519,-1.4733,-1.4853,-1.5193,-1.6122,-1.6656,-1.646,-1.7375,-1.7946,-1.7848,-1.8729,-1.9219,-1.9092,0.0,0.0,0.0,0.0,-1.8389,-1.8905,-1.8239,-1.8302,-1.9012,-1.8285,-1.7918,-1.7918,-1.7834,-1.78,-1.7789,-1.7491,-1.7332,-1.7284,-1.6977,-1.6828,-1.6738,-1.6094,-1.5842,-1.5799,-1.5799,-1.5799,0.0,0.0,0.0,0.0,-1.5889,-1.5949,-1.6008,-1.5919,-1.5889,-1.5889,-1.5829,-1.5799,-1.5799,-1.5799,-1.5799,-1.5799,-1.5799,-1.535,-1.4736,-1.4069,-1.343,-1.2758,-1.2054,-1.1885,-1.184,-1.1791,-1.136,-1.0849,-1.0439,-0.9739,0.0,-0.8957,-0.7988,-0.7301,-0.7251,0.0,0.0,-0.6145,-0.5982,-0.5498,-0.4575,-0.4138,-0.3419,-0.2329,-0.1975,-0.1529,-0.0928,-0.0895,-0.0475,0.0349,0.0385,0.0488,0.0685,0.1649,0.1968,0.0,0.0,0.0,0.0,0.0,0.0,0.0,0.0,0.0,0.0,0.0,0.0,0.0,0.0,0.0,-1.3466,-1.3914,-1.4526,-1.6,-1.6873,-1.7035,-1.6165,-1.6966,-1.7489,-1.7293,-1.8316,-1.8935,-1.8766,-1.8945,-1.9236,-1.9624,-1.8823,0.0,-1.9156,-1.8333,-1.8206,-1.8894,-1.8758,-1.9063,-1.9778,0.0,0.0,-1.8674,-1.807,-1.78,-1.78,-1.7726,-1.7549,-1.728,-1.7236,-1.7039,-1.6751,-1.6369,-1.6039,-1.5799,-1.5799,-1.5799,-1.5799,-1.5799,-1.6114,-1.6532,-1.6532,-1.6876,-1.7235,-1.6682,-1.6532,0.0,-1.5934,-1.5799,-1.5799,-1.5799,-1.5799,-1.5799,-1.5799,-1.5709,-1.5561,-1.5417,-1.4994,-1.4492,-1.4032,-1.3683,-1.3327,-1.2969,-1.1834,-1.097,-1.0892,-1.0501,-0.9948,-0.9153,-0.8848,-0.8577,-0.8195,-0.7632,-0.7345,-0.7427,-0.6482,-0.5695,-0.5233,-0.409,-0.3227,-0.2777,-0.214,-0.1565,-0.1069,-0.0847,-0.0476,0.0084,0.0298,0.0422,0.0479,0.1157,0.1442,0.0,0.0,0.0,0.0,0.0,0.0,0.0,0.0,0.0,0.0,0.0,-1.0604,-1.1403,0.0,-1.3094,-1.431,-1.5191,-1.6094,-1.7195,-1.7782,-1.7829,-1.7128,-1.7936,-1.8465,-1.8269,-1.8887,-1.9222,-1.9027,-1.9084,-1.9214,-1.9389,-1.8883,-1.8665,-1.8805,-1.8289,-1.8296,-1.8888,-1.8538,-1.8724,-1.9439,-1.8707,-1.8352,-1.8335,-1.7969,-1.78,-1.78,-1.78,-1.7704,-1.7549,-1.7549,-1.7344,-1.7027,-1.6876,-1.6607,-1.6287,-1.6108,-1.6053,-1.6025,-1.5856,-1.6009,-1.6293,-1.6607,-1.6712,-1.6742,-1.6712,-1.6488,-1.6189,-1.5888,-1.5799,-1.5799,-1.5799,-1.5799,-1.5799,-1.5799,-1.5799,-1.5741,-1.5492,-1.527,-1.4968,-1.458,-1.4181,-1.3835,-1.3598,-1.2726,-1.2001,-1.1731,-1.1379,-1.0886,-1.0148,-0.9661,-0.9308,-0.9078,-0.8573,-0.8126,-0.7828,-0.6632,-0.5755,-0.5426,-0.4423,-0.3628,-0.3123,-0.2623,-0.206,-0.1467,-0.1095,-0.0719,-0.0353,0.0015,0.02,0.0215,0.0745,0.1036,0.0,0.0,0.0,0.0,0.0,0.0,0.0,0.0,-0.9482,-1.1043,-1.1375,-1.1613,-1.2425,-1.3741,-1.4842,-1.5154,-1.6285,-1.7403,-1.8225,-1.8335,-1.8265,-1.8099,-1.8817,-1.923,-1.9018,-1.9182,-1.9222,-1.9027,-1.915,-1.9213,-1.9156,-1.895,-1.8713,-1.8437,-1.8242,-1.8299,-1.8674,-1.8099,-1.8099,-1.8674,-1.8082,-1.78,-1.78,-1.78,-1.78,-1.78,-1.78,-1.78,-1.78,-1.78,-1.7647,-1.7392,-1.7392,-1.7224,-1.6955,-1.6541,-1.6369,-1.626,-1.5997,-1.5931,-1.6054,-1.6547,-1.6458,-1.6248,-1.6592,-1.6368,-1.5949,-1.5829,-1.5799,-1.5799,-1.5799,-1.5799,-1.5799,-1.5799,-1.5799,-1.5712,-1.5329,-1.5104,-1.4891,-1.4564,-1.41,-1.3752,-1.3752,-1.3459,-1.3048,-1.2626,-1.2196,-1.1709,-1.1105,-1.0332,-0.9755,-0.9572,-0.9231,-0.8716,-0.7979,-0.6884,-0.609,-0.5733,-0.4978,-0.4293,-0.3744,-0.3274,-0.2736,-0.2101,-0.1587,-0.1117,-0.0745,-0.0336,-0.0086,0.0017,0.0382,0.0674,-1.306,-1.2068,-1.1016,-1.0929,-1.0302,-1.0277,0.0,0.0,-1.1094,-1.2692,-1.3023,-1.3275,-1.4071,-1.4958,-1.6022,-1.7465,-1.7851,-1.8243,-1.9058,-1.9168,-1.9161,-1.9127,-1.9234,-1.923,-1.9018,-1.9182,-1.9222,-1.9027,-1.9018,-1.9228,-1.9694,-1.8808,-1.8593,-1.9254,-1.8345,-1.7867,-1.7918,-1.7834,-1.7834,-1.7918,-1.7834,-1.78,-1.78,-1.78,-1.78,-1.78,-1.78,-1.78,-1.78,-1.78,-1.7789,-1.7738,-1.7738,-1.7715,-1.7612,-1.698,-1.6554,-1.6301,-1.626,-1.6406,-1.6622,-1.6681,-1.7055,-1.74,-1.6861,-1.6636,-1.6488,-1.5949,-1.5799,-1.5799,-1.5799,-1.5799,-1.5799,-1.5799,-1.5799,-1.5784,-1.5741,-1.5119,-1.4549,-1.4517,-1.3835,-1.3284,-1.3284,-1.3232,-1.3173,-1.3123,-1.2723,-1.2101,-1.12,-1.0636,-1.0002,-0.9179,-0.9038,-0.8814,-0.8364,-0.7757,-0.7244,-0.6838,-0.5693,-0.5091,-0.5239,-0.4131,-0.3398,-0.3138,-0.2429,-0.1675,-0.0878,-0.0699,-0.0407,0.0,0.0058,0.0319,-1.3555,-1.2924,-1.2271,0.0,-1.0989,-1.0792,-1.2265,-1.1723,-1.1356,-1.2968,-1.3298,-1.3684,-1.4958,-1.5851,-1.6768,0.0,-1.8482,-1.893,-1.9242,-1.9297,-1.9297,-1.9297,-1.9297,-1.9259,-1.9182,-1.9243,-1.9277,-1.9182,-1.9174,-1.9229,-1.9327,-1.8912,-1.8686,-1.8701,-1.8276,-1.796,-1.78,-1.78,-1.78,-1.78,-1.78,-1.78,-1.78,-1.78,-1.802,-1.8454,-1.8899,-1.9072,-1.9072,-1.9072,-1.9072,-1.9051,-1.8611,-1.8437,-1.834,-1.7424,-1.6876,-1.6554,-1.6369,-1.6251,-1.6234,-1.6592,-1.6652,-1.6608,-1.6682,-1.6443,-1.6114,-1.5873,-1.5799,-1.5799,-1.5799,-1.5799,-1.5799,-1.5799,-1.5799,-1.5741,-1.5448,-1.5119,-1.488,-1.4957,-1.4489,-1.4072,-1.4072,-1.3874,-1.3596,-1.3248,-1.303,-1.2665,-1.2007,-1.1514,-1.0844,-0.9858,-0.9503,-0.9152,-0.8676,-0.8005,-0.7398,-0.6916,-0.617,-0.5657,-0.5509,-0.498,-0.4396,-0.3728,-0.3143,-0.2501,-0.1835,-0.1492,-0.1054,-0.0529,-0.0529,-0.0236,-1.3817,-1.35,0.0,-1.2335,-1.165,-1.1448,-1.2247,-1.1985,-1.1966,-1.3348,-1.3813,-1.4327,-1.5496,-1.653,-1.7422,-1.8016,-1.8775,-1.9297,-1.9297,-1.9297,-1.9274,-1.9212,-1.9259,-1.9274,-1.9212,-1.9259,-1.9274,-1.9212,-1.9222,-1.9082,-1.8798,-1.878,-1.8566,-1.8093,-1.8082,-1.8089,-1.8099,-1.8104,-1.8205,-1.8408,-1.8408,-1.8408,-1.8408,-1.8408,-1.8696,-1.9232,-1.9778,-2.0002,-2.0002,-2.0002,-2.0002,-1.9951,-1.9406,-1.9198,-1.9123,-1.8322,-1.758,-1.6888,-1.6657,-1.6353,-1.613,-1.6486,-1.6291,-1.6003,-1.6338,-1.6144,-1.5799,-1.5799,-1.5799,-1.5799,-1.5799,-1.5799,-1.5799,-1.5799,-1.5799,-1.5668,-1.5195,-1.5013,-1.494,-1.4919,-1.4574,-1.4293,-1.4293,-1.4042,-1.3702,-1.3261,-1.3094,-1.2838,-1.2372,-1.1774,-1.1105,-1.038,-1.0,-0.9582,-0.9046,-0.8329,-0.7669,-0.7145,-0.6596,-0.6192,-0.5918,-0.5678,-0.5173,-0.4374,-0.3825,-0.3215,-0.2558,-0.2182,-0.1703,-0.1138,-0.0975,-0.0663,-1.3962,0.0,-1.3267,-1.2335,-1.2076,-1.2265,-1.3078,-1.3243,-1.3464,-1.4292,-1.5086,-1.5643,-1.5698,-1.6995,-1.8071,-1.8096,-1.8775,-1.9297,-1.9297,-1.9297,-1.9238,-1.9026,-1.9182,-1.9212,0.0,-1.919,-1.923,-1.9018,-1.9001,-1.878,-1.8249,-1.8218,-1.811,-1.7822,-1.7811,-1.8149,-1.886,-1.8872,-1.9232,-1.9934,-1.9934,-1.9934,-1.9934,-1.9934,-1.9951,-1.9968,-1.9985,-2.0002,-2.0002,-2.0002,-2.0002,-2.0002,-1.9968,-1.9968,-1.9951,-1.9921,-1.8793,-1.7284,-1.7268,-1.7052,-1.6712,-1.6412,-1.6303,-1.6219,-1.5914,-1.5814,-1.5799,-1.5799,-1.5799,-1.5799,-1.5799,-1.5799,-1.5799,-1.5799,-1.5799,-1.5668,-1.5195,-1.4783,-1.439,-1.4013,-1.3573,-1.324,-1.324,-1.324,-1.3223,-1.3198,-1.282,-1.2347,-1.1884,-1.0954,-1.0322,-1.0303,-1.0293,-1.006,-0.952,-0.8973,-0.8448,-0.7902,-0.7055,-0.6707,-0.6939,-0.6133,-0.5564,-0.5261,-0.4541,-0.3675,-0.2684,-0.256,-0.2243,-0.1757,-0.118,-0.0893,-1.3247,0.0,-1.3398,-1.3003,-1.2894,-1.3115,-1.3912,-1.4095,-1.4169,-1.4438,-1.5141,-1.5857,-1.6401,-1.6945,-1.7649,-1.872,-1.8684,-1.8684,-1.9224,-1.919,-1.9117,-1.9198,-1.9142,0.0,0.0,0.0,0.0,-1.9188,-1.9077,-1.8923,-1.8743,-1.8556,-1.8341,-1.8061,-1.8531,-1.8819,-1.8894,-1.9389,-1.9761,-2.0002,-2.0002,-2.0002,-2.0018,-2.0538,-2.0788,-2.0822,-2.1316,-2.1536,-2.1536,-2.1536,-2.1536,-2.1441,-2.0641,-2.0332,-2.0238,-1.9484,-1.8818,-1.8301,-1.8356,-1.7936,-1.738,-1.7273,-1.7242,-1.7212,-1.7088,-1.6742,-1.6398,-1.6398,-1.6099,-1.5799,-1.5799,-1.5799,-1.5799,-1.5799,-1.5799,-1.5668,-1.5195,-1.4997,-1.4816,-1.4492,-1.431,-1.4101,-1.3844,-1.379,-1.3664,-1.3248,-1.2544,-1.1847,-1.1338,-1.0706,-1.0303,-1.0303,-1.0303,-1.0079,-0.9538,-0.8999,-0.848,-0.7933,-0.7245,-0.69,-0.7,-0.6719,-0.6358,-0.5916,-0.5258,-0.4564,-0.3818,-0.343,-0.2953,-0.2384,-0.2184,-0.1673,-1.3473,-1.3788,-1.4332,-1.4195,-1.4162,-1.4285,-1.4811,-1.4714,-1.4493,-1.4493,-1.4915,-1.5527,-1.6328,-1.6475,-1.7007,-1.861,-1.8445,-1.8361,-1.9097,-1.9142,-1.9092,-1.9048,-1.9346,-1.9562,0.0,0.0,0.0,-1.9612,-1.938,-1.9209,-1.9115,-1.8688,-1.833,-1.8078,-1.8761,-1.9201,-1.9299,-2.0061,-2.0555,-2.0826,-2.0826,-2.0826,-2.0842,-2.1363,-2.1583,-2.1617,-2.2076,-2.2296,-2.2296,-2.2296,-2.2296,-2.2217,-2.1263,-2.0889,-2.0781,-1.9913,-1.948,-1.9279,-1.8983,-1.8527,-1.8067,-1.794,-1.7878,-1.7861,-1.7731,-1.7399,-1.707,-1.707,-1.6787,-1.6488,-1.6488,-1.6488,-1.6428,-1.6174,-1.6114,-1.5936,-1.5253,-1.4997,-1.4786,-1.4479,-1.4267,-1.4088,-1.3818,-1.364,-1.3336,-1.2769,-1.2029,-1.1468,-1.13,-1.0706,-1.0303,-1.0303,-1.0303,-1.0079,-0.9538,-0.8999,-0.848,-0.7933,-0.7342,-0.7,-0.7,-0.7,-0.6747,-0.6206,-0.583,-0.5216,-0.4387,-0.4049,-0.359,-0.3012,-0.2807,-0.2255,-1.4555,-1.5314,-1.5915,-1.5784,-1.5735,-1.5698,-1.5698,-1.505,-1.4438,-1.4438,-1.4481,-1.4744,0.0,0.0,-1.6237,-1.7839,-1.8045,-1.8246,-1.8927,-1.9184,-1.9178,0.0,0.0,0.0,0.0,0.0,0.0,-2.0234,0.0,-1.9563,-1.9306,-1.8592,-1.8085,-1.7862,-1.8572,-1.9316,-2.0052,-2.0856,-2.1613,-2.2296,-2.2296,-2.2296,-2.2296,-2.2296,-2.2296,-2.2296,-2.2296,-2.2296,-2.2296,-2.2296,-2.2296,-2.2237,-2.1794,-2.1597,-2.1536,-2.1118,-2.0682,-2.0162,-1.9184,-1.8847,-1.8772,-1.8393,-1.8285,-1.8222,-1.7902,-1.7788,-1.7758,-1.7758,-1.7728,-1.7713,-1.7713,-1.7713,-1.7533,-1.689,-1.6741,-1.6455,-1.5426,-1.4869,-1.4447,-1.4023,-1.3539,-1.3198,-1.3198,-1.2826,-1.2383,-1.1902,-1.1375,-1.1207,-1.1664,-1.0878,-1.0303,-1.0303,-1.0303,-1.0098,-0.9578,-0.9039,-0.8513,-0.7974,-0.7384,-0.7021,-0.7,-0.7,-0.6768,-0.6243,-0.6221,-0.5637,-0.45,-0.443,-0.4136,-0.3622,-0.3034,-0.2659,-1.4751,-1.5604,-1.6642,-1.661,-1.6145,-1.5698,-1.5698,-1.4615,-1.3611,-1.3611,-1.4156,-1.4669,0.0,0.0,0.0,-1.7854,-1.742,0.0,-1.9013,-1.9478,0.0,-1.9989,0.0,-2.0859,-2.1011,-2.1273,0.0,0.0,-2.0059,-1.9371,-1.9295,-1.8408,-1.8116,-1.8589,-1.9338,-2.0099,-2.0886,-2.1651,-2.2124,-2.2296,-2.2296,-2.2296,-2.2296,-2.2296,-2.2296,-2.2296,-2.2296,-2.2296,-2.2296,-2.2296,-2.2296,-2.2237,-2.1794,-2.1597,-2.1506,-2.0764,-2.0399,-2.0217,-1.967,-1.9478,-1.9461,-1.9358,-1.9323,-1.9306,-1.9216,-1.8837,-1.8446,-1.8446,-1.8087,-1.7713,-1.7713,-1.7713,-1.7652,-1.7488,-1.7443,-1.7255,-1.6591,-1.6043,-1.5457,-1.4656,-1.3792,-1.3198,-1.3198,-1.3112,-1.2873,-1.2401,-1.192,-1.1367,-1.0764,-1.0467,-1.0303,-1.0303,-1.0303,-1.0244,-1.0108,-0.9597,-0.9059,-0.8541,-0.7966,-0.7468,-0.7021,-0.7,-0.6937,-0.6795,-0.6413,-0.605,-0.5744,-0.4848,-0.4325,-0.4176,-0.3634,-0.3057,-1.5123,-1.6232,-1.733,-1.7,-1.656,-1.6145,-1.5845,-1.4822,-1.3928,-1.3988,-1.4424,0.0,-1.5079,-1.5266,0.0,0.0,0.0,0.0,-1.8929,-1.9721,-2.0129,0.0,-2.1004,0.0,-2.1812,-2.208,-2.2117,0.0,-2.0424,-1.9606,-1.9606,-1.8767,-1.8471,-1.8888,-1.9959,-2.0906,-2.1681,-2.2076,-2.2296,-2.2296,-2.2296,-2.2296,-2.2296,-2.2296,-2.2296,-2.2296,0.0,-2.2296,-2.2296,-2.2296,-2.2296,-2.2237,-2.1794,-2.1597,-2.1491,-2.0617,-2.0297,-2.0229,-1.9839,-1.9708,-1.9708,-1.9708,-1.9708,-1.9708,-1.9708,-1.9453,-1.9136,-1.9136,-1.8867,-1.8583,-1.8583,-1.8583,-1.844,-1.7907,-1.7783,-1.7559,-1.6736,-1.6173,-1.5561,-1.4619,-1.3981,-1.3509,-1.3248,-1.303,-1.272,-1.2264,-1.1763,-1.1169,-1.039,-1.0303,-1.0303,-1.0303,-1.0303,-1.0303,-1.0303,-0.9804,-0.9279,-0.8736,-0.8193,-0.7642,-0.7021,-0.7,-0.7,-0.7,-0.6477,-0.6072,-0.5809,-0.487,-0.4286,-0.4049,-0.3729,-0.3324,-1.568,-1.7032,-1.8071,-1.7257,-1.6982,-1.6728,-1.605,-1.5195,-1.4578,-1.4694,0.0,-1.4882,-1.5346,-1.5042,-1.5386,-1.741,0.0,-1.7351,-1.8801,-1.9899,-2.0381,-1.9967,-2.1488,-2.2545,-2.2437,-2.2772,-2.2682,-2.1934,-2.0623,-1.9913,-1.9985,-1.9299,-1.899,-1.921,-2.0598,-2.1651,-2.2296,-2.2296,-2.2296,-2.2296,-2.2296,-2.2296,-2.2296,-2.2296,-2.2296,-2.2296,0.0,0.0,-2.2296,-2.2296,-2.2268,-2.218,-2.1764,-2.1567,-2.143,-2.0601,-2.0297,-2.0229,-1.9839,-1.9708,-1.9708,-1.9708,-1.9708,-1.9708,-1.9708,-1.9708,-1.9708,-1.9708,-1.9708,-1.9708,-1.9708,-1.9708,-1.9417,-1.8307,-1.8036,-1.7711,-1.6528,-1.5867,-1.5264,-1.4373,-1.4217,-1.4022,-1.3416,-1.2918,-1.2418,-1.1877,-1.1338,-1.0829,-1.0361,-1.0303,-1.0303,-1.0303,-1.0303,-1.0303,-1.0303,-0.9883,-0.9339,-0.8736,-0.8255,-0.7697,-0.7021,-0.7,-0.7,-0.7,-0.6541,-0.6023,-0.5416,-0.4805,-0.4242,-0.3711,-0.3622,-0.3497,-1.6658,-1.7876,-1.8911,-1.8089,-1.7385,-1.6728,-1.605,-1.4766,0.0,0.0,-1.3905,-1.378,-1.3061,-1.3983,-1.5068,-1.5692,-1.6229,-1.7142,-1.8776,0.0,-2.0878,0.0,0.0,0.0,0.0,0.0,0.0,0.0,0.0,0.0,-1.9968,-1.9299,-1.9481,-2.075,-2.1651,-2.2161,-2.2296,-2.2296,-2.2296,-2.2296,-2.2296,-2.2296,-2.2296,-2.2296,-2.2296,-2.2296,0.0,0.0,-2.2296,-2.2296,-2.2061,-2.1703,-2.1643,-2.1399,-2.1039,-2.05,-2.0297,-2.0229,-1.9839,-1.9708,-1.9708,-1.9708,-1.9708,-1.9708,-1.9708,-1.9708,-1.9708,-1.9708,-1.9708,-1.9708,-1.9708,-1.9708,-1.9536,-1.8875,-1.8734,-1.8427,-1.7323,-1.6333,-1.5479,-1.4878,-1.4765,-1.4588,-1.4035,-1.3515,-1.2847,-1.1952,-1.1338,-1.0829,-1.0361,-1.0303,-1.0303,-1.0303,-1.0303,-1.0303,-1.0303,-1.0215,-0.9745,-0.8756,-0.8614,-0.8103,-0.7042,-0.7,-0.7,-0.7,-0.6915,-0.6598,-0.605,-0.5437,-0.4848,-0.4242,-0.3814,-0.3497,-1.6798,-1.7458,-1.7961,-1.7575,-1.6878,-1.6116,-1.5521,0.0,0.0,0.0,-1.3757,-1.3612,-1.3038,-1.3947,0.0,-1.5998,-1.6464,-1.7271,-1.8931,-1.9957,0.0,0.0,0.0,0.0,0.0,0.0,0.0,0.0,0.0,0.0,-1.9963,-2.0061,-2.0615,-2.1735,-2.2124,-2.2296,-2.2296,-2.2296,-2.2296,-2.2296,-2.2296,-2.2296,-2.2296,-2.2296,-2.2296,-2.2296,0.0,0.0,-2.2296,-2.2296,-2.218,-2.1943,-2.1688,-2.1476,-2.1228,-2.055,-2.0297,-2.0229,-1.9839,-1.9708,-1.9708,-1.9708,-1.9708,-1.9708,-1.9708,-1.9708,-1.9708,-1.9708,-1.9708,-1.9708,-1.9708,-1.9708,-1.9566,-1.9024,-1.8477,-1.7847,-1.7055,-1.6486,-1.5957,-1.5424,-1.5324,-1.5148,-1.4614,-1.4045,-1.3326,-1.2366,-1.1735,-1.1098,-1.039,-1.0303,-1.0303,-1.0303,-1.0303,-1.0303,-1.0303,-1.0303,-0.9961,-0.9159,-0.8857,-0.8329,-0.751,-0.7168,-0.7,-0.7,-0.6725,-0.6301,-0.5717,-0.513,-0.4548,-0.3987,-0.3711,-0.3541,-1.653,-1.6762,-1.6853,-1.6688,-1.6034,-1.5341,-1.4944,-1.4065,0.0,0.0,-1.3754,-1.3652,-1.3306,0.0,-1.5104,0.0,-1.6753,-1.743,-1.8935,-1.9695,-2.0099,0.0,0.0,0.0,0.0,0.0,0.0,0.0,0.0,0.0,-1.998,-2.0754,-2.1546,-2.2279,-2.2296,-2.2296,-2.2296,-2.2296,-2.2296,-2.2296,-2.2296,-2.2296,-2.2296,-2.2296,-2.2296,-2.2296,0.0,0.0,0.0,-2.2296,-2.2237,-2.2106,-2.1643,-2.1414,-2.1228,-2.0466,-2.0176,-2.0124,-1.9818,-1.9708,-1.9708,-1.9708,-1.9708,-1.9708,-1.9708,-1.9708,-1.9708,-1.9708,-1.9708,-1.9708,-1.9708,-1.9708,-1.9548,-1.8874,-1.7907,-1.7013,-1.6595,-1.65,-1.6384,-1.5957,-1.5869,-1.5693,-1.516,-1.4486,-1.3732,-1.2856,-1.2035,-1.1266,-1.0518,-1.0361,-1.0303,-1.0303,-1.0303,-1.0303,-1.0303,-1.0303,-1.002,-0.9359,-0.8938,-0.839,-0.7746,-0.7259,-0.7,-0.7,-0.6583,-0.6023,-0.5303,-0.4826,-0.4246,-0.3604,-0.3604,-0.3604,-1.5986,-1.6346,-1.6725,-1.5986,-1.5215,-1.4631,-1.4705,0.0,-1.2646,-1.3444,-1.3611,-1.3372,-1.257,-1.3663,0.0,0.0,0.0,-1.7304,-1.8502,-1.9288,-1.99,0.0,0.0,0.0,0.0,0.0,0.0,0.0,0.0,0.0,0.0,-2.0754,-2.1546,-2.2279,-2.2296,-2.2296,-2.2296,-2.2296,-2.2296,-2.2296,-2.2296,-2.2296,-2.2296,-2.2296,-2.2296,-2.2296,0.0,0.0,0.0,-2.2296,-2.2046,-2.1628,-2.1213,-2.0781,-2.0365,-1.9927,-1.9747,-1.9747,-1.9711,-1.9708,-1.9708,-1.9708,-1.9708,-1.9708,-1.9708,-1.9708,-1.9708,-1.9708,-1.9708,-1.9708,-1.9708,-1.9708,-1.9442,-1.8419,-1.7353,-1.6552,-1.6522,-1.65,-1.6488,-1.6437,-1.6425,-1.6249,-1.5718,-1.4767,-1.3874,-1.323,-1.1912,-1.093,-1.0859,-1.0537,-1.0303,-1.0303,-1.0303,-1.0303,-1.0303,-1.0303,-0.9863,-0.8837,-0.8716,-0.8218,-0.7126,-0.7021,-0.7,-0.7,-0.6958,-0.6401,-0.5303,-0.5238,-0.4657,-0.3604,-0.3604,-0.3604,-1.5655,-1.5582,-1.5484,-1.5655,-1.4725,-1.3937,-1.4565,0.0,-1.1752,-1.2639,-1.2792,-1.2645,-1.2247,-1.3491,-1.4784,-1.5432,-1.5898,0.0,-1.7449,-1.7694,-1.8208,0.0,0.0,0.0,0.0,0.0,0.0,0.0,0.0,0.0,0.0,-2.1181,-2.2006,-2.2279,-2.2296,-2.2296,-2.2296,-2.2296,-2.2296,-2.2296,-2.2296,-2.2296,-2.2296,-2.2296,-2.2296,-2.2296,0.0,0.0,0.0,-2.2296,-2.2194,-2.1943,-2.1276,-2.0878,-2.0649,-1.9945,-1.9708,-1.9708,-1.9708,-1.9708,-1.9708,-1.9708,-1.9708,-1.9708,-1.9708,-1.9708,-1.9708,-1.9708,-1.9708,-1.9708,-1.9708,-1.946,-1.8949,-1.7867,-1.7291,-1.69,-1.6573,-1.65,-1.65,-1.65,-1.65,-1.6425,-1.6233,-1.5215,-1.4294,-1.38,-1.2558,-1.1611,-1.1359,-1.0928,-1.0654,-1.0654,-1.043,-1.0303,-1.0303,-1.0303,-0.9981,-0.9219,-0.8878,-0.8349,-0.7572,-0.7196,-0.7,-0.7,-0.7,-0.6437,-0.5303,-0.5303,-0.4727,-0.3604,-0.3604,-0.3604,-1.4964,-1.4756,-1.464,-1.5197,-1.4303,-1.355,0.0,-1.2743,-1.1203,-1.2068,-1.2205,-1.2156,-1.2109,-1.3411,-1.475,-1.557,-1.5698,-1.604,-1.699,-1.6979,0.0,0.0,0.0,0.0,0.0,0.0,0.0,0.0,0.0,0.0,0.0,-2.1248,-2.206,-2.2296,-2.2296,-2.2296,-2.2296,-2.2296,-2.2296,-2.2296,-2.2296,-2.2296,-2.2296,-2.2149,-2.2092,0.0,0.0,0.0,0.0,-2.1915,-2.1915,-2.184,-2.1086,-2.0797,-2.0715,-1.9962,-1.9708,-1.9708,-1.9708,-1.9708,-1.9708,-1.9708,-1.9708,-1.9708,-1.9708,-1.9708,-1.9708,-1.9708,-1.9584,-1.946,-1.946,-1.8949,-1.8243,-1.7483,-1.7167,-1.6951,-1.6573,-1.65,-1.65,-1.65,-1.6358,-1.6238,-1.6238,-1.5242,-1.4335,-1.4049,-1.2975,-1.2096,-1.1797,-1.1398,-1.1055,-1.0918,-1.0503,-1.0193,-1.0069,-0.9922,-0.9597,-0.9059,-0.8675,-0.8214,-0.7663,-0.7231,-0.7,-0.7,-0.7,-0.6437,-0.5303,-0.5303,-0.4727,-0.3604,-0.3604,-0.3604,-1.3758,-1.3899,-1.4493,-1.4512,-1.3899,-1.3519,-1.4316,-1.264,-1.1136,-1.1934,-1.21,-1.2095,-1.2095,-1.3411,-1.475,-1.557,-1.5698,-1.6177,-1.7493,-1.7696,0.0,0.0,0.0,0.0,0.0,0.0,0.0,0.0,0.0,0.0,0.0,0.0,-2.1546,-2.2279,-2.2296,-2.2296,-2.2296,-2.2296,-2.2296,-2.2296,-2.2296,-2.2296,-2.2282,-2.1809,0.0,0.0,0.0,0.0,0.0,-2.1007,-2.1007,-2.0959,-2.05,-2.0314,-2.0263,-1.9839,-1.9708,-1.9708,-1.9708,-1.9708,-1.9708,-1.9708,-1.9708,-1.9708,-1.9708,-1.9708,-1.9708,-1.9708,-1.9332,-1.8912,-1.8912,-1.8125,-1.7312,-1.7312,-1.69,-1.6522,-1.65,-1.65,-1.65,-1.65,-1.603,-1.561,-1.561,-1.4618,-1.3815,-1.3805,-1.2892,-1.2203,-1.2203,-1.1836,-1.1408,-1.0957,-1.0412,-0.9935,-0.9534,-0.9019,-0.848,-0.7953,-0.7912,-0.7642,-0.7042,-0.7,-0.7,-0.7,-0.7,-0.6437,-0.5303,-0.5303,-0.4727,-0.3604,-0.3604,-0.3604,-1.4256,-1.4436,-1.4608,-1.4522,-1.3899,-1.3519,-1.431,-1.2635,-1.1132,-1.193,-1.165,-1.1448,-1.2003,-1.2963,-1.4119,-1.5478,-1.5698,-1.604,0.0,0.0,0.0,0.0,0.0,0.0,0.0,0.0,0.0,0.0,0.0,0.0,0.0,0.0,-2.1546,-2.2279,-2.2296,-2.2296,-2.2296,-2.2296,-2.2296,-2.2296,-2.1957,-2.1809,-2.1809,-2.1368,0.0,0.0,0.0,0.0,0.0,-2.0991,-2.0991,-2.0943,-2.0483,-2.0297,-2.0246,-1.9839,-1.9708,-1.9708,-1.9708,-1.9708,-1.9708,-1.9708,-1.9708,-1.9708,-1.9708,-1.9708,-1.9708,-1.9708,-1.9314,-1.8817,-1.8458,-1.7827,-1.7209,-1.6837,-1.6616,-1.65,-1.65,-1.65,-1.638,-1.5952,-1.572,-1.5477,-1.505,-1.4329,-1.3792,-1.3792,-1.3165,-1.2676,-1.2676,-1.2295,-1.194,-1.1804,-1.0602,-0.974,-0.9522,-0.8999,-0.848,-0.7933,-0.7899,-0.7642,-0.7021,-0.7,-0.7,-0.7,-0.6647,-0.6066,-0.5303,-0.4891,-0.4312,-0.3604,-0.3604,-0.3604,-1.3547,-1.3979,-1.4261,-1.4454,-1.3899,-1.3427,-1.393,-1.2402,-1.104,-1.154,-1.1242,-1.115,-1.1948,-1.2766,-1.3739,-1.5031,-1.5184,0.0,0.0,0.0,0.0,0.0,0.0,0.0,0.0,0.0,0.0,0.0,0.0,0.0,0.0,0.0,-2.1092,-2.1854,-2.2144,-2.2296,-2.2296,-2.2296,-2.2209,-2.2032,-2.1733,-2.1521,-2.1353,0.0,0.0,0.0,0.0,0.0,0.0,-2.0514,-2.0514,-2.0481,-2.0193,-2.0072,-2.0052,-1.98,-1.9708,-1.9708,-1.9708,-1.9708,-1.9708,-1.9708,-1.9708,-1.9708,-1.9708,-1.9708,-1.9708,-1.9708,-1.9169,-1.8516,-1.8204,-1.7544,-1.6909,-1.6573,-1.65,-1.65,-1.65,-1.6315,-1.6051,-1.5676,-1.5219,-1.479,-1.4422,-1.3849,-1.3457,-1.3457,-1.3152,-1.2905,-1.2905,-1.2646,-1.2389,-1.2223,-1.0868,-0.9866,-0.9588,-0.8759,-0.8053,-0.7579,-0.7551,-0.7384,-0.7021,-0.7,-0.7,-0.7,-0.6477,-0.5894,-0.5303,-0.4482,-0.3924,-0.3604,-0.3604,-0.3604,0.0,-1.2701,-1.3499,-1.4154,-1.377,-1.3206,-1.3206,-1.2003,0.0,-1.0893,-1.0857,-1.1099,-1.2021,-1.2737,-1.3516,-1.4494,-1.4434,0.0,0.0,0.0,0.0,0.0,0.0,0.0,0.0,0.0,0.0,0.0,0.0,0.0,0.0,0.0,0.0,-2.1173,-2.1877,-2.2237,-2.2237,-2.2237,-2.2017,-2.1552,-2.1521,-2.1322,-2.0926,0.0,0.0,0.0,0.0,0.0,0.0,-1.9708,-1.9708,-1.9708,-1.9708,-1.9708,-1.9708,-1.9708,-1.9708,-1.9708,-1.9708,-1.9708,-1.969,-1.9657,-1.9639,-1.9639,-1.9603,-1.9639,-1.969,-1.9639,-1.8893,-1.8086,-1.8046,-1.7271,-1.65,-1.65,-1.65,-1.65,-1.65,-1.603,-1.5588,-1.5543,-1.4595,-1.3802,-1.3745,-1.3262,-1.2905,-1.2905,-1.2905,-1.2905,-1.2905,-1.2905,-1.2725,-1.2221,-1.1125,-1.0217,-0.9714,-0.8355,-0.7404,-0.7086,-0.7066,-0.7053,-0.7033,-0.7033,-0.7005,-0.6937,-0.6365,-0.5766,-0.5178,-0.4122,-0.3607,-0.3617,-0.3617,-0.3624,-1.1076,0.0,-1.2645,-1.2663,-1.2517,-1.2375,0.0,-1.1613,-1.0893,-1.0893,-1.0402,-1.0594,-1.2637,-1.2534,-1.3015,-1.5685,0.0,0.0,0.0,0.0,0.0,0.0,0.0,0.0,0.0,0.0,0.0,0.0,0.0,0.0,0.0,0.0,0.0,-2.1173,-2.1573,-2.1764,-2.1764,-2.1764,-2.1553,-2.1134,-2.0781,-2.0566,-2.0449,0.0,0.0,0.0,0.0,0.0,-1.9708,-1.9708,-1.9708,-1.9708,-1.9708,-1.9708,-1.9708,-1.9708,-1.9708,-1.9708,-1.9708,-1.9708,-1.9621,-1.9225,-1.9095,-1.9006,-1.8593,-1.9043,-1.9603,-1.9207,-1.8612,-1.8007,-1.7585,-1.6993,-1.65,-1.65,-1.65,-1.65,-1.65,-1.603,-1.5454,-1.4994,-1.4306,-1.3661,-1.319,-1.2992,-1.2905,-1.2905,-1.2905,-1.2905,-1.2905,-1.2905,-1.2652,-1.1975,-1.1187,-1.0376,-0.9554,-0.8452,-0.7766,-0.7699,-0.7692,-0.7586,-0.7397,-0.7383,-0.7059,-0.6398,-0.5367,-0.4548,-0.399,-0.3733,-0.3658,-0.3741,-0.3741,-0.3805,-1.0283,-1.1348,-1.2365,-1.2584,-1.2375,-1.2095,-1.2095,-1.1196,-1.0351,-1.0351,-1.0296,-1.0734,-1.2321,-1.2757,0.0,0.0,0.0,0.0,0.0,0.0,0.0,0.0,0.0,0.0,0.0,0.0,0.0,0.0,0.0,0.0,0.0,0.0,0.0,0.0,-2.0387,-2.0951,-2.1597,-2.1414,-2.1118,-2.0682,-2.0433,-2.0195,-2.0017,0.0,0.0,0.0,0.0,0.0,-1.9708,-1.9708,-1.9708,-1.9708,-1.9708,-1.9708,-1.9708,-1.9708,-1.9708,-1.9708,-1.9708,-1.9708,-1.9639,-1.9369,-1.9114,-1.8855,-1.8554,-1.8688,-1.8912,-1.8612,-1.8165,-1.7666,-1.7394,-1.6888,-1.65,-1.65,-1.65,-1.6423,-1.6151,-1.5622,-1.5005,-1.4399,-1.3802,-1.3286,-1.2954,-1.2905,-1.2905,-1.2905,-1.2905,-1.2905,-1.2905,-1.2905,-1.2608,-1.1888,-1.1191,-1.0462,-0.9643,-0.8812,-0.8192,-0.7925,-0.7905,-0.7832,-0.7689,-0.7682,-0.7184,-0.6123,-0.513,-0.4353,-0.3782,-0.3782,-0.3822,-0.3897,-0.3897,-0.3941,-0.9864,-1.1017,-1.2285,-1.2657,-1.2412,-1.2076,-1.1948,-1.0961,-1.0066,-1.0066,0.0,0.0,0.0,-1.3361,0.0,0.0,0.0,0.0,0.0,0.0,0.0,0.0,0.0,0.0,0.0,0.0,0.0,0.0,0.0,0.0,0.0,0.0,0.0,0.0,-1.9062,-1.9963,-2.1087,-2.0878,-2.0571,-2.021,-2.021,-2.0035,-1.9708,-1.9708,0.0,0.0,0.0,0.0,-1.9708,-1.9708,-1.9708,-1.9708,-1.9708,-1.9708,-1.9708,-1.9708,-1.9708,-1.9708,-1.9708,-1.9708,-1.969,-1.9603,-1.9225,-1.8746,-1.8669,-1.8283,-1.7867,-1.7867,-1.7585,-1.7271,-1.7188,-1.6837,-1.65,-1.65,-1.6423,-1.6216,-1.5698,-1.505,-1.4399,-1.3909,-1.331,-1.2905,-1.2905,-1.2905,-1.2905,-1.2905,-1.2905,-1.2905,-1.2905,-1.2798,-1.2452,-1.1724,-1.104,-1.0389,-0.9718,-0.914,-0.8571,-0.8072,-0.8039,-0.8019,-0.7979,-0.7734,-0.7098,-0.6024,-0.5173,-0.4511,-0.3994,-0.3994,-0.4008,-0.4031,-0.4031,-0.4041,-1.0535,-1.1406,-1.1824,-1.0566,-1.1182,-1.193,-1.1242,-1.1411,-1.1732,-1.1732,0.0,0.0,0.0,-1.4679,-1.5072,0.0,0.0,0.0,0.0,0.0,0.0,0.0,0.0,0.0,0.0,0.0,0.0,0.0,0.0,0.0,0.0,0.0,0.0,-1.8409,0.0,-1.8962,-1.8903,-1.939,-1.9688,-1.98,-1.98,-1.9764,-1.9708,-1.9708,-1.9708,0.0,0.0,-1.9708,-1.9708,-1.9708,-1.9708,-1.9708,-1.9708,-1.9708,-1.9708,-1.9708,-1.9708,-1.9708,-1.9708,-1.9708,-1.9621,-1.9169,-1.865,-1.8145,-1.7686,-1.7167,-1.6752,-1.6752,-1.7013,-1.7188,-1.6731,-1.6552,-1.65,-1.65,-1.6117,-1.572,-1.561,-1.4732,-1.3909,-1.3815,-1.331,-1.2905,-1.2905,-1.2905,-1.2905,-1.2905,-1.2905,-1.2905,-1.2905,-1.2344,-1.1724,-1.104,-1.0338,-0.9692,-0.9008,-0.8857,-0.8764,-0.8677,-0.8671,-0.8564,-0.8342,-0.7016,-0.6199,-0.5999,-0.4779,-0.4094,-0.3994,-0.3994,-0.4062,-0.416,-0.416,-0.4254,-1.0153,-1.0847,-1.1141,-0.9905,-1.1099,-1.2566,-1.2484,-1.2413,-1.2478,-1.2877,0.0,0.0,0.0,0.0,-1.6404,0.0,0.0,0.0,0.0,0.0,0.0,0.0,0.0,0.0,0.0,0.0,0.0,0.0,0.0,0.0,0.0,0.0,0.0,0.0,-1.8573,-1.8532,-1.8568,-1.8873,-1.9074,-1.9151,-1.9528,-1.9708,-1.9708,-1.9708,-1.9708,-1.9708,0.0,-1.9708,-1.9708,-1.9708,-1.9708,-1.9708,-1.9708,-1.9708,-1.9708,-1.9708,-1.953,-1.9262,-1.9262,-1.908,-1.8798,-1.8554,-1.8106,-1.7626,-1.7374,-1.693,-1.65,-1.65,-1.668,-1.6816,-1.6552,-1.65,-1.6423,-1.6095,-1.5798,-1.5432,-1.4767,-1.4179,-1.3708,-1.3372,-1.3079,-1.2905,-1.2905,-1.2905,-1.2905,-1.2905,-1.2559,-1.232,-1.232,-1.1699,-1.099,-1.0338,-0.9987,-0.9543,-0.8857,-0.8804,-0.8804,-0.8804,-0.8804,-0.8744,-0.8611,-0.7146,-0.6334,-0.6334,-0.4961,-0.426,-0.426,-0.426,-0.4297,-0.4365,-0.4365,-0.4399,-0.9933,-1.0421,-1.0757,-1.0173,-1.143,-1.2884,-1.3203,-1.2972,-1.2941,-1.3813,0.0,0.0,0.0,-1.6308,0.0,0.0,0.0,0.0,0.0,0.0,0.0,0.0,0.0,0.0,0.0,0.0,0.0,0.0,0.0,0.0,0.0,0.0,0.0,0.0,-1.839,-1.8296,-1.8463,-1.8627,-1.8777,-1.8942,-1.9453,-1.9708,-1.9708,-1.9854,-1.9857,-1.9708,-1.9872,-1.9857,-1.9708,-1.9708,-1.9708,-1.9708,-1.9708,-1.9708,-1.969,-1.9566,-1.9244,-1.8874,-1.8746,-1.8438,-1.8106,-1.8106,-1.7747,-1.7312,-1.7312,-1.693,-1.65,-1.65,-1.65,-1.65,-1.65,-1.6402,-1.6173,-1.5698,-1.5387,-1.4926,-1.4003,-1.3684,-1.3443,-1.2992,-1.2905,-1.2905,-1.2905,-1.2905,-1.2905,-1.2905,-1.227,-1.1789,-1.1789,-1.1091,-1.0364,-0.9865,-0.9666,-0.9361,-0.8831,-0.8804,-0.8725,-0.8566,-0.8533,-0.8454,-0.8295,-0.7042,-0.634,-0.634,-0.5117,-0.4491,-0.4491,-0.4491,-0.4491,-0.4491,-0.4491,-0.4491,-1.0604,-1.0857,-1.1022,-1.1512,-1.1903,-1.2084,-1.1819,-1.2395,-1.3339,-1.4642,0.0,0.0,0.0,0.0,0.0,0.0,0.0,0.0,0.0,0.0,0.0,0.0,0.0,0.0,0.0,0.0,0.0,0.0,0.0,0.0,0.0,0.0,0.0,0.0,0.0,-1.8067,-1.7773,-1.8386,-1.9016,-1.9633,-1.9678,-1.9708,-1.9723,-2.0348,-2.0288,-1.9738,-2.0363,-2.0273,-1.9708,-1.9708,-1.9708,-1.9708,-1.9708,-1.9708,-1.9639,-1.9151,-1.893,-1.8836,-1.8341,-1.8145,-1.8106,-1.8106,-1.7747,-1.7312,-1.7312,-1.693,-1.65,-1.65,-1.65,-1.65,-1.65,-1.6073,-1.5654,-1.561,-1.4744,-1.3909,-1.3815,-1.3348,-1.2954,-1.2905,-1.2905,-1.2905,-1.2905,-1.2905,-1.2905,-1.2905,-1.227,-1.1789,-1.1789,-1.0661,-0.9865,-0.9814,-0.9237,-0.8857,-0.8804,-0.8804,-0.8507,-0.783,-0.7777,-0.7477,-0.6777,-0.6005,-0.5569,-0.5569,-0.4869,-0.4491,-0.4491,-0.4491,-0.4491,-0.4491,-0.4491,-0.4491,-1.0046,-1.0702,-1.1104,-1.042,-1.1337,-1.2487,-1.2774,-1.3474,-1.4435,-1.5778,-1.6385,0.0,0.0,0.0,0.0,0.0,0.0,0.0,0.0,0.0,0.0,0.0,0.0,0.0,0.0,0.0,0.0,0.0,0.0,0.0,0.0,0.0,0.0,0.0,0.0,-1.9067,-1.8942,-1.9196,-1.9453,-1.9708,-1.9708,-1.9708,-1.9708,-1.9959,-2.0168,-2.0318,-2.0154,-2.0168,-2.0288,-1.9872,-1.9708,-1.9708,-1.9708,-1.9708,-1.9639,-1.9114,-1.8688,-1.8341,-1.7787,-1.7394,-1.7118,-1.7118,-1.6972,-1.6795,-1.6795,-1.6659,-1.65,-1.65,-1.65,-1.65,-1.65,-1.6051,-1.5521,-1.513,-1.4422,-1.3708,-1.3324,-1.3055,-1.2905,-1.2905,-1.2905,-1.2905,-1.2905,-1.2905,-1.2905,-1.2905,-1.1916,-1.1191,-1.1191,-1.002,-0.9185,-0.9185,-0.8956,-0.8804,-0.8804,-0.8804,-0.8295,-0.7101,-0.745,-0.7369,-0.6642,-0.59,-0.5515,-0.5515,-0.4842,-0.4491,-0.4491,-0.4491,-0.4491,-0.4491,-0.4491,-0.4491,-0.9906,-1.0683,-1.1317,-1.0536,-1.1305,-1.2557,-1.3685,-1.416,-1.4726,-1.6075,-1.7117,-1.8031,-1.8758,0.0,0.0,0.0,0.0,0.0,0.0,0.0,0.0,0.0,0.0,0.0,0.0,0.0,0.0,0.0,0.0,0.0,0.0,0.0,0.0,0.0,0.0,0.0,-1.9708,-1.9708,-1.9708,-1.9708,-1.9708,-1.9708,-1.9708,-1.9914,-2.0154,-2.0378,-2.0124,-2.0154,-2.0348,-1.9902,-1.9708,-1.9708,-1.9708,-1.9603,-1.9387,-1.8855,-1.8322,-1.7767,-1.7229,-1.6816,-1.65,-1.65,-1.65,-1.65,-1.65,-1.65,-1.65,-1.65,-1.65,-1.65,-1.65,-1.592,-1.5208,-1.4789,-1.4084,-1.3396,-1.2992,-1.2905,-1.2905,-1.2905,-1.2905,-1.2944,-1.3057,-1.3076,-1.3125,-1.3262,-1.2057,-1.116,-1.116,-0.9941,-0.9045,-0.8931,-0.8864,-0.8804,-0.8804,-0.8804,-0.8182,-0.6696,-0.7074,-0.6934,-0.5991,-0.5441,-0.5191,-0.5191,-0.4732,-0.4491,-0.4491,-0.4491,-0.4491,-0.4491,-0.4491,-0.4491,-1.0422,-1.0936,-1.1668,-1.2393,-1.2045,-1.2072,-1.4194,-1.4126,-1.3989,-1.5346,-1.6796,-1.802,-1.8775,0.0,0.0,0.0,0.0,0.0,0.0,0.0,0.0,0.0,0.0,0.0,0.0,0.0,0.0,0.0,0.0,0.0,0.0,0.0,0.0,0.0,0.0,0.0,-1.9708,-1.9708,-1.9708,-1.9708,-1.9708,-1.9708,-1.9723,-2.0393,-2.0333,-1.9753,-2.0408,-2.0318,-1.9708,-1.9708,-1.969,-1.969,-1.969,-1.9369,-1.8836,-1.8302,-1.7767,-1.7209,-1.6701,-1.65,-1.65,-1.65,-1.65,-1.65,-1.65,-1.65,-1.65,-1.6488,-1.65,-1.65,-1.6466,-1.5589,-1.4698,-1.4698,-1.3776,-1.2905,-1.2905,-1.2905,-1.2905,-1.2905,-1.2915,-1.3042,-1.3437,-1.3516,-1.3627,-1.4019,-1.2841,-1.1894,-1.1894,-1.0601,-0.9573,-0.9251,-0.8958,-0.8818,-0.8811,-0.8811,-0.8156,-0.6696,-0.6588,-0.5959,-0.4546,-0.4491,-0.4491,-0.4491,-0.4491,-0.4491,-0.4491,-0.4491,-0.4491,-0.4491,-0.4491,-0.4491,-0.9634,-1.047,-1.1291,-1.099,0.0,0.0,-1.3633,-1.4084,-1.4906,0.0,-1.7912,-1.864,-1.886,0.0,0.0,0.0,0.0,0.0,0.0,0.0,0.0,0.0,0.0,0.0,0.0,0.0,0.0,0.0,0.0,0.0,0.0,0.0,0.0,0.0,0.0,0.0,-1.9708,-1.9708,-1.9708,-1.9708,-1.9708,-1.9708,-1.9708,-1.9899,-2.0154,-2.0393,-2.0109,-2.0154,-2.0341,-1.9486,-1.9151,-1.9114,-1.8708,-1.8477,-1.8283,-1.7747,-1.7442,-1.7209,-1.6701,-1.65,-1.65,-1.65,-1.65,-1.65,-1.65,-1.65,-1.6402,-1.5986,-1.5864,-1.5776,-1.5332,-1.4652,-1.4167,-1.4606,-1.3776,-1.2905,-1.2905,-1.2905,-1.2993,-1.3262,-1.332,-1.3457,-1.3851,-1.3919,-1.3772,-1.3322,-1.2484,-1.1539,-1.0487,-0.9962,-0.9653,-0.9559,-0.9472,-0.9339,-0.9104,-0.8639,-0.7862,-0.668,-0.6118,-0.5437,-0.4546,-0.4491,-0.4491,-0.4491,-0.4491,-0.4491,-0.4491,-0.4491,-0.4491,-0.4491,-0.4491,-0.4491,-0.9512,-1.0382,0.0,-1.1432,-1.2434,-1.3549,-1.4133,0.0,0.0,0.0,-1.8149,-1.8454,-1.8454,0.0,0.0,0.0,0.0,0.0,0.0,0.0,0.0,0.0,0.0,0.0,0.0,0.0,0.0,0.0,0.0,0.0,0.0,0.0,0.0,0.0,0.0,0.0,-1.9708,-1.9708,-1.9708,-1.9708,-1.9708,-1.9708,-1.9708,-1.9708,-1.9914,-2.0255,-1.9638,-1.9609,-1.9906,-1.8975,-1.8574,-1.8554,-1.8243,-1.7967,-1.7747,-1.7435,-1.7167,-1.693,-1.6616,-1.65,-1.65,-1.65,-1.65,-1.6457,-1.6216,-1.6139,-1.6008,-1.541,-1.5231,-1.5163,-1.4789,-1.426,-1.3886,-1.426,-1.361,-1.2905,-1.2905,-1.2905,-1.3032,-1.3428,-1.3506,-1.3701,-1.4287,-1.4367,-1.417,-1.3502,-1.2533,-1.1409,-1.0207,-0.9927,-0.986,-0.986,-0.9753,-0.9613,-0.9404,-0.8907,-0.8096,-0.6867,-0.6246,-0.5525,-0.4604,-0.4522,-0.4491,-0.4491,-0.4491,-0.4491,-0.4491,-0.4491,-0.4491,-0.4491,-0.4552,-0.4379,-0.9728,-1.0392,-1.1286,-1.2803,-1.3345,0.0,-1.5274,-1.6164,-1.6908,-1.7659,0.0,-1.78,0.0,0.0,0.0,0.0,0.0,0.0,0.0,0.0,0.0,0.0,0.0,0.0,0.0,0.0,0.0,0.0,0.0,0.0,0.0,0.0,0.0,0.0,0.0,0.0,-1.9708,-1.9708,-1.9708,0.0,-1.9708,-1.9708,-1.9708,-1.9708,-1.9672,-1.9603,-1.9062,-1.8836,-1.8798,-1.8263,-1.8027,-1.8027,-1.7967,-1.7666,-1.7229,-1.7229,-1.6909,-1.65,-1.65,-1.65,-1.65,-1.65,-1.65,-1.638,-1.5776,-1.561,-1.5454,-1.4812,-1.4629,-1.4606,-1.4548,-1.4131,-1.3732,-1.3732,-1.331,-1.2905,-1.2905,-1.2905,-1.3042,-1.3477,-1.3539,-1.3838,-1.4697,-1.4788,-1.4563,-1.4061,-1.2687,-1.1437,-1.0681,-1.0321,-1.016,-1.016,-0.992,-0.9782,-0.9726,-0.9387,-0.8592,-0.7206,-0.6759,-0.6016,-0.4762,-0.458,-0.4498,-0.4511,-0.4511,-0.4511,-0.4511,-0.4525,-0.4532,-0.4535,-0.4646,-0.4267,-0.8981,-0.9333,0.0,-1.1249,-1.294,-1.4496,-1.5392,-1.6164,-1.6908,-1.7659,-1.78,0.0,0.0,0.0,0.0,0.0,0.0,0.0,0.0,0.0,0.0,0.0,0.0,0.0,0.0,0.0,0.0,0.0,0.0,0.0,0.0,0.0,0.0,0.0,0.0,-1.9708,-1.9708,-1.9708,-1.9708,0.0,-1.9708,-1.9708,-1.9708,-1.9708,-1.946,-1.9043,-1.8496,-1.8283,-1.8243,-1.7686,-1.7463,-1.7422,-1.7013,-1.6774,-1.668,-1.668,-1.6595,-1.65,-1.65,-1.65,-1.65,-1.65,-1.65,-1.638,-1.5776,-1.561,-1.5387,-1.4295,-1.398,-1.3873,-1.3406,-1.32,-1.3079,-1.3079,-1.2992,-1.2905,-1.2905,-1.2905,-1.3105,-1.3831,-1.3968,-1.4241,-1.5127,-1.4742,-1.3868,-1.2519,-1.1469,-1.0807,-1.0624,-1.0539,-1.0492,-1.0492,-1.0439,-1.0311,-1.0047,-0.9414,-0.8526,-0.7322,-0.6651,-0.5859,-0.4897,-0.4638,-0.4545,-0.4668,-0.4672,-0.4672,-0.4672,-0.4762,-0.4819,-0.4823,-0.4853,-0.4746,-0.871,-0.8952,0.0,-1.1226,0.0,-1.4689,-1.5426,-1.6164,-1.6849,-1.7445,0.0,0.0,0.0,0.0,0.0,0.0,0.0,0.0,0.0,0.0,0.0,0.0,0.0,0.0,0.0,0.0,0.0,0.0,0.0,0.0,0.0,0.0,0.0,0.0,-1.9211,-1.9393,-1.9708,-1.9708,-1.9708,-1.9708,-1.9708,-1.9566,-1.9332,-1.9332,-1.9169,-1.8855,-1.8066,-1.7727,-1.7686,-1.7126,-1.6775,-1.6535,-1.6515,-1.6337,-1.6158,-1.64,-1.65,-1.65,-1.65,-1.65,-1.65,-1.65,-1.6303,-1.5964,-1.5343,-1.4983,-1.4549,-1.3624,-1.3372,-1.331,-1.2968,-1.2905,-1.2905,-1.2905,-1.2905,-1.2905,-1.2905,-1.2905,-1.3026,-1.3451,-1.353,-1.3672,-1.4166,-1.3567,-1.2779,-1.1919,-1.1108,-1.0593,-1.0593,-1.0593,-1.0593,-1.0593,-1.0593,-1.0526,-1.0341,-0.9851,-0.8932,-0.7572,-0.702,-0.6203,-0.5047,-0.4802,-0.4718,-0.4799,-0.4799,-0.4799,-0.4799,-0.488,-0.4887,-0.4891,-0.4958,-0.4768,-0.871,-0.9083,-0.9772,-1.1789,-1.3312,0.0,-1.524,-1.5876,-1.6469,0.0,0.0,0.0,0.0,0.0,0.0,0.0,0.0,0.0,0.0,0.0,0.0,0.0,0.0,0.0,0.0,0.0,0.0,0.0,0.0,0.0,0.0,0.0,-1.7893,-1.8687,-1.8702,-1.9016,-1.9693,-1.9708,-1.9708,-1.9708,-1.9603,-1.9332,-1.8893,-1.8708,-1.8612,-1.8574,-1.7585,-1.7146,-1.7126,-1.668,-1.6245,-1.5881,-1.6333,-1.6233,-1.5894,-1.6337,-1.65,-1.65,-1.638,-1.6324,-1.6337,-1.6216,-1.5854,-1.532,-1.4744,-1.419,-1.3661,-1.3065,-1.2905,-1.2905,-1.2905,-1.2905,-1.2905,-1.2905,-1.2905,-1.2905,-1.2905,-1.2964,-1.2988,-1.2923,-1.2919,-1.29,-1.2811,-1.2235,-1.1741,-1.1617,-1.1021,-1.0593,-1.0593,-1.0593,-1.0593,-1.0593,-1.0593,-1.0593,-1.0593,-1.0334,-0.9494,-0.7866,-0.7537,-0.6722,-0.5229,-0.5057,-0.4996,-0.4996,-0.4938,-0.4924,-0.4924,-0.4982,-0.4996,-0.4999,-0.5114,-0.4778,-0.871,0.0,-1.1052,0.0,-1.2931,-1.3743,0.0,0.0,-1.5093,0.0,0.0,0.0,0.0,0.0,0.0,0.0,0.0,0.0,0.0,0.0,0.0,0.0,0.0,0.0,0.0,0.0,0.0,0.0,0.0,0.0,0.0,-1.683,-1.7413,-1.8672,-1.8702,-1.9016,-1.9693,-1.9708,-1.9708,-1.969,-1.9225,-1.8968,-1.8874,-1.7947,-1.7504,-1.7483,-1.6879,-1.6616,-1.6595,-1.6543,-1.645,-1.64,-1.6475,-1.645,-1.64,-1.6475,-1.65,-1.6423,-1.5908,-1.572,-1.5632,-1.5107,-1.488,-1.4721,-1.4097,-1.3862,-1.3661,-1.3065,-1.2905,-1.2905,-1.2905,-1.2905,-1.2905,-1.2905,-1.2905,-1.2905,-1.2905,-1.3164,-1.3324,-1.2978,-1.2952,-1.2772,-1.2097,-1.1865,-1.1562,-1.0863,-1.0688,-1.0593,-1.0593,-1.0593,-1.0593,-1.0593,-1.0593,-1.0593,-1.0593,-1.0553,-0.9787,-0.8077,-0.7923,-0.7145,-0.5427,-0.5344,-0.5337,-0.5337,-0.5169,-0.5069,-0.5069,-0.5237,-0.5337,-0.5337,-0.5354,-0.5295,-0.8722,-0.962,-1.0646,0.0,-1.215,-1.31,-1.4233,0.0,0.0,0.0,0.0,0.0,0.0,0.0,0.0,0.0,0.0,0.0,0.0,0.0,0.0,0.0,0.0,0.0,0.0,0.0,0.0,0.0,0.0,0.0,-1.6189,-1.6204,-1.6622,-1.7548,-1.7594,0.0,-1.9121,-1.9136,-1.9333,-1.969,-1.9169,-1.8727,-1.8438,-1.7646,-1.7312,-1.7271,-1.6731,-1.65,-1.65,-1.65,-1.6158,-1.563,-1.5932,-1.5869,-1.563,-1.5944,-1.6021,-1.5952,-1.5698,-1.5387,-1.5062,-1.4789,-1.4468,-1.4143,-1.3886,-1.3552,-1.3238,-1.2968,-1.2905,-1.2905,-1.2905,-1.2905,-1.2905,-1.2905,-1.2905,-1.2964,-1.3184,-1.3014,-1.2626,-1.2016,-1.1751,-1.1538,-1.1202,-1.1139,-1.1021,-1.0649,-1.0593,-1.0593,-1.0593,-1.0593,-1.0593,-1.0593,-1.0593,-1.0593,-1.0593,-1.0142,-0.9326,-0.8091,-0.7535,-0.6691,-0.5462,-0.5395,-0.5395,-0.5395,-0.5327,-0.526,-0.526,-0.5361,-0.5395,-0.5395,-0.5395,-0.5395,0.0,0.0,-1.0386,-1.0837,-1.1593,-1.2562,0.0,0.0,0.0,0.0,0.0,0.0,0.0,0.0,0.0,0.0,0.0,0.0,0.0,0.0,0.0,0.0,0.0,0.0,0.0,0.0,0.0,0.0,0.0,0.0,-1.5799,-1.5799,-1.6069,-1.6681,-1.6696,-1.7264,-1.8431,-1.8612,-1.8979,-1.9479,-1.8949,-1.8419,-1.7887,-1.7353,-1.7097,-1.7076,-1.668,-1.65,-1.65,-1.65,-1.6032,-1.5349,-1.5743,-1.5561,-1.5116,-1.5525,-1.5559,-1.5343,-1.5197,-1.4846,-1.4445,-1.4294,-1.3944,-1.3576,-1.3576,-1.3262,-1.2905,-1.2905,-1.2905,-1.2905,-1.2905,-1.2905,-1.2905,-1.2905,-1.2983,-1.3105,-1.3307,-1.2813,-1.2121,-1.1412,-1.0915,-1.0593,-1.0593,-1.0593,-1.0593,-1.0593,-1.0593,-1.0593,-1.0593,-1.0593,-1.0593,-1.0593,-1.0593,-1.0593,-1.0593,-0.9786,-0.8914,-0.8059,-0.7177,-0.6301,-0.5428,-0.5395,-0.5395,-0.5395,-0.5395,-0.5395,-0.5395,-0.5395,-0.5292,-0.5057,-0.5057,-0.4921,0.0,-0.9952,0.0,-1.1072,-1.155,0.0,0.0,0.0,0.0,0.0,0.0,0.0,0.0,0.0,0.0,0.0,0.0,0.0,0.0,0.0,0.0,0.0,0.0,0.0,0.0,0.0,0.0,0.0,0.0,0.0,-1.5799,-1.5799,-1.6069,-1.6681,-1.6696,-1.704,-1.7758,-1.8371,-1.8788,-1.8949,-1.84,-1.7867,-1.7333,-1.6795,-1.6531,-1.6531,-1.6522,-1.65,-1.65,-1.65,-1.6463,-1.6412,-1.6437,-1.6089,-1.5582,-1.5594,-1.523,-1.4675,-1.4097,-1.3862,-1.3755,-1.3176,-1.2978,-1.2954,-1.2954,-1.2929,-1.2905,-1.2905,-1.2905,-1.2905,-1.2905,-1.2905,-1.2905,-1.2905,-1.3184,-1.3378,-1.3005,-1.2657,-1.2266,-1.1859,-1.1125,-1.0593,-1.0593,-1.0593,-1.0593,-1.0593,-1.0593,-1.0593,-1.0593,-1.0593,-1.0593,-1.0593,-1.0593,-1.0593,-1.0593,-0.9786,-0.8914,-0.8059,-0.7177,-0.6301,-0.5428,-0.5395,-0.5395,-0.5395,-0.5395,-0.5395,-0.5395,-0.5395,-0.4954,-0.4082,-0.4082,-0.3613,0.0,0.0,0.0,-1.0175,-1.075,-1.1291,0.0,0.0,0.0,0.0,0.0,0.0,0.0,0.0,0.0,0.0,0.0,0.0,0.0,0.0,0.0,0.0,0.0,0.0,0.0,0.0,0.0,0.0,0.0,0.0,-1.5799,-1.5799,-1.5889,-1.6114,-1.6114,-1.6413,-1.7055,-1.8147,-1.8564,-1.8251,-1.8145,-1.7827,-1.7271,-1.6731,-1.65,-1.65,-1.65,-1.65,-1.65,-1.65,-1.6287,-1.5994,-1.5994,-1.5614,-1.509,-1.509,-1.4675,-1.4097,-1.3862,-1.3552,-1.32,-1.2978,-1.2905,-1.2905,-1.2905,-1.2905,-1.2905,-1.2905,-1.2905,-1.2905,-1.2905,-1.2905,-1.2974,-1.3213,-1.3036,-1.2737,-1.2621,-1.2054,-1.1473,-1.1107,-1.0807,-1.0593,-1.0593,-1.0593,-1.066,-1.0841,-1.0713,-1.066,-1.0847,-1.0707,-1.0593,-1.0593,-1.0593,-1.0593,-1.0593,-0.9294,-0.8318,-0.8027,-0.6662,-0.5719,-0.5428,-0.5395,-0.5395,-0.5395,-0.5395,-0.5395,-0.5395,-0.5395,-0.4921,-0.4015,-0.4015,-0.3547,-0.8622,0.0,0.0,0.0,0.0,-1.048,0.0,0.0,0.0,0.0,0.0,0.0,0.0,0.0,0.0,0.0,0.0,0.0,0.0,0.0,0.0,0.0,0.0,0.0,0.0,0.0,0.0,0.0,0.0,0.0,-1.5799,-1.5799,-1.5799,-1.5799,-1.5799,-1.6084,-1.6681,-1.7449,-1.7663,-1.7359,-1.7493,-1.727,-1.6749,-1.6591,-1.65,-1.65,-1.65,-1.65,-1.65,-1.65,-1.6287,-1.5948,-1.5748,-1.5293,-1.4733,-1.4536,-1.4044,-1.3505,-1.3505,-1.3238,-1.2905,-1.2905,-1.2905,-1.2905,-1.2905,-1.2905,-1.2905,-1.2905,-1.2715,-1.2525,-1.2525,-1.2457,-1.2462,-1.2859,-1.2438,-1.2006,-1.2146,-1.1744,-1.1183,-1.0703,-1.0593,-1.0593,-1.0593,-1.0593,-1.066,-1.0854,-1.0713,-1.066,-1.0854,-1.0713,-1.0491,-1.0206,-1.0174,-1.004,-0.9748,-0.8409,-0.7567,-0.7567,-0.621,-0.5395,-0.5395,-0.5395,-0.5395,-0.5395,-0.5395,-0.5395,-0.5395,-0.5395,-0.4755,-0.358,-0.358,-0.2911,0.0,0.0,0.0,0.0,0.0,0.0,0.0,0.0,0.0,0.0,0.0,0.0,0.0,0.0,0.0,0.0,0.0,0.0,0.0,0.0,0.0,0.0,0.0,0.0,0.0,0.0,0.0,0.0,0.0,-1.5799,-1.5799,-1.5799,-1.5799,-1.5799,-1.5784,-1.6054,-1.6651,-1.6262,-1.6142,-1.6247,-1.6405,-1.6205,-1.5718,-1.6245,-1.6488,-1.65,-1.65,-1.65,-1.6466,-1.6488,-1.65,-1.6423,-1.582,-1.5231,-1.4606,-1.4027,-1.342,-1.2905,-1.2905,-1.2905,-1.2905,-1.2905,-1.2905,-1.2905,-1.2905,-1.2905,-1.2905,-1.2881,-1.2344,-1.1789,-1.1789,-1.1533,-1.1385,-1.1812,-1.1466,-1.1233,-1.1705,-1.1772,-1.1531,-1.0744,-1.0593,-1.0593,-1.0593,-1.0593,-1.0593,-1.06,-1.0606,-1.0606,-1.0606,-1.0606,-1.0251,-0.9402,-0.9274,-0.8909,-0.8059,-0.7209,-0.6687,-0.6687,-0.5881,-0.5395,-0.5395,-0.5395,-0.5395,-0.5395,-0.5395,-0.5395,-0.5395,-0.5395,-0.4486,-0.2711,-0.2644,-0.1677,-0.8409,0.0,0.0,0.0,0.0,0.0,0.0,0.0,0.0,0.0,0.0,0.0,0.0,0.0,0.0,0.0,0.0,0.0,0.0,0.0,0.0,0.0,0.0,0.0,0.0,0.0,0.0,0.0,-1.5799,-1.5799,-1.5799,-1.5799,-1.5799,-1.5799,-1.5463,-1.5372,-1.5531,-1.5632,-1.5482,-1.514,-1.5673,-1.5847,-1.5706,-1.5856,-1.6132,-1.65,-1.65,-1.6238,-1.5886,-1.6315,-1.6238,-1.582,-1.5676,-1.4949,-1.4027,-1.3862,-1.342,-1.2905,-1.2905,-1.2905,-1.2905,-1.2905,-1.2905,-1.2905,-1.2905,-1.2905,-1.2798,-1.2261,-1.1972,-1.169,-1.1191,-1.0966,-1.1038,-1.1731,-1.1307,-1.094,-1.1664,-1.1351,-1.0863,-1.0656,-1.0593,-1.0593,-1.0593,-1.0593,-1.0667,-1.0874,-1.0875,-1.0875,-1.0875,-1.0346,-0.9774,-0.9356,-0.8748,-0.8253,-0.8027,-0.7209,-0.6687,-0.6687,-0.5881,-0.5395,-0.5395,-0.5395,-0.5395,-0.5395,-0.5395,-0.5395,-0.5395,-0.5395,-0.4486,-0.2678,-0.1343,-0.0471,-0.8682,0.0,0.0,0.0,0.0,0.0,0.0,-0.9002,0.0,0.0,0.0,0.0,0.0,0.0,0.0,0.0,0.0,0.0,0.0,0.0,0.0,0.0,0.0,0.0,0.0,0.0,0.0,0.0,-1.5799,-1.5799,-1.5799,-1.5799,-1.5799,-1.5799,-1.5344,-1.5104,-1.5104,-1.4911,-1.4678,-1.4369,-1.482,-1.5164,-1.5374,-1.5613,-1.5994,-1.65,-1.6238,-1.593,-1.561,-1.5722,-1.5533,-1.5208,-1.496,-1.4302,-1.3485,-1.3217,-1.2919,-1.2607,-1.2607,-1.2725,-1.2905,-1.2905,-1.2905,-1.2905,-1.2905,-1.2905,-1.2749,-1.1996,-1.1391,-1.0813,-1.0141,-1.0117,-1.0408,-1.0871,-1.08,-1.0713,-1.1195,-1.0926,-1.0593,-1.0593,-1.0593,-1.0593,-1.0593,-1.0593,-1.0646,-1.0821,-1.0847,-1.0711,-1.0347,-0.9858,-0.9204,-0.8301,-0.7767,-0.7307,-0.6957,-0.6465,-0.6174,-0.6174,-0.5686,-0.5395,-0.5395,-0.5395,-0.5395,-0.5395,-0.5395,-0.5193,-0.4821,-0.5226,-0.4486,-0.2644,-0.084,0.0,-0.9167,-0.9443,0.0,0.0,0.0,0.0,-0.9709,-0.9009,0.0,0.0,0.0,0.0,0.0,0.0,0.0,0.0,0.0,0.0,0.0,0.0,0.0,0.0,0.0,0.0,0.0,0.0,-1.4946,-1.553,-1.5649,-1.5724,-1.5799,-1.5799,-1.5784,-1.5726,-1.527,-1.5013,-1.4968,-1.4214,-1.3818,-1.3818,-1.394,-1.4286,-1.484,-1.5374,-1.5906,-1.6391,-1.584,-1.5565,-1.5454,-1.4858,-1.4606,-1.4537,-1.4003,-1.3462,-1.2951,-1.2401,-1.2174,-1.2135,-1.2184,-1.2457,-1.2837,-1.2886,-1.2905,-1.2905,-1.2905,-1.2905,-1.2715,-1.1922,-1.0712,-0.9562,-0.8956,-0.9218,-0.9646,-0.9708,-1.0137,-1.0553,-1.0586,-1.0593,-1.0593,-1.0593,-1.0593,-1.0593,-1.0593,-1.0593,-1.0593,-1.0593,-1.0556,-1.0206,-0.9402,-0.9163,-0.8447,-0.6883,-0.6621,-0.6235,-0.5458,-0.5395,-0.5395,-0.5395,-0.5395,-0.5395,-0.5395,-0.5395,-0.5395,-0.5395,-0.5395,-0.499,-0.4151,-0.4788,-0.4217,-0.2511,-0.0807,0.0,-0.9734,-0.9809,-0.989,-0.989,0.0,0.0,0.0,-0.9334,0.0,0.0,0.0,0.0,0.0,0.0,0.0,0.0,0.0,0.0,0.0,0.0,0.0,0.0,0.0,0.0,0.0,0.0,-1.4049,-1.4184,-1.4691,-1.523,-1.5769,-1.5799,-1.5624,-1.524,-1.483,-1.4454,-1.4133,-1.3598,-1.334,-1.3352,-1.3363,-1.3684,-1.4261,-1.4815,-1.5349,-1.5861,-1.5671,-1.532,-1.4835,-1.4213,-1.398,-1.3956,-1.3839,-1.3227,-1.2355,-1.225,-1.2002,-1.176,-1.2086,-1.2262,-1.2389,-1.2773,-1.2905,-1.2905,-1.2905,-1.2905,-1.2618,-1.135,-1.0038,-0.8956,-0.8831,-0.9038,-0.9357,-0.9626,-0.9947,-1.0267,-1.0539,-1.0593,-1.0593,-1.0593,-1.0593,-1.0593,-1.0593,-1.0593,-1.0593,-1.0593,-1.0199,-0.9733,-0.9361,-0.8261,-0.733,-0.6769,-0.6075,-0.5591,-0.5428,-0.5395,-0.5395,-0.5395,-0.5395,-0.5395,-0.5395,-0.5395,-0.5395,-0.5395,-0.5395,-0.5296,-0.5123,-0.3846,-0.2644,-0.1541,-0.0505,0.0,-1.0533,-1.0593,-1.0847,-1.0847,0.0,0.0,0.0,0.0,-0.9398,0.0,0.0,0.0,0.0,0.0,0.0,0.0,0.0,0.0,0.0,0.0,0.0,0.0,0.0,0.0,0.0,0.0,-1.3436,-1.3767,-1.3964,-1.4424,-1.526,-1.4949,-1.4862,-1.509,-1.4517,-1.41,-1.3901,-1.3425,-1.3198,-1.3198,-1.3198,-1.3521,-1.4116,-1.4664,-1.5027,-1.5243,-1.5176,-1.4812,-1.419,-1.36,-1.3216,-1.299,-1.299,-1.2543,-1.1875,-1.1628,-1.1426,-1.132,-1.1738,-1.2041,-1.2281,-1.2744,-1.2905,-1.2905,-1.2905,-1.2412,-1.1642,-1.0593,-0.9588,-0.8804,-0.8804,-0.8998,-0.9251,-0.9397,-0.9793,-1.016,-1.0307,-1.0486,-1.0593,-1.0593,-1.0593,-1.0593,-1.0593,-1.0593,-1.0593,-1.0593,-0.9968,-0.9284,-0.8727,-0.7631,-0.6668,-0.6115,-0.5653,-0.5395,-0.5395,-0.5395,-0.5395,-0.5395,-0.5395,-0.5395,-0.5395,-0.5395,-0.5395,-0.5395,-0.5395,-0.516,-0.4686,-0.3347,-0.2444,-0.1976,-0.0639,0.0,0.0,0.0,0.0,0.0,0.0,-1.142,0.0,0.0,0.0,-1.0464,0.0,0.0,0.0,0.0,0.0,0.0,0.0,0.0,0.0,0.0,0.0,0.0,0.0,0.0,0.0,0.0,-1.2759,-1.3555,-1.3189,-1.3373,-1.4463,-1.3999,-1.4019,-1.4677,-1.4178,-1.3868,-1.3769,-1.3391,-1.3198,-1.3198,-1.3198,-1.3406,-1.382,-1.435,-1.4569,-1.4488,-1.4418,-1.4173,-1.3745,-1.3052,-1.2549,-1.2203,-1.2203,-1.1904,-1.1418,-1.1035,-1.0859,-1.0859,-1.1398,-1.1797,-1.2164,-1.2715,-1.2798,-1.2691,-1.27,-1.1717,-1.0491,-0.9961,-0.9309,-0.8804,-0.8804,-0.8951,-0.9144,-0.9198,-0.957,-0.995,-1.0057,-1.0307,-1.0519,-1.0579,-1.0593,-1.0593,-1.0593,-1.0593,-1.053,-1.0364,-0.962,-0.8748,-0.7864,-0.6981,-0.617,-0.5462,-0.5395,-0.5395,-0.5395,-0.5395,-0.5395,-0.5395,-0.5395,-0.5395,-0.5395,-0.5395,-0.5395,-0.5395,-0.5395,-0.4921,-0.3982,-0.3111,-0.2611,-0.2377,-0.0773,0.0,0.0,0.0,0.0,0.0,-1.3077,0.0,0.0,0.0,-1.1191,-1.0204,0.0,0.0,0.0,0.0,0.0,0.0,0.0,0.0,0.0,0.0,0.0,0.0,0.0,0.0,0.0,0.0,0.0,-1.2819,-1.2053,-1.2103,-1.3407,-1.3615,-1.3558,-1.3249,-1.3658,-1.3698,-1.3284,-1.3232,-1.3198,-1.3198,-1.3198,-1.3015,-1.2705,-1.325,-1.3455,-1.3384,-1.3303,-1.3472,-1.3724,-1.2699,-1.2252,-1.2203,-1.2203,-1.1697,-1.0977,-1.0928,-1.0674,-1.0488,-1.1301,-1.1636,-1.18,-1.2631,-1.2452,-1.1922,-1.1925,-1.0981,-0.9891,-0.9814,-0.9309,-0.8804,-0.8804,-0.8831,-0.8898,-0.9151,-0.9264,-0.9451,-0.997,-1.014,-1.0247,-1.0539,-1.0593,-1.0593,-1.0593,-1.0593,-1.0333,-0.9562,-0.871,-0.7832,-0.6948,-0.6075,-0.5524,-0.5395,-0.5395,-0.5395,-0.5395,-0.5395,-0.5395,-0.5395,-0.5395,-0.5395,-0.5395,-0.5395,-0.5395,-0.5395,-0.5395,-0.4921,-0.3982,-0.3111,-0.2277,-0.1441,-0.0471,0.0,0.0,0.0,0.0,0.0,0.0,0.0,-1.2149,0.0,-1.1181,0.0,0.0,0.0,0.0,0.0,0.0,0.0,0.0,0.0,0.0,0.0,0.0,0.0,0.0,0.0,0.0,0.0,0.0,0.0,0.0,-1.0923,-1.1907,-1.1967,-1.2285,-1.2977,-1.3013,-1.3077,-1.3198,-1.3198,-1.3198,-1.3198,-1.2925,-1.2685,-1.2502,-1.2763,-1.2693,-1.2365,-1.2892,-1.301,-1.2856,-1.2687,-1.2305,-1.1836,-1.1836,-1.1465,-1.0879,-1.0635,-1.043,-1.042,-1.1302,-1.1606,-1.1677,-1.212,-1.2055,-1.1641,-1.088,-1.0251,-0.971,-0.9342,-0.9008,-0.8804,-0.8804,-0.8804,-0.8838,-0.8931,-0.9224,-0.9566,-0.9813,-1.0134,-1.0445,-1.0566,-1.0593,-1.0593,-1.0593,-1.0593,-1.0301,-0.9434,-0.8549,-0.7697,-0.6817,-0.5943,-0.5395,-0.5395,-0.5395,-0.5395,-0.5395,-0.5395,-0.5395,-0.5395,-0.5395,-0.5395,-0.5395,-0.5395,-0.5395,-0.5395,-0.4855,-0.4384,-0.3982,-0.2577,-0.1675,-0.1273,-0.0404,0.0,-1.3932,0.0,0.0,0.0,0.0,0.0,0.0,0.0,0.0,0.0,0.0,0.0,0.0,0.0,0.0,0.0,0.0,0.0,0.0,0.0,0.0,0.0,0.0,0.0,0.0,0.0,0.0,0.0,0.0,0.0,-1.0579,-1.0535,-1.114,-1.257,-1.2491,-1.2663,-1.3185,-1.3198,-1.3146,-1.2995,-1.2668,-1.2354,-1.2084,-1.2132,-1.1901,-1.1521,-1.2335,-1.2489,-1.2233,-1.2578,-1.2279,-1.1596,-1.1447,-1.1134,-1.0703,-1.042,-1.0303,-1.04,-1.1089,-1.1344,-1.1389,-1.1478,-1.1391,-1.1065,-1.009,-0.9658,-0.9413,-0.8929,-0.8804,-0.8804,-0.8804,-0.8804,-0.8804,-0.8804,-0.9132,-0.9486,-0.9675,-1.005,-1.0399,-1.0559,-1.0593,-1.0593,-1.0593,-1.0396,-0.9945,-0.9069,-0.8188,-0.734,-0.6461,-0.5782,-0.5395,-0.5395,-0.5395,-0.5395,-0.5395,-0.5395,-0.5395,-0.5395,-0.5395,-0.5395,-0.5395,-0.5395,-0.5395,-0.5395,-0.4486,-0.3882,-0.3647,-0.2075,-0.1173,-0.094,-0.0303,0.0,0.0,0.0,0.0,-1.316,0.0,0.0,0.0,0.0,-1.2741,0.0,0.0,0.0,0.0,0.0,0.0,0.0,0.0,0.0,0.0,0.0,0.0,0.0,0.0,0.0,0.0,0.0,0.0,0.0,0.0,0.0,-0.9595,-0.9828,-1.0459,-1.1605,-1.2143,-1.2663,-1.3185,-1.3198,-1.2978,-1.2526,-1.2508,-1.1982,-1.1057,-1.1048,-1.102,-1.0958,-1.1451,-1.1848,-1.2203,-1.2223,-1.1982,-1.1535,-1.1094,-1.0674,-1.0322,-1.0303,-1.0303,-1.0322,-1.0554,-1.0724,-1.0839,-1.083,-1.0389,-0.9865,-0.9814,-0.9335,-0.8831,-0.8811,-0.8804,-0.8804,-0.8804,-0.8804,-0.8804,-0.8804,-0.8824,-0.8991,-0.9559,-0.9729,-0.9909,-1.0486,-1.0593,-1.0593,-1.0593,-0.9888,-0.9043,-0.8156,-0.7307,-0.6429,-0.5557,-0.5425,-0.5395,-0.5395,-0.5395,-0.5395,-0.5395,-0.5395,-0.5395,-0.5395,-0.5395,-0.5395,-0.5395,-0.5395,-0.5395,-0.5395,-0.4486,-0.358,-0.2744,-0.1775,-0.0873,-0.0034,0.0,0.0,0.0,0.0,-1.5259,-1.4346,0.0,0.0,0.0,0.0,0.0,0.0,0.0,0.0,0.0,0.0,0.0,0.0,0.0,0.0,0.0,0.0,0.0,0.0,0.0,0.0,0.0,0.0,0.0,0.0,0.0,0.0,0.0,-0.9666,-1.0244,-1.0983,-1.1575,-1.2128,-1.2663,-1.2707,-1.265,-1.249,-1.1836,-1.1327,-1.1,-1.0687,-1.0527,-1.0537,-1.1271,-1.1685,-1.1848,-1.2422,-1.225,-1.1587,-1.1418,-1.0713,-0.9775,-0.9775,-0.9775,-0.9796,-0.9956,-1.0354,-1.0745,-1.0287,-0.9987,-0.971,-0.9283,-0.8982,-0.8804,-0.8804,-0.8804,-0.8804,-0.8804,-0.8804,-0.8804,-0.8804,-0.9105,-0.9446,-0.9668,-1.0017,-1.0352,-1.0553,-1.0593,-1.0434,-0.9849,-0.9005,-0.8355,-0.8059,-0.7274,-0.6396,-0.5524,-0.5395,-0.5395,-0.5395,-0.5395,-0.5395,-0.5395,-0.5395,-0.5395,-0.5395,-0.5395,-0.5395,-0.5395,-0.5395,-0.5123,-0.4486,-0.358,-0.2678,-0.1775,-0.0873,-0.0303,0.0,0.0,0.0,-1.3972,-1.4751,0.0,-1.4603,-1.4455,0.0,-1.292,0.0,0.0,0.0,0.0,0.0,0.0,0.0,0.0,0.0,0.0,0.0,0.0,0.0,0.0,0.0,0.0,0.0,0.0,0.0,-0.9223,-0.9037,-0.8901,0.0,0.0,0.0,-0.9956,-1.0682,-1.1286,-1.1774,-1.2148,-1.2385,-1.2318,-1.1963,-1.1308,-1.0905,-1.0745,-1.0448,-1.0303,-1.0352,-1.1234,-1.1606,-1.1675,-1.2533,-1.2387,-1.1606,-1.1606,-1.0732,-0.9498,-0.9498,-0.9386,-0.9227,-0.9313,-0.9666,-1.0012,-0.9588,-0.9439,-0.9361,-0.8929,-0.8804,-0.8804,-0.8804,-0.8804,-0.8804,-0.8804,-0.8804,-0.8831,-0.8911,-0.9252,-0.9586,-0.9793,-1.0134,-1.0466,-1.0573,-1.0333,-0.9951,-0.9402,-0.8323,-0.7535,-0.7535,-0.6789,-0.6042,-0.5458,-0.5395,-0.5395,-0.5395,-0.5395,-0.5395,-0.5395,-0.5395,-0.5395,-0.5395,-0.5395,-0.5395,-0.5395,-0.5395,-0.4957,-0.4015,-0.3145,-0.2242,-0.1307,-0.0437,0.0,0.0,0.0,0.0]},{"header":{"parameterUnit":"m.s-1","parameterCategory":1,"la1":30.6,"la2":29.2853,"lo1":-89.7004,"lo2":-87.6739,"dy":0.0162,"dx":0.0183,"nx":112,"ny":82,"refTime":"2026-03-09T12:00:00:Z","depth":0,"parameterNumber":3,"parameterNumberName":"V-component_of_WINDS"},"data":[0.0,0.0,0.0,0.0,0.0,0.0,0.0,0.0,0.0,0.0,0.0,0.0,0.0,0.0,0.0,0.0,0.0,0.0,0.0,0.0,0.0,0.0,0.0,0.0,0.0,0.0,0.0,0.0,0.0,0.0,0.0,0.0,0.0,0.0,0.0,0.0,0.0,0.0,0.0,0.0,0.0,0.0,0.0,0.0,0.0,0.0,0.0,0.0,0.0,0.0,0.0,0.0,0.0,0.0,0.0,0.0,0.0,0.0,0.0,0.0,0.0,0.0,0.0,0.0,0.0,0.0,0.0,0.0,0.0,0.0,0.0,0.0,0.0,0.0,0.0,0.0,0.0,0.0,0.0,0.0,0.0,0.0,0.0,0.0,0.0,0.0,0.0,0.0,0.0,0.0,0.0,1.0162,1.0904,1.1583,1.2087,1.1383,1.0567,0.9749,0.0,0.0,0.0,0.0,0.0,0.0,0.0,0.0,0.0,0.0,0.0,0.0,0.0,0.0,0.0,0.0,0.0,0.0,0.0,0.0,0.0,0.0,0.0,0.0,0.0,0.0,0.0,0.0,0.0,0.0,0.0,0.0,0.0,0.0,0.0,0.0,0.0,0.0,0.0,0.0,0.0,0.0,0.0,0.0,0.0,0.0,0.0,0.0,0.0,0.0,0.0,0.0,0.0,0.0,0.0,0.0,0.0,0.0,0.0,0.0,0.0,0.0,0.0,0.0,0.0,0.0,0.0,0.0,0.0,0.0,0.0,0.0,0.0,0.0,0.0,0.0,0.0,0.0,0.0,0.0,0.0,0.0,0.0,0.0,0.0,0.0,0.0,0.0,0.0,0.0,0.0,0.0,0.0,0.0,0.0,0.0,0.0,0.0,0.0,0.0,0.0,0.0,0.0,0.0,1.0401,1.1849,1.2674,1.2885,1.2311,1.2031,1.1255,0.979,0.0,0.0,0.0,0.0,0.0,0.0,0.0,0.0,0.0,0.0,0.0,0.0,0.0,0.0,0.0,0.0,0.0,0.0,0.0,0.0,0.0,0.0,0.0,0.0,0.0,0.0,0.0,0.0,0.0,0.0,0.0,0.0,0.0,0.0,0.0,0.0,0.0,0.0,0.0,0.0,0.0,0.0,0.0,0.0,0.0,0.0,0.0,0.0,0.0,0.0,0.0,0.0,0.0,0.0,0.0,0.0,0.0,0.0,0.0,0.0,0.0,0.0,0.0,0.0,0.0,0.0,0.0,0.0,0.0,0.0,0.0,0.0,0.0,0.0,0.0,0.0,0.0,0.0,0.0,0.0,0.0,0.0,0.0,0.0,0.0,0.0,0.0,0.0,0.0,0.0,0.0,0.0,0.0,0.0,0.0,0.0,0.0,0.0,0.0,0.0,0.0,0.0,0.0,1.0093,1.1114,1.2273,1.3161,1.3465,1.2985,1.2524,1.1725,1.0433,0.9923,0.0,0.0,0.0,0.0,0.0,0.0,0.0,0.0,0.0,0.0,0.0,0.0,0.0,0.0,0.0,0.0,0.0,0.0,0.0,0.0,0.0,0.0,0.0,0.0,0.0,0.0,0.0,0.0,0.0,0.0,0.0,0.0,0.0,0.0,0.0,0.0,0.0,0.0,0.0,0.0,0.0,0.0,0.0,0.0,0.0,0.0,0.0,0.0,0.0,0.0,0.0,0.0,0.0,0.0,0.0,0.0,0.0,0.0,0.0,0.0,0.0,0.0,0.0,0.0,0.0,0.0,0.0,0.0,0.0,0.0,0.0,0.0,0.0,0.0,0.0,0.0,0.0,0.0,0.0,0.0,0.0,0.0,0.0,0.0,0.0,0.0,0.0,0.0,0.0,0.0,0.0,0.0,0.0,0.0,0.0,0.0,0.0,0.0,0.0,0.0,0.0,0.0,1.097,1.1868,1.2405,1.3443,1.3961,1.361,1.2844,1.1974,1.1017,1.0264,0.0,0.0,0.0,0.0,0.0,0.0,0.0,0.0,0.0,0.0,0.0,0.0,0.0,0.0,0.0,0.0,0.0,0.0,0.0,0.0,0.0,0.0,0.0,0.0,0.0,0.0,0.0,0.0,0.0,0.0,0.0,0.0,0.0,0.0,0.0,0.0,0.0,0.0,0.0,0.0,0.0,0.0,0.0,0.0,0.0,0.0,0.0,0.0,0.0,0.0,0.0,0.0,0.0,0.0,0.0,0.0,0.0,0.0,0.0,0.0,0.0,0.0,0.0,0.0,0.0,0.0,0.0,0.0,0.0,0.0,0.0,0.0,0.0,0.0,0.0,0.0,0.0,0.0,0.0,0.0,0.0,0.0,0.0,0.0,0.0,0.0,0.0,0.0,0.0,0.0,0.0,0.0,0.0,0.0,0.0,0.0,0.0,0.0,0.0,0.0,0.0,0.0,1.1647,1.2699,1.2678,1.4074,1.4676,1.3844,1.2935,1.2011,1.1147,1.0387,0.0,0.0,0.0,0.0,0.0,0.0,0.0,0.0,0.0,0.0,0.0,0.0,0.0,0.0,0.0,0.0,0.0,0.0,0.0,0.0,0.0,0.0,0.0,0.0,0.0,0.0,0.0,0.0,0.0,0.0,0.0,0.0,0.0,0.0,0.0,0.0,0.0,0.0,0.0,0.0,0.0,0.0,0.0,0.0,0.0,0.0,0.0,0.0,0.0,0.0,0.0,0.0,0.0,0.0,0.0,0.0,0.0,0.0,0.0,0.0,0.0,0.0,0.0,0.0,0.0,0.0,0.0,0.0,0.0,0.0,0.0,0.0,0.0,0.0,0.0,0.0,0.0,0.0,0.0,0.0,0.0,0.0,0.0,0.0,0.0,0.0,0.0,0.0,0.0,0.0,0.0,0.0,0.0,0.0,0.0,0.0,0.0,0.0,0.0,0.0,0.0,0.0,1.2058,1.2975,0.0,1.4545,1.4835,1.3885,1.3042,1.2167,1.1166,0.0,0.0,0.0,0.0,0.0,0.0,0.0,0.0,0.0,0.0,0.0,0.0,0.0,0.0,0.0,0.0,0.0,0.0,0.0,0.0,0.0,0.0,0.0,0.0,0.0,0.0,0.0,0.0,0.0,0.0,0.0,0.0,0.0,0.0,0.0,0.0,0.0,0.0,0.0,0.0,0.0,0.0,0.0,0.0,0.0,0.0,0.0,0.0,0.0,0.0,0.0,0.0,0.0,0.0,0.0,0.0,0.0,0.0,0.0,0.0,0.0,0.0,0.0,0.0,0.0,0.0,0.0,0.0,0.0,0.0,0.0,0.0,0.0,0.0,0.0,0.0,0.0,0.0,0.0,0.0,0.0,0.0,0.0,0.0,0.0,0.0,0.0,0.0,0.0,0.0,0.0,0.0,0.0,0.0,0.0,0.0,0.0,0.0,0.0,0.0,0.0,0.0,1.1387,1.2262,1.2995,0.0,1.4371,1.439,1.3167,1.2344,1.1578,1.0796,0.0,0.0,0.0,0.0,0.0,0.0,0.0,0.0,0.0,0.0,0.0,0.0,0.0,0.0,0.0,0.0,0.0,0.0,0.0,0.0,0.0,0.0,0.0,0.0,0.0,0.0,0.0,0.0,0.0,0.0,0.0,0.0,0.0,0.0,0.0,0.0,0.0,0.0,0.0,0.0,0.0,0.0,0.0,0.0,0.0,0.0,0.0,0.0,0.0,0.0,0.0,0.0,0.0,0.0,0.0,0.0,0.0,0.0,0.0,0.0,0.0,0.0,0.0,0.0,0.0,0.0,0.0,0.0,0.0,0.0,0.0,0.0,0.0,0.0,0.0,0.0,0.0,0.0,0.0,0.0,0.0,0.0,0.0,0.0,0.0,0.0,0.0,0.0,0.0,0.0,0.0,0.0,0.0,0.0,0.0,0.0,0.0,0.0,0.0,0.0,0.0,0.0,1.1398,1.2235,1.2743,1.2715,1.3477,1.3316,1.1636,1.0704,1.0145,0.0,0.0,0.0,0.0,0.0,0.0,0.0,0.0,0.0,0.0,0.0,0.0,0.0,0.0,0.0,0.0,0.0,0.0,0.0,0.0,0.0,0.0,0.0,0.0,0.0,0.0,0.0,0.0,0.0,0.0,0.0,0.0,0.0,0.0,0.0,0.0,0.0,0.0,0.0,0.0,0.0,0.0,0.0,0.0,0.0,0.0,0.0,0.0,0.0,0.0,0.0,0.0,0.0,0.0,0.0,0.0,0.0,0.0,0.0,0.0,0.0,0.0,0.0,0.0,0.0,0.0,0.0,0.0,0.0,0.0,0.0,0.0,0.0,0.0,0.0,0.0,0.0,0.0,0.0,0.0,0.0,0.0,0.0,0.0,0.0,0.0,0.0,0.0,0.0,0.0,0.0,0.0,0.0,0.0,0.0,0.0,0.0,0.0,0.0,0.0,0.0,0.0,0.0,1.131,1.1182,1.1425,1.264,1.3007,1.2459,1.0736,1.0355,0.9931,0.9275,0.0,0.0,0.0,0.0,0.0,0.0,0.0,0.0,0.0,0.0,0.0,0.0,0.0,0.0,0.0,0.0,0.0,0.0,0.0,0.0,0.0,0.0,0.0,0.0,0.0,0.0,0.0,0.0,0.0,0.0,0.0,0.0,0.0,0.0,0.0,0.0,0.0,0.0,0.0,0.0,0.0,0.0,0.0,0.0,0.0,0.0,0.0,0.0,0.0,0.0,0.0,0.0,0.0,0.0,0.0,0.0,0.0,0.0,0.0,0.0,0.0,0.0,0.0,0.0,0.0,0.0,0.0,0.0,0.0,0.0,0.0,0.0,0.0,0.0,0.0,0.0,0.0,0.0,0.0,0.0,0.0,0.0,0.0,0.0,0.0,0.0,0.0,0.0,0.0,0.0,0.0,0.0,0.0,0.0,0.0,0.0,0.0,0.0,0.0,0.0,0.0,0.0,1.1194,1.0717,1.0715,1.2092,1.224,1.1553,0.9817,0.9392,0.9123,0.8909,0.0,0.0,0.0,0.0,0.0,0.0,0.0,0.0,0.0,0.0,0.0,0.0,0.0,0.0,0.0,0.0,0.0,0.0,0.0,0.0,0.0,0.0,0.0,0.0,0.0,0.0,0.0,0.0,0.0,0.0,0.0,0.0,0.0,0.0,0.0,0.0,0.0,0.0,0.0,0.0,0.0,0.0,0.0,0.0,0.0,0.0,0.0,0.0,0.0,0.0,0.0,0.0,0.0,0.0,0.0,0.0,0.0,0.0,0.0,0.0,0.0,0.0,0.0,0.0,0.0,0.0,0.0,0.0,0.0,0.0,0.0,0.0,0.0,0.0,0.0,0.0,0.0,0.0,0.0,0.0,0.0,0.0,0.0,0.0,0.0,0.0,0.0,0.0,0.0,0.0,0.0,0.0,0.0,0.0,0.0,0.0,0.0,0.0,0.0,0.0,0.0,0.0,1.0949,1.046,1.0299,1.1176,1.1276,1.0631,0.903,0.8168,0.8006,0.875,0.0,0.0,0.0,0.0,0.0,0.0,0.0,0.0,0.0,0.0,0.0,0.0,0.0,0.0,0.0,0.0,0.0,0.0,0.0,0.0,0.0,0.0,0.0,0.0,0.0,0.0,0.0,0.0,0.0,0.0,0.0,0.0,0.0,0.0,0.0,0.0,0.0,0.0,0.0,0.0,0.0,0.0,0.0,0.0,0.0,0.0,0.0,0.0,0.0,0.0,0.0,0.0,0.0,0.0,0.0,0.0,0.0,0.0,0.0,0.0,0.8496,0.0,0.0,0.0,0.0,0.0,0.0,0.0,0.0,0.0,0.0,0.0,0.0,0.0,0.0,0.0,0.0,0.0,0.0,0.0,0.0,0.0,0.0,0.0,0.0,0.0,0.0,0.0,0.0,0.0,0.0,0.0,0.0,0.0,0.0,0.0,0.0,0.0,0.0,0.0,0.0,0.0,1.0049,0.9041,0.8733,1.0227,1.0417,1.0031,0.898,0.8161,0.7776,0.7942,0.0,0.0,0.0,0.0,0.0,0.0,0.0,0.0,0.0,0.0,0.0,0.0,0.0,0.0,0.0,0.0,0.0,0.0,0.0,0.0,0.0,0.0,0.0,0.0,0.0,0.0,0.0,0.0,0.0,0.0,0.0,0.0,0.0,0.0,0.0,0.0,0.0,0.0,0.0,0.0,0.0,0.0,0.0,0.0,0.0,0.0,0.0,0.0,0.0,0.0,0.0,0.0,0.0,0.0,0.0,0.0,0.0,0.0,0.0,0.0,0.0,0.8841,0.0,0.0,0.0,0.0,0.0,0.0,0.0,0.0,0.0,0.0,0.0,0.0,0.0,0.0,0.0,0.0,0.0,0.0,0.0,0.0,0.0,0.0,0.0,0.0,0.0,0.0,0.0,0.0,0.0,0.0,0.0,0.0,0.0,0.0,0.0,0.0,0.0,0.0,0.0,0.0,0.9726,0.8841,0.8587,0.9901,1.0088,0.9936,0.9504,0.8746,0.827,0.8286,0.7486,0.0,0.0,0.0,0.0,0.0,0.0,0.0,0.0,0.0,0.0,0.0,0.0,0.0,0.0,0.0,0.0,0.0,0.0,0.0,0.0,0.0,0.0,0.0,0.0,0.0,0.0,0.0,0.0,0.0,0.0,0.0,0.0,0.0,0.0,0.0,0.0,0.0,0.0,0.0,0.0,0.0,0.0,0.0,0.0,0.0,0.0,0.0,0.0,0.0,0.0,0.0,0.0,0.0,0.0,0.9364,0.9911,1.0084,1.0148,1.012,0.9564,0.9547,0.9836,0.0,0.0,0.0,0.0,0.0,0.0,0.0,0.0,0.0,0.0,0.0,0.0,0.0,0.0,0.0,0.0,0.0,0.0,0.0,0.0,0.0,0.0,0.0,0.0,0.0,0.8875,0.8159,0.0,0.0,0.0,0.0,0.0,0.0,0.0,0.0,0.0,0.0,0.0,0.0,0.9666,0.9101,0.895,0.9893,0.9987,1.0015,1.0078,0.9364,0.8891,0.8892,0.813,0.7373,0.0,0.0,0.0,0.0,0.0,0.0,0.0,0.0,0.0,0.0,0.0,0.0,0.0,0.0,0.0,0.0,0.0,0.0,0.0,0.0,0.0,0.0,0.0,0.0,0.0,0.0,0.0,0.0,0.0,0.0,0.0,0.0,0.4416,0.48,0.0,0.0,0.0,0.0,0.0,0.0,0.0,0.0,0.0,0.0,0.0,0.0,0.0,0.0,0.7169,0.8111,0.8656,0.8777,0.9451,0.9812,0.9912,1.0217,1.0349,1.0357,1.0272,0.0,0.9406,0.8366,0.0,0.0,0.0,0.0,0.0,0.0,0.0,0.0,0.0,0.0,0.0,0.0,0.0,0.0,0.0,0.0,0.0,0.0,0.0,0.0,0.0,0.0,0.8069,0.7448,0.7223,0.7095,0.0,0.8437,0.9494,0.8685,0.0,0.0,0.0,0.0,0.0,0.0,0.0,0.0,0.9656,0.9101,0.8945,0.9813,0.9957,0.9999,1.0006,0.9322,0.8901,0.8891,0.8088,0.7594,0.753,0.6911,0.0,0.0,0.0,0.0,0.0,0.0,0.0,0.0,0.0,0.0,0.0,0.0,0.0,0.0,0.0,0.0,0.0,0.0,0.0,0.0,0.0,0.0,0.0,0.0,0.0,0.0,0.0,0.0,0.0,0.3975,0.4372,0.4738,0.4399,0.4102,0.0,0.0,0.0,0.0,0.0,0.0,0.0,0.0,0.0,0.585,0.6885,0.7498,0.7633,0.8333,0.8933,0.9428,1.0042,1.0545,1.0927,1.1384,1.1423,1.1125,1.1125,1.0579,0.9653,0.9253,0.9331,0.9628,0.0,0.0,0.0,0.0,0.0,0.9515,1.0267,0.0,0.0,0.0,0.0,0.0,0.0,0.0,0.0,0.0,0.0,0.0,0.0,0.0,0.0,0.9145,0.9273,0.9397,0.91,0.9962,1.0309,0.0,0.9171,0.967,0.8857,0.0,0.0,0.0,0.0,0.0,0.9556,0.9331,0.9299,0.98,0.9866,0.9927,0.9989,0.971,0.9339,0.8921,0.8534,0.8131,0.7673,0.7308,0.7284,0.0,0.0,0.0,0.0,0.0,0.0,0.0,0.0,0.0,0.0,0.0,0.0,0.0,0.0,0.0,0.0,0.0,0.0,0.0,0.0,0.0,0.0,0.0,0.0,0.0,0.0,0.0,0.0,0.4064,0.4346,0.4664,0.4352,0.3999,0.0,0.0,0.0,0.0,0.0,0.0,0.5118,0.557,0.595,0.6225,0.7337,0.7956,0.8001,0.8656,0.936,1.0136,1.062,1.1175,1.1791,1.2279,1.228,1.1897,1.1897,1.139,1.0531,1.0181,1.0238,1.0443,0.9595,0.9246,0.0,1.0158,1.025,1.0066,1.0918,1.0979,1.0565,0.9875,0.0,0.9258,0.8764,0.0,0.0,0.0,0.0,1.0094,1.0679,0.0,1.0648,1.0623,1.0934,1.1104,1.0705,1.1142,1.0993,0.0,0.9581,1.018,0.9214,0.0,0.0,0.0,0.0,0.9753,0.9975,1.0059,1.0149,1.0296,1.0365,1.0365,1.0266,1.0274,0.9968,0.9224,0.9177,0.8813,0.7962,0.7773,0.7646,0.7598,0.0,0.0,0.0,0.0,0.0,0.0,0.0,0.0,0.0,0.0,0.0,0.0,0.0,0.0,0.0,0.0,0.0,0.0,0.0,0.0,0.0,0.0,0.0,0.0,0.0,0.0,0.0,0.0,0.0,0.4693,0.5001,0.0,0.0,0.0,0.0,0.4958,0.4797,0.5176,0.6263,0.6232,0.6478,0.7112,0.8055,0.8566,0.856,0.954,1.028,1.0753,1.1103,1.1515,1.2003,1.2344,1.2484,1.2457,1.2457,1.243,1.2239,1.0586,0.9448,0.8727,0.8669,0.8526,0.8532,0.9897,1.0389,1.0475,1.1231,1.1455,1.1312,1.0597,1.0211,1.0042,1.0004,0.9936,0.0,0.0,1.0413,0.9911,1.1143,1.0718,1.0026,1.0341,1.0439,1.0447,1.0423,1.1189,1.1445,0.0,1.0538,1.0753,0.9185,0.0,1.0794,1.0232,1.0733,1.1233,1.1375,1.1569,1.1697,1.1708,1.193,1.1762,1.1012,1.101,1.0734,0.9994,0.9944,0.962,0.8868,0.8043,0.7602,0.7598,0.7067,0.0,0.0,0.0,0.0,0.0,0.0,0.0,0.0,0.0,0.0,0.0,0.0,0.0,0.0,0.0,0.0,0.0,0.0,0.0,0.0,0.0,0.0,0.0,0.0,0.0,0.0,0.0,0.0,0.5461,0.5443,0.0,0.0,0.5689,0.5925,0.5664,0.5898,0.6291,0.6816,0.7052,0.7511,0.8277,0.8916,0.9354,0.9563,0.9931,1.0177,1.0364,1.0821,1.1134,1.1321,1.1819,1.1832,1.1496,1.1838,1.1749,1.1375,1.1108,1.1031,1.1103,1.1103,1.1065,1.1054,1.1562,1.1533,1.1272,1.1545,1.14,1.1005,1.0295,0.9739,0.9418,0.9838,0.995,1.0062,1.0804,1.0731,1.0541,1.0995,1.096,1.0828,1.094,1.1236,1.1464,1.1321,1.1845,1.2146,1.148,1.1523,1.139,1.0463,1.0641,1.088,1.0788,1.1008,1.1216,1.1354,1.1547,1.1693,1.1788,1.1995,1.2041,1.1791,1.1364,1.1002,1.0798,1.0323,0.9948,0.9688,0.8339,0.7599,0.7594,0.6346,0.5929,0.0,0.0,0.0,0.0,0.0,0.0,0.0,0.0,0.0,0.0,0.0,0.0,0.0,0.0,0.0,0.0,0.0,0.0,0.0,0.0,0.0,0.0,0.0,0.0,0.0,0.0,0.4961,0.558,0.5726,0.5711,0.5549,0.6164,0.6436,0.6132,0.6511,0.6971,0.7451,0.7725,0.8193,0.8908,0.9362,0.9716,0.9932,1.009,1.0261,1.0405,1.0753,1.104,1.1228,1.1617,1.1577,1.1235,1.1751,1.1733,1.1417,1.1937,1.2381,1.2699,1.2331,1.2199,1.2214,1.23,1.21,1.1831,1.1925,1.1731,1.1371,1.0921,1.0477,1.0208,1.0639,1.0772,1.0868,1.1304,1.1364,1.1301,1.1415,1.1488,1.1558,1.1686,1.1832,1.1956,1.194,1.2125,1.2275,1.221,1.2167,1.1966,1.1462,1.147,1.1628,1.1844,1.1881,1.2003,1.2348,1.2379,1.2404,1.2502,1.2757,1.2817,1.259,1.212,1.1652,1.1182,1.0717,1.0335,1.0111,0.8766,0.8037,0.8038,0.6942,0.6813,0.7677,0.0,0.0,0.0,0.0,0.0,0.0,0.0,0.0,0.0,0.0,0.0,0.0,0.0,0.0,0.0,0.0,0.0,0.0,0.0,0.0,0.0,0.0,0.0,0.3741,0.4383,0.4901,0.505,0.5936,0.626,0.5528,0.6341,0.6764,0.6383,0.6602,0.7189,0.8193,0.8245,0.8481,0.9026,0.9425,0.9622,0.9631,1.0088,1.0545,1.1023,1.1002,1.1266,1.1778,1.1767,1.1756,1.1774,1.2246,1.2473,1.2508,1.2978,1.3181,1.3098,1.2065,1.1653,1.1671,1.1945,1.2023,1.2054,1.2371,1.247,1.247,1.247,1.247,1.247,1.247,1.247,1.247,1.247,1.2243,1.2057,1.2399,1.223,1.2071,1.24,1.2102,1.1796,1.2141,1.1957,1.1829,1.2179,1.2439,1.2479,1.199,1.2518,1.3085,1.3346,1.3388,0.0,1.4368,1.4126,1.3899,1.3934,1.4293,1.4213,1.3435,1.3335,1.2683,1.1234,1.1082,1.0761,1.0127,0.9323,0.8879,0.8872,0.8889,0.9315,1.0156,0.0,0.0,0.0,0.0,0.0,0.0,0.0,0.0,0.0,0.0,0.0,0.0,0.0,0.0,0.0,0.0,0.0,0.0,0.0,0.0,0.0,0.0,0.4307,0.4604,0.5436,0.6149,0.6484,0.6945,0.7147,0.695,0.7131,0.7382,0.7661,0.7748,0.821,0.9155,0.922,0.9436,0.9922,1.0039,1.0244,1.0537,1.0674,1.0971,1.1423,1.1084,1.1005,1.1135,1.0859,1.0717,1.0736,1.1207,1.1634,1.2029,1.2508,1.289,1.3173,1.2889,1.2764,1.2764,1.2851,1.2618,1.2243,1.1957,1.1846,1.1846,1.1846,1.1846,1.1846,1.1846,1.1846,1.1846,1.1846,1.1787,1.1727,1.1831,1.1787,1.1774,1.2071,1.2024,1.2003,1.2348,1.2344,1.2401,1.2841,1.2976,1.2892,1.2483,1.2583,1.2797,1.3076,0.0,0.0,1.3676,1.3686,1.3903,1.4495,1.491,1.505,1.4775,1.3901,1.2961,0.0,1.0882,1.0225,1.0037,0.9304,0.8623,0.8039,0.8651,0.9095,0.0,0.0,0.0,0.0,0.0,0.0,0.0,0.0,0.0,0.0,0.0,0.0,0.0,0.0,0.0,0.0,0.0,0.0,0.0,0.0,0.0,0.0,0.409,0.4627,0.506,0.5723,0.638,0.694,0.714,0.7289,0.7518,0.7406,0.746,0.7845,0.7762,0.8046,0.8849,0.8877,0.9225,0.9932,0.9961,1.026,1.0878,1.0732,1.0859,1.1301,1.085,1.0645,1.0635,1.042,1.0303,0.0,1.0802,1.1188,1.1505,1.1993,1.2372,0.0,0.0,0.0,0.0,0.0,1.2998,1.2689,1.2391,1.2262,1.2262,1.2262,1.2262,1.2262,1.2262,1.2262,1.2262,1.2262,1.2262,1.2262,1.2262,1.2262,1.2298,1.2478,1.2332,1.2303,1.2807,1.2731,1.2761,1.334,0.0,0.0,1.3146,1.3203,1.3367,1.3676,1.3684,1.3651,0.0,1.3632,1.3782,1.4258,1.4578,1.4787,1.4846,1.4162,0.0,0.0,0.0,1.0633,1.003,0.9605,0.0,0.0,0.0,0.0,0.0,0.0,0.0,0.0,0.8055,0.7663,0.0,0.0,0.0,0.0,0.0,0.0,0.0,0.0,0.0,0.0,0.0,0.0,0.0,0.0,0.0,0.0,0.4445,0.4857,0.5392,0.5655,0.6095,0.6884,0.6906,0.7049,0.7588,0.7353,0.7251,0.7438,0.7236,0.7377,0.8006,0.0,0.0,0.0,0.0,1.0011,1.0888,1.0557,1.0566,1.0977,1.0557,1.0371,1.0371,1.0322,1.0303,1.0322,1.0745,1.0962,1.1038,1.1505,1.1756,1.1884,1.2773,1.3146,1.3198,1.3198,1.3198,0.0,0.0,0.0,0.0,1.3303,1.3353,1.3373,1.3328,1.3303,1.3303,1.3223,1.3198,1.3198,1.3198,1.3198,1.3198,1.3198,1.2852,1.2669,1.3322,1.314,1.3039,1.3745,1.3916,1.3955,1.4021,1.4123,1.4299,1.4601,1.4304,0.0,1.4094,1.3836,1.3659,1.3708,0.0,0.0,1.426,1.4223,1.3956,1.338,1.2641,1.1637,1.0346,1.034,1.0791,1.1623,1.2409,1.2804,1.2808,1.3588,1.3155,1.162,1.0635,0.9784,0.0,0.0,0.0,0.0,0.0,0.0,0.0,0.0,0.0,0.0,0.0,0.0,0.0,0.0,0.0,0.4918,0.5116,0.5485,0.6383,0.6456,0.6689,0.7388,0.7267,0.7334,0.7881,0.7377,0.7245,0.7773,0.775,0.8067,0.884,0.9079,0.0,0.9813,1.0032,1.0379,1.0908,1.083,1.1006,1.1447,0.0,0.0,1.0781,1.0459,1.0303,1.0303,1.039,1.0649,1.1008,1.1113,1.1412,1.1866,1.2419,1.2873,1.3198,1.3198,1.3198,1.3198,1.3198,1.3521,1.3934,1.3934,1.4223,1.4494,1.406,1.3934,0.0,1.3341,1.3198,1.3198,1.3198,1.3198,1.3198,1.3198,1.3123,1.3086,1.3226,1.3471,1.3812,1.4279,1.4641,1.4965,1.5353,1.4745,1.4232,1.4291,1.4388,1.4374,1.4061,1.3955,1.4031,1.4303,1.4545,1.4692,1.4695,1.4389,1.3877,1.3116,1.2636,1.2258,1.2027,1.2137,1.2303,1.2533,1.2706,1.2823,1.2871,1.3004,1.2884,1.253,1.1622,1.1138,0.0,0.0,0.0,0.0,0.0,0.0,0.0,0.0,0.0,0.0,0.0,0.3638,0.3898,0.0,0.4798,0.5226,0.5548,0.5977,0.66,0.6648,0.6799,0.7336,0.7224,0.732,0.7896,0.7368,0.7259,0.7857,0.7614,0.7763,0.8456,0.863,0.9003,0.9685,0.9827,1.022,1.0878,1.0703,1.0811,1.1252,1.0801,1.0596,1.0586,1.04,1.0303,1.0303,1.0303,1.0428,1.0649,1.0649,1.0943,1.1431,1.1653,1.2066,1.2526,1.2756,1.2855,1.289,1.3129,1.3403,1.3702,1.3997,1.4085,1.4048,1.4085,1.3896,1.3584,1.3273,1.3198,1.3198,1.3198,1.3198,1.3198,1.3198,1.3198,1.3267,1.3497,1.3719,1.4019,1.4422,1.4814,1.5165,1.5404,1.52,1.4886,1.4552,1.473,1.4711,1.4161,1.4357,1.4611,1.4778,1.5077,1.5123,1.4839,1.4428,1.3852,1.3058,1.2937,1.2756,1.2466,1.2541,1.2646,1.2748,1.3177,1.3438,1.3491,1.3906,1.41,1.408,1.3652,1.2986,0.0,0.0,0.0,0.0,0.0,0.0,0.0,0.0,0.3115,0.3979,0.4154,0.4241,0.4522,0.5018,0.542,0.5534,0.5967,0.6377,0.6633,0.6673,0.6806,0.713,0.7059,0.7238,0.7829,0.7363,0.7259,0.7857,0.7447,0.7447,0.8107,0.8191,0.8627,0.9546,0.9623,1.0013,1.0781,1.0449,1.0449,1.0781,1.0439,1.0303,1.0303,1.0303,1.0303,1.0303,1.0303,1.0303,1.0303,1.0303,1.0525,1.0867,1.0867,1.1132,1.1571,1.2156,1.2419,1.2561,1.2925,1.3191,1.3441,1.3946,1.384,1.3604,1.3984,1.3765,1.3353,1.3223,1.3198,1.3198,1.3198,1.3198,1.3198,1.3198,1.3198,1.3301,1.3682,1.3901,1.41,1.4438,1.4891,1.524,1.524,1.5551,1.5619,1.508,1.523,1.5191,1.4571,1.4963,1.5276,1.5207,1.5439,1.5445,1.5046,1.4763,1.4347,1.3713,1.3818,1.3719,1.3332,1.3254,1.3375,1.3648,1.4208,1.4606,1.4845,1.5387,1.5742,1.5918,1.5913,1.5063,0.4721,0.4362,0.3996,0.3951,0.3673,0.3627,0.0,0.0,0.4011,0.4588,0.4708,0.4815,0.5139,0.5444,0.5832,0.6378,0.6519,0.664,0.6913,0.6953,0.6974,0.7009,0.7001,0.7238,0.7829,0.7363,0.7259,0.7857,0.7829,0.8137,0.8923,0.9199,0.9499,0.9837,1.0091,1.0264,1.0371,1.0322,1.0322,1.0371,1.0322,1.0303,1.0303,1.0303,1.0303,1.0303,1.0303,1.0303,1.0303,1.0303,1.0322,1.037,1.037,1.0409,1.0582,1.1534,1.2138,1.2508,1.2561,1.3196,1.4009,1.4091,1.4374,1.4632,1.4211,1.4053,1.3896,1.3353,1.3198,1.3198,1.3198,1.3198,1.3198,1.3198,1.3198,1.3215,1.3267,1.3885,1.4454,1.4485,1.5165,1.5726,1.5726,1.577,1.5769,1.5709,1.5959,1.6022,1.5594,1.5843,1.5929,1.5583,1.5576,1.5658,1.5771,1.5948,1.608,1.6109,1.5803,1.5904,1.6554,1.612,1.625,1.7038,1.6502,1.6635,1.7478,1.686,1.6948,1.7715,1.7715,1.7185,0.4421,0.4277,0.4136,0.0,0.4013,0.3928,0.4449,0.4281,0.4147,0.4688,0.4807,0.4947,0.5444,0.5789,0.6124,0.0,0.6727,0.6867,0.698,0.7,0.7,0.7,0.7,0.7105,0.7363,0.7147,0.7112,0.7363,0.7384,0.7672,0.8353,0.8519,0.8913,0.9631,0.9769,0.9981,1.0303,1.0303,1.0303,1.0303,1.0303,1.0303,1.0303,1.0303,1.043,1.0654,1.0939,1.1067,1.1067,1.1067,1.1067,1.1027,1.0772,1.0645,1.0695,1.1181,1.1653,1.2138,1.2419,1.2984,1.3622,1.3984,1.4004,1.3935,1.406,1.3858,1.3521,1.3261,1.3198,1.3198,1.3198,1.3198,1.3198,1.3198,1.3198,1.3267,1.3547,1.3885,1.4338,1.4957,1.5571,1.5975,1.5975,1.6173,1.6204,1.5858,1.5912,1.603,1.6043,1.6329,1.6619,1.6861,1.6502,1.6342,1.6578,1.6413,1.6375,1.6542,1.6501,1.6664,1.7083,1.6878,1.6999,1.7538,1.7275,1.738,1.7835,1.7495,1.7546,1.7941,1.7941,1.8045,0.4175,0.4208,0.0,0.4368,0.4255,0.4181,0.4442,0.4362,0.4355,0.4842,0.4993,0.5179,0.5621,0.6037,0.6384,0.6579,0.6834,0.7,0.7,0.7,0.7063,0.7231,0.7105,0.7063,0.7231,0.7105,0.7063,0.7231,0.7259,0.7565,0.8296,0.8337,0.8756,0.9696,0.9716,0.995,1.0449,1.0479,1.0537,1.0655,1.0655,1.0655,1.0655,1.0655,1.0821,1.1103,1.1447,1.1606,1.1606,1.1606,1.1606,1.1577,1.1232,1.1084,1.1096,1.1145,1.1335,1.1634,1.1963,1.2407,1.2917,1.347,1.3369,1.3104,1.3679,1.3546,1.3198,1.3198,1.3198,1.3198,1.3198,1.3198,1.3198,1.3198,1.3198,1.3323,1.3802,1.4,1.4333,1.5215,1.5732,1.6014,1.6014,1.626,1.6293,1.5873,1.5885,1.6067,1.638,1.6815,1.7264,1.7755,1.732,1.7109,1.7376,1.7125,1.7024,1.7251,1.7238,1.7366,1.7688,1.7541,1.7676,1.8132,1.7996,1.8115,1.8496,1.8268,1.8319,1.8598,1.8607,1.8973,0.4235,0.0,0.4231,0.4368,0.4395,0.4449,0.4728,0.4787,0.4867,0.5219,0.5491,0.5674,0.5694,0.6186,0.66,0.6587,0.6834,0.7,0.7,0.7,0.7217,0.7808,0.7363,0.7231,0.0,0.7342,0.7238,0.7829,0.787,0.8337,0.9399,0.9459,0.9705,1.0264,1.0283,1.0478,1.0889,1.0868,1.1103,1.1567,1.1567,1.1567,1.1567,1.1567,1.1577,1.1587,1.1596,1.1606,1.1606,1.1606,1.1606,1.1606,1.1587,1.1587,1.1577,1.1589,1.1348,1.1038,1.1027,1.1394,1.192,1.2395,1.2538,1.2615,1.3089,1.321,1.3198,1.3198,1.3198,1.3198,1.3198,1.3198,1.3198,1.3198,1.3198,1.3323,1.3802,1.4214,1.4611,1.5027,1.5477,1.5814,1.5814,1.5814,1.5829,1.5799,1.6081,1.6423,1.6738,1.7361,1.7789,1.78,1.7783,1.7871,1.8142,1.8397,1.8644,1.8903,1.838,1.8427,1.9194,1.8667,1.8783,1.972,1.9096,1.9242,2.0213,1.9442,1.95,2.0334,2.0396,2.0449,0.3612,0.0,0.4273,0.4589,0.4661,0.4741,0.5063,0.513,0.5157,0.5273,0.5511,0.5772,0.599,0.6209,0.6445,0.6814,0.68,0.68,0.6973,0.7342,0.753,0.7321,0.7468,0.0,0.0,0.0,0.0,0.7294,0.7683,0.8057,0.8419,0.8777,0.9219,0.9755,1.0036,1.0405,1.0908,1.1222,1.1438,1.1606,1.1606,1.1606,1.1616,1.1888,1.2002,1.2021,1.2338,1.2465,1.2465,1.2465,1.2465,1.2473,1.2556,1.2612,1.2615,1.2744,1.2722,1.2578,1.2498,1.3061,1.3886,1.405,1.4088,1.4125,1.4275,1.4079,1.379,1.379,1.3509,1.3198,1.3198,1.3198,1.3198,1.3198,1.3198,1.3323,1.3802,1.4016,1.4433,1.5541,1.5893,1.6079,1.6353,1.6398,1.6249,1.5858,1.6274,1.6763,1.7089,1.7514,1.78,1.78,1.78,1.7905,1.8177,1.845,1.8715,1.8975,1.8935,1.9022,1.9297,1.9107,1.921,1.9656,1.9539,1.9673,2.0109,1.9961,2.0057,2.0329,2.0352,2.04,0.3673,0.4133,0.4622,0.5027,0.5119,0.5182,0.5391,0.5373,0.5293,0.5293,0.5447,0.5651,0.5963,0.6017,0.6211,0.6774,0.6713,0.6774,0.7259,0.7468,0.7593,0.7599,0.7694,0.7681,0.0,0.0,0.0,0.7553,0.8077,0.8477,0.8686,0.8864,0.9239,0.9765,1.0186,1.0643,1.1143,1.1582,1.1897,1.2054,1.2054,1.2054,1.2064,1.2334,1.2461,1.248,1.2778,1.2905,1.2905,1.2905,1.2905,1.2924,1.3222,1.334,1.3399,1.375,1.3992,1.4103,1.3478,1.3741,1.4403,1.456,1.4607,1.4658,1.4845,1.4664,1.4387,1.4387,1.4117,1.3804,1.3804,1.3804,1.3754,1.3571,1.3521,1.358,1.3854,1.4016,1.4435,1.5527,1.588,1.6065,1.6323,1.6473,1.6469,1.6197,1.6633,1.7002,1.7113,1.7514,1.78,1.78,1.78,1.7905,1.8177,1.845,1.8715,1.8975,1.919,1.9297,1.9297,1.9297,1.9387,1.9608,1.9682,1.9813,1.9993,2.0124,2.0231,2.0305,2.0295,2.0187,0.4363,0.4884,0.5248,0.5628,0.5708,0.5694,0.5694,0.5478,0.5273,0.5273,0.5271,0.5348,0.0,0.0,0.587,0.6493,0.6613,0.6913,0.7743,0.7412,0.7482,0.0,0.0,0.0,0.0,0.0,0.0,0.8667,0.0,0.9568,1.0077,0.9756,0.9794,1.0312,1.0723,1.1152,1.1636,1.2041,1.2447,1.2905,1.2905,1.2905,1.2905,1.2905,1.2905,1.2905,1.2905,1.2905,1.2905,1.2905,1.2905,1.2968,1.3552,1.3792,1.3886,1.4514,1.5096,1.5401,1.4034,1.3568,1.3638,1.4081,1.4221,1.4333,1.4823,1.4959,1.4934,1.4934,1.4909,1.4896,1.4896,1.4896,1.4777,1.4267,1.4141,1.4116,1.4012,1.4265,1.4637,1.5071,1.5507,1.5799,1.5799,1.6052,1.6396,1.6725,1.7064,1.7175,1.6892,1.7408,1.78,1.78,1.78,1.7894,1.8156,1.843,1.8679,1.8958,1.9174,1.9289,1.9297,1.9297,1.938,1.9576,1.9582,1.9738,1.9988,1.9984,2.0106,2.0285,2.0302,1.9862,0.4722,0.5316,0.5955,0.6045,0.5896,0.5694,0.5694,0.5301,0.492,0.492,0.484,0.4908,0.0,0.0,0.0,0.6454,0.6774,0.0,0.7203,0.7994,0.0,0.7874,0.0,0.9043,0.8784,0.9976,0.0,0.0,1.0193,0.995,1.0098,1.0099,1.0302,1.0732,1.1193,1.1633,1.2028,1.25,1.2773,1.2905,1.2905,1.2905,1.2905,1.2905,1.2905,1.2905,1.2905,1.2905,1.2905,1.2905,1.2905,1.2968,1.3552,1.3792,1.3933,1.4983,1.5477,1.5618,1.5682,1.5703,1.5724,1.5851,1.5893,1.5914,1.6053,1.5806,1.5512,1.5512,1.5211,1.4896,1.4896,1.4896,1.4878,1.4739,1.4702,1.4802,1.5169,1.4928,1.4894,1.5682,1.5831,1.5799,1.5799,1.587,1.6039,1.6382,1.6712,1.7093,1.7479,1.7681,1.78,1.78,1.78,1.7833,1.7911,1.8146,1.842,1.8688,1.894,1.9142,1.9289,1.9297,1.932,1.9391,1.952,1.9636,1.9707,1.9906,2.0026,2.0078,2.0223,1.9864,0.5152,0.5768,0.635,0.623,0.6068,0.5837,0.5514,0.5067,0.466,0.4478,0.4393,0.0,0.51,0.5034,0.0,0.0,0.0,0.0,0.7314,0.7968,0.8363,0.0,0.9051,0.0,0.9147,1.0325,1.1057,0.0,1.0803,1.0756,1.0756,1.0618,1.0664,1.0878,1.1523,1.207,1.2486,1.2778,1.2905,1.2905,1.2905,1.2905,1.2905,1.2905,1.2905,1.2905,0.0,1.2905,1.2905,1.2905,1.2905,1.2968,1.3552,1.3792,1.3956,1.5152,1.561,1.5698,1.6281,1.65,1.65,1.65,1.65,1.65,1.65,1.6287,1.6057,1.6057,1.5831,1.5593,1.5593,1.5593,1.561,1.5601,1.5595,1.5672,1.5986,1.5894,1.587,1.6272,1.6261,1.6099,1.5858,1.5912,1.6136,1.6461,1.6799,1.7199,1.7726,1.78,1.78,1.78,1.78,1.78,1.78,1.8057,1.831,1.8576,1.8843,1.9094,1.9289,1.9297,1.9297,1.9297,1.9499,1.9629,1.9688,1.9901,2.0055,2.0124,2.0245,1.9861,0.563,0.6199,0.66,0.6324,0.6223,0.6006,0.5273,0.4809,0.4422,0.4023,0.0,0.4075,0.4783,0.4707,0.4981,0.6358,0.0,0.6682,0.774,0.7838,0.8157,0.9126,0.9455,0.957,0.9524,1.0318,1.0698,1.0315,1.1052,1.1526,1.1596,1.1143,1.0936,1.1063,1.1862,1.25,1.2905,1.2905,1.2905,1.2905,1.2905,1.2905,1.2905,1.2905,1.2905,1.2905,0.0,0.0,1.2905,1.2905,1.2954,1.3065,1.36,1.3839,1.405,1.5174,1.561,1.5698,1.6281,1.65,1.65,1.65,1.65,1.65,1.65,1.65,1.65,1.65,1.65,1.65,1.65,1.65,1.6511,1.6592,1.6599,1.6661,1.6782,1.709,1.7215,1.6903,1.683,1.6637,1.6024,1.6204,1.6517,1.6766,1.7089,1.7415,1.7766,1.78,1.78,1.78,1.78,1.78,1.78,1.8014,1.828,1.8576,1.8816,1.9051,1.9289,1.9297,1.9297,1.9297,1.9478,1.9624,1.978,1.9917,2.0064,2.0269,2.0285,1.9831,0.6084,0.6506,0.686,0.6606,0.6371,0.6006,0.5273,0.4674,0.0,0.0,0.3322,0.3261,0.3838,0.4026,0.4625,0.626,0.6702,0.7101,0.7801,0.0,0.9241,0.0,0.0,0.0,0.0,0.0,0.0,0.0,0.0,0.0,1.1587,1.1143,1.1219,1.195,1.25,1.2827,1.2905,1.2905,1.2905,1.2905,1.2905,1.2905,1.2905,1.2905,1.2905,1.2905,0.0,0.0,1.2905,1.2905,1.319,1.3661,1.3755,1.4097,1.4629,1.5343,1.561,1.5698,1.6281,1.65,1.65,1.65,1.65,1.65,1.65,1.65,1.65,1.65,1.65,1.65,1.65,1.65,1.6612,1.707,1.7167,1.7411,1.8295,1.8461,1.8244,1.7652,1.7518,1.7309,1.6652,1.6877,1.7049,1.6833,1.7089,1.7415,1.7766,1.78,1.78,1.78,1.78,1.78,1.78,1.7828,1.8089,1.8566,1.8632,1.886,1.9282,1.9297,1.9297,1.9297,1.9327,1.9438,1.9636,1.9774,1.9906,2.0064,2.021,1.9831,0.6156,0.6398,0.6559,0.6419,0.6164,0.5687,0.4745,0.0,0.0,0.0,0.3097,0.3205,0.3847,0.4148,0.0,0.6121,0.6485,0.6781,0.7362,0.8318,0.0,0.0,0.0,0.0,0.0,0.0,0.0,0.0,0.0,0.0,1.1555,1.1582,1.1872,1.2549,1.2773,1.2905,1.2905,1.2905,1.2905,1.2905,1.2905,1.2905,1.2905,1.2905,1.2905,1.2905,0.0,0.0,1.2905,1.2905,1.3065,1.3348,1.3684,1.398,1.4352,1.5276,1.561,1.5698,1.6281,1.65,1.65,1.65,1.65,1.65,1.65,1.65,1.65,1.65,1.65,1.65,1.65,1.65,1.6637,1.7167,1.7727,1.8361,1.9151,1.9259,1.9016,1.8341,1.8222,1.8012,1.7339,1.7578,1.7764,1.7377,1.7646,1.7846,1.7817,1.78,1.78,1.78,1.78,1.78,1.78,1.78,1.7971,1.8371,1.8518,1.8762,1.9125,1.9235,1.9297,1.9297,1.9394,1.9536,1.9695,1.9836,1.9997,2.0156,2.0269,2.0081,0.6037,0.6142,0.6176,0.6115,0.5856,0.5357,0.4356,0.395,0.0,0.0,0.3112,0.3372,0.3973,0.0,0.4962,0.0,0.6222,0.6474,0.7245,0.8032,0.8635,0.0,0.0,0.0,0.0,0.0,0.0,0.0,0.0,0.0,1.1565,1.1982,1.2408,1.2895,1.2905,1.2905,1.2905,1.2905,1.2905,1.2905,1.2905,1.2905,1.2905,1.2905,1.2905,1.2905,0.0,0.0,0.0,1.2905,1.2968,1.3152,1.3755,1.4073,1.4318,1.5387,1.5798,1.5864,1.6337,1.65,1.65,1.65,1.65,1.65,1.65,1.65,1.65,1.65,1.65,1.65,1.65,1.65,1.6659,1.7333,1.8302,1.9188,1.9603,1.9708,1.9525,1.9016,1.8912,1.8702,1.8027,1.8375,1.8558,1.8107,1.8313,1.8385,1.8081,1.7901,1.78,1.78,1.78,1.78,1.78,1.78,1.7938,1.827,1.8479,1.8734,1.9052,1.9222,1.9297,1.9297,1.9464,1.9624,1.979,1.9912,2.0083,2.0308,2.0308,2.0308,0.5818,0.597,0.6129,0.5818,0.5538,0.5199,0.4672,0.0,0.3656,0.3477,0.3457,0.3521,0.3708,0.421,0.0,0.0,0.0,0.6751,0.8335,0.8918,0.9545,0.0,0.0,0.0,0.0,0.0,0.0,0.0,0.0,0.0,0.0,1.1982,1.2408,1.2895,1.2905,1.2905,1.2905,1.2905,1.2905,1.2905,1.2905,1.2905,1.2905,1.2905,1.2905,1.2905,0.0,0.0,0.0,1.2905,1.3214,1.3779,1.4376,1.496,1.5521,1.6173,1.6423,1.6423,1.6466,1.65,1.65,1.65,1.65,1.65,1.65,1.65,1.65,1.65,1.65,1.65,1.65,1.65,1.6752,1.7787,1.8855,1.9639,1.969,1.9708,1.9693,1.9633,1.9618,1.9408,1.8732,1.9245,1.954,1.8895,1.8834,1.8836,1.8809,1.8205,1.78,1.78,1.78,1.78,1.78,1.78,1.8025,1.8528,1.8585,1.8789,1.9251,1.9289,1.9297,1.9297,1.9312,1.9483,1.979,1.9807,1.9972,2.0308,2.0308,2.0308,0.5698,0.5671,0.5655,0.5698,0.5341,0.4935,0.4662,0.0,0.3579,0.3609,0.3713,0.3866,0.4083,0.4612,0.5235,0.5905,0.5944,0.0,0.7072,0.7602,0.8226,0.0,0.0,0.0,0.0,0.0,0.0,0.0,0.0,0.0,0.0,1.2259,1.2705,1.2895,1.2905,1.2905,1.2905,1.2905,1.2905,1.2905,1.2905,1.2905,1.2905,1.2905,1.2905,1.2905,0.0,0.0,0.0,1.2905,1.3041,1.3348,1.4317,1.4858,1.5175,1.6151,1.65,1.65,1.65,1.65,1.65,1.65,1.65,1.65,1.65,1.65,1.65,1.65,1.65,1.65,1.65,1.6731,1.725,1.8341,1.8912,1.9314,1.9621,1.9708,1.9708,1.9708,1.9708,1.9618,1.9346,2.0009,2.032,1.9617,1.9951,2.0111,1.9625,1.8927,1.8454,1.8454,1.8065,1.78,1.78,1.78,1.796,1.8341,1.8508,1.8753,1.9101,1.9246,1.9297,1.9297,1.9297,1.9451,1.979,1.979,1.9976,2.0308,2.0308,2.0308,0.5428,0.5371,0.5347,0.5531,0.5188,0.4798,0.0,0.4202,0.3694,0.3878,0.4025,0.4171,0.4363,0.4898,0.5387,0.5648,0.5694,0.5898,0.6479,0.6881,0.0,0.0,0.0,0.0,0.0,0.0,0.0,0.0,0.0,0.0,0.0,1.2299,1.2768,1.2905,1.2905,1.2905,1.2905,1.2905,1.2905,1.2905,1.2905,1.2905,1.2905,1.3079,1.3176,0.0,0.0,0.0,0.0,1.343,1.343,1.3515,1.456,1.4971,1.5085,1.6129,1.65,1.65,1.65,1.65,1.65,1.65,1.65,1.65,1.65,1.65,1.65,1.65,1.6616,1.6731,1.6731,1.725,1.7967,1.8708,1.9024,1.9244,1.9621,1.9708,1.9708,1.9708,1.98,1.9874,1.9874,2.0599,2.1004,2.049,2.0865,2.1004,2.0433,1.9693,1.9147,1.891,1.8518,1.8154,1.7933,1.7992,1.8146,1.842,1.8604,1.8834,1.9086,1.9212,1.9297,1.9297,1.9297,1.9451,1.979,1.979,1.9976,2.0308,2.0308,2.0308,0.4973,0.5042,0.5293,0.53,0.5042,0.4887,0.521,0.4616,0.4067,0.4329,0.4389,0.4402,0.4402,0.4898,0.5387,0.5648,0.5694,0.6089,0.7223,0.7398,0.0,0.0,0.0,0.0,0.0,0.0,0.0,0.0,0.0,0.0,0.0,0.0,1.2408,1.2895,1.2905,1.2905,1.2905,1.2905,1.2905,1.2905,1.2905,1.2905,1.2929,1.3529,0.0,0.0,0.0,0.0,0.0,1.4675,1.4675,1.4744,1.5343,1.5588,1.5654,1.6281,1.65,1.65,1.65,1.65,1.65,1.65,1.65,1.65,1.65,1.65,1.65,1.65,1.6879,1.7291,1.7291,1.8086,1.8893,1.8893,1.9314,1.969,1.9708,1.9708,1.9708,1.9708,2.0017,2.0297,2.0297,2.1023,2.1582,2.1565,2.1351,2.119,2.119,2.05,1.971,1.8978,1.9127,1.8983,1.8267,1.844,1.8715,1.8966,1.8984,1.9094,1.9282,1.9297,1.9297,1.9297,1.9297,1.9451,1.979,1.979,1.9976,2.0308,2.0308,2.0308,0.4666,0.4743,0.4906,0.5214,0.5042,0.4887,0.5226,0.463,0.4079,0.4342,0.4255,0.4181,0.4369,0.4702,0.5122,0.5614,0.5694,0.5898,0.0,0.0,0.0,0.0,0.0,0.0,0.0,0.0,0.0,0.0,0.0,0.0,0.0,0.0,1.2408,1.2895,1.2905,1.2905,1.2905,1.2905,1.2905,1.2905,1.3324,1.3529,1.3529,1.4143,0.0,0.0,0.0,0.0,0.0,1.4698,1.4698,1.4766,1.5365,1.561,1.5676,1.6281,1.65,1.65,1.65,1.65,1.65,1.65,1.65,1.65,1.65,1.65,1.65,1.65,1.69,1.7394,1.7747,1.838,1.8987,1.9369,1.9584,1.9708,1.9708,1.9708,1.9782,2.0054,2.0212,2.0399,2.0715,2.1244,2.1597,2.1597,2.1802,2.1955,2.1955,2.1295,2.0733,2.0496,2.042,1.9805,1.834,1.845,1.8715,1.8975,1.901,1.9094,1.9289,1.9297,1.9297,1.9297,1.9442,1.9611,1.979,1.9896,2.0069,2.0308,2.0308,2.0308,0.4255,0.4441,0.4651,0.5172,0.5042,0.4854,0.507,0.4529,0.4045,0.4214,0.4119,0.4086,0.4349,0.4615,0.4967,0.5471,0.5677,0.0,0.0,0.0,0.0,0.0,0.0,0.0,0.0,0.0,0.0,0.0,0.0,0.0,0.0,0.0,1.2178,1.2617,1.2817,1.2905,1.2905,1.2905,1.3017,1.3238,1.3613,1.3909,1.4167,0.0,0.0,0.0,0.0,0.0,0.0,1.5389,1.5389,1.5433,1.5776,1.593,1.5986,1.6358,1.65,1.65,1.65,1.65,1.65,1.65,1.65,1.65,1.65,1.65,1.65,1.65,1.7034,1.7686,1.8007,1.865,1.9281,1.9621,1.9708,1.9708,1.9708,1.9836,2.0,2.0246,2.0567,2.0878,2.1181,2.1583,2.1853,2.1853,2.2106,2.2296,2.2296,2.1904,2.1512,2.1224,2.1271,2.0742,1.9335,1.9275,1.9263,1.9119,1.9109,1.9174,1.9289,1.9297,1.9297,1.9297,1.9499,1.9663,1.979,2.0012,2.0188,2.0308,2.0308,2.0308,0.0,0.4142,0.4468,0.5082,0.4995,0.4774,0.4774,0.4369,0.0,0.3992,0.3978,0.4054,0.4375,0.4636,0.4953,0.5347,0.5722,0.0,0.0,0.0,0.0,0.0,0.0,0.0,0.0,0.0,0.0,0.0,0.0,0.0,0.0,0.0,0.0,1.2194,1.2694,1.2968,1.2968,1.2968,1.3262,1.3862,1.3909,1.4213,1.4789,0.0,0.0,0.0,0.0,0.0,0.0,1.65,1.65,1.65,1.65,1.65,1.65,1.65,1.65,1.65,1.65,1.65,1.6522,1.6531,1.6552,1.6552,1.6595,1.6552,1.6522,1.6552,1.7312,1.8125,1.8165,1.893,1.9708,1.9708,1.9708,1.9708,1.9708,2.0017,2.0314,2.0348,2.1039,2.1613,2.1627,2.2017,2.2296,2.2296,2.2296,2.2296,2.2296,2.2296,2.204,2.1383,2.1776,2.1786,2.1072,2.0744,2.0272,1.9536,1.9481,1.9444,1.9389,1.9389,1.9378,1.932,1.9516,1.9701,1.9843,2.0149,2.0327,2.0385,2.0385,2.0423,0.3519,0.0,0.3731,0.4438,0.4556,0.4489,0.0,0.4241,0.3992,0.3992,0.3799,0.3843,0.4568,0.4843,0.5275,0.6277,0.0,0.0,0.0,0.0,0.0,0.0,0.0,0.0,0.0,0.0,0.0,0.0,0.0,0.0,0.0,0.0,0.0,1.2194,1.3091,1.36,1.36,1.36,1.3897,1.4491,1.496,1.5253,1.541,0.0,0.0,0.0,0.0,0.0,1.65,1.65,1.65,1.65,1.65,1.65,1.65,1.65,1.65,1.65,1.65,1.65,1.6573,1.6972,1.7118,1.7188,1.7605,1.7146,1.6595,1.6993,1.7585,1.8204,1.8612,1.9207,1.9708,1.9708,1.9708,1.9708,1.9708,2.0017,2.0416,2.078,2.126,2.1703,2.2061,2.2223,2.2296,2.2296,2.2296,2.2296,2.2296,2.2296,2.2306,2.2345,2.2685,2.2702,2.217,2.1735,2.1408,2.1225,2.1206,2.0913,2.0254,2.0217,2.0002,1.9546,1.9773,1.9997,2.0176,2.0264,2.0615,2.1216,2.1216,2.1581,0.3428,0.3564,0.378,0.4425,0.4489,0.4402,0.4402,0.4075,0.3768,0.3768,0.3748,0.3973,0.4745,0.5235,0.0,0.0,0.0,0.0,0.0,0.0,0.0,0.0,0.0,0.0,0.0,0.0,0.0,0.0,0.0,0.0,0.0,0.0,0.0,0.0,1.2708,1.3315,1.3792,1.4073,1.4514,1.513,1.5432,1.5742,1.603,0.0,0.0,0.0,0.0,0.0,1.65,1.65,1.65,1.65,1.65,1.65,1.65,1.65,1.65,1.65,1.65,1.65,1.6552,1.6837,1.7097,1.7353,1.7646,1.7504,1.7291,1.7585,1.8046,1.8535,1.8817,1.9299,1.9708,1.9708,1.9708,1.9747,1.9945,2.0313,2.0748,2.1197,2.1613,2.2003,2.2268,2.2296,2.2296,2.2296,2.2296,2.2296,2.2296,2.2296,2.2398,2.2656,2.3009,2.3157,2.3066,2.2957,2.2584,2.1849,2.1794,2.1592,2.1125,2.1106,2.1013,2.0838,2.1064,2.1278,2.1446,2.1446,2.1677,2.21,2.21,2.235,0.3505,0.382,0.4155,0.4513,0.4502,0.4395,0.4349,0.3976,0.3639,0.3639,0.0,0.0,0.0,0.5861,0.0,0.0,0.0,0.0,0.0,0.0,0.0,0.0,0.0,0.0,0.0,0.0,0.0,0.0,0.0,0.0,0.0,0.0,0.0,0.0,1.2173,1.2902,1.3825,1.4416,1.5049,1.5754,1.5754,1.6008,1.65,1.65,0.0,0.0,0.0,0.0,1.65,1.65,1.65,1.65,1.65,1.65,1.65,1.65,1.65,1.65,1.65,1.65,1.6522,1.6595,1.6972,1.7442,1.7524,1.7927,1.8341,1.8341,1.8612,1.893,1.9006,1.9369,1.9708,1.9708,1.9747,1.9892,2.0229,2.0715,2.1197,2.1521,2.1988,2.2296,2.2296,2.2296,2.2296,2.2296,2.2296,2.2296,2.2296,2.2335,2.2463,2.2764,2.3081,2.3403,2.3753,2.4044,2.363,2.2253,2.2161,2.2106,2.1996,2.1917,2.2009,2.2286,2.2519,2.2681,2.2797,2.2797,2.2874,2.3009,2.3009,2.3067,0.3834,0.4123,0.4231,0.3806,0.4056,0.4342,0.4119,0.4167,0.4256,0.4256,0.0,0.0,0.0,0.7061,0.7888,0.0,0.0,0.0,0.0,0.0,0.0,0.0,0.0,0.0,0.0,0.0,0.0,0.0,0.0,0.0,0.0,0.0,0.0,1.1671,0.0,1.3339,1.3955,1.4512,1.5313,1.6358,1.6358,1.6402,1.65,1.65,1.65,0.0,0.0,1.65,1.65,1.65,1.65,1.65,1.65,1.65,1.65,1.65,1.65,1.65,1.65,1.65,1.6573,1.7034,1.7544,1.8066,1.8516,1.9024,1.9442,1.9442,1.9188,1.9006,1.946,1.9639,1.9708,1.9708,1.9947,2.0212,2.0297,2.0943,2.1521,2.1582,2.1988,2.2296,2.2296,2.2296,2.2296,2.2296,2.2296,2.2296,2.2296,2.25,2.2764,2.3081,2.3426,2.3764,2.4094,2.417,2.408,2.3841,2.3823,2.3529,2.2841,2.2424,2.2258,2.2293,2.2606,2.278,2.2797,2.2797,2.3182,2.3898,2.3898,2.4279,0.3683,0.3948,0.411,0.379,0.433,0.5029,0.538,0.5446,0.5491,0.57,0.0,0.0,0.0,0.0,0.8837,0.0,0.0,0.0,0.0,0.0,0.0,0.0,0.0,0.0,0.0,0.0,0.0,0.0,0.0,0.0,0.0,0.0,0.0,0.0,1.3279,1.4092,1.4902,1.5147,1.555,1.607,1.635,1.65,1.65,1.65,1.65,1.65,0.0,1.65,1.65,1.65,1.65,1.65,1.65,1.65,1.65,1.65,1.668,1.693,1.693,1.7105,1.7415,1.7646,1.8106,1.8574,1.8836,1.9262,1.9708,1.9708,1.953,1.9387,1.9639,1.9708,1.9747,1.9965,2.0176,2.0433,2.0894,2.1321,2.1673,2.1928,2.2149,2.2296,2.2296,2.2296,2.2296,2.2296,2.2426,2.2514,2.2514,2.2776,2.3105,2.3426,2.3599,2.3845,2.417,2.419,2.419,2.419,2.419,2.4025,2.3657,2.3651,2.3639,2.3639,2.3984,2.4159,2.4159,2.4159,2.437,2.4755,2.4755,2.4947,0.3603,0.3806,0.4022,0.4123,0.4661,0.5386,0.6209,0.6239,0.6259,0.6831,0.0,0.0,0.0,0.8809,0.0,0.0,0.0,0.0,0.0,0.0,0.0,0.0,0.0,0.0,0.0,0.0,0.0,0.0,0.0,0.0,0.0,0.0,0.0,0.0,1.3858,1.4554,1.5492,1.563,1.5756,1.5894,1.6287,1.65,1.65,1.666,1.6626,1.65,1.6638,1.6626,1.65,1.65,1.65,1.65,1.65,1.65,1.6522,1.6637,1.6951,1.7333,1.7442,1.7767,1.8106,1.8106,1.8458,1.8893,1.8893,1.9262,1.9708,1.9708,1.9708,1.9708,1.9708,1.9764,1.9927,2.0229,2.0466,2.0781,2.146,2.1688,2.1884,2.2223,2.2296,2.2296,2.2296,2.2296,2.2296,2.2296,2.2541,2.2708,2.2708,2.3057,2.3414,2.3671,2.3774,2.3917,2.418,2.419,2.4218,2.4275,2.4266,2.4294,2.4348,2.4659,2.4849,2.4849,2.5149,2.5308,2.5308,2.5308,2.5308,2.5308,2.5308,2.5308,0.3873,0.3978,0.4149,0.4769,0.4689,0.4654,0.5339,0.5486,0.5765,0.6866,0.0,0.0,0.0,0.0,0.0,0.0,0.0,0.0,0.0,0.0,0.0,0.0,0.0,0.0,0.0,0.0,0.0,0.0,0.0,0.0,0.0,0.0,0.0,0.0,0.0,1.4371,1.4947,1.5462,1.5957,1.6437,1.6475,1.65,1.6513,1.7074,1.7024,1.6525,1.7087,1.7011,1.65,1.65,1.65,1.65,1.65,1.65,1.6552,1.7055,1.7271,1.7374,1.7867,1.8066,1.8106,1.8106,1.8458,1.8893,1.8893,1.9262,1.9708,1.9708,1.9708,1.9708,1.9708,1.9982,2.0263,2.0297,2.0911,2.1521,2.1582,2.1943,2.2268,2.2296,2.2296,2.2296,2.2296,2.2296,2.2296,2.2296,2.2541,2.2708,2.2708,2.3259,2.3671,2.3692,2.3986,2.417,2.419,2.419,2.4275,2.4461,2.4478,2.4551,2.4753,2.4891,2.4992,2.4992,2.5198,2.5308,2.5308,2.5308,2.5308,2.5308,2.5308,2.5308,0.3694,0.4324,0.4929,0.4639,0.5077,0.5757,0.6421,0.681,0.7335,0.8434,0.9035,0.0,0.0,0.0,0.0,0.0,0.0,0.0,0.0,0.0,0.0,0.0,0.0,0.0,0.0,0.0,0.0,0.0,0.0,0.0,0.0,0.0,0.0,0.0,0.0,1.5682,1.5894,1.6107,1.6287,1.65,1.65,1.65,1.65,1.6748,1.6923,1.7049,1.6911,1.6923,1.7024,1.6638,1.65,1.65,1.65,1.65,1.6552,1.7097,1.7504,1.7867,1.8419,1.8817,1.9095,1.9095,1.9225,1.9406,1.9406,1.9548,1.9708,1.9708,1.9708,1.9708,1.9708,2.0,2.0365,2.0682,2.1181,2.1673,2.1957,2.2163,2.2296,2.2296,2.2296,2.2296,2.2296,2.2296,2.2296,2.2296,2.2708,2.3009,2.3009,2.3606,2.4006,2.4006,2.4113,2.419,2.419,2.419,2.4348,2.4662,2.4559,2.4583,2.479,2.4936,2.5004,2.5004,2.5203,2.5308,2.5308,2.5308,2.5308,2.5308,2.5308,2.5308,0.4002,0.477,0.5489,0.504,0.5514,0.6329,0.7295,0.7648,0.8079,0.9188,0.9883,1.041,1.083,0.0,0.0,0.0,0.0,0.0,0.0,0.0,0.0,0.0,0.0,0.0,0.0,0.0,0.0,0.0,0.0,0.0,0.0,0.0,0.0,0.0,0.0,0.0,1.65,1.65,1.65,1.65,1.65,1.65,1.65,1.671,1.6911,1.7099,1.6886,1.6911,1.7074,1.6663,1.65,1.65,1.65,1.6595,1.6816,1.7353,1.7887,1.8438,1.8968,1.9387,1.9708,1.9708,1.9708,1.9708,1.9708,1.9708,1.9708,1.9708,1.9708,1.9708,1.9708,2.0104,2.06,2.0926,2.1431,2.1913,2.2223,2.2296,2.2296,2.2296,2.2296,2.2364,2.2615,2.2649,2.2733,2.297,2.3537,2.3932,2.3932,2.4527,2.485,2.4622,2.4355,2.419,2.419,2.419,2.4366,2.4775,2.467,2.4689,2.4955,2.5061,2.5094,2.5094,2.5224,2.5308,2.5308,2.5308,2.5308,2.5308,2.5308,2.5308,0.4916,0.529,0.5706,0.6179,0.5956,0.6035,0.7627,0.763,0.7635,0.8771,0.9697,1.043,1.084,0.0,0.0,0.0,0.0,0.0,0.0,0.0,0.0,0.0,0.0,0.0,0.0,0.0,0.0,0.0,0.0,0.0,0.0,0.0,0.0,0.0,0.0,0.0,1.65,1.65,1.65,1.65,1.65,1.65,1.6513,1.7112,1.7061,1.6538,1.7124,1.7049,1.65,1.65,1.6522,1.6522,1.6522,1.6837,1.7374,1.7907,1.8438,1.8987,1.9512,1.9708,1.9708,1.9708,1.9708,1.9708,1.9708,1.9708,1.9708,1.9693,1.9708,1.9708,1.9711,2.0362,2.0991,2.0991,2.1676,2.2296,2.2296,2.2296,2.2296,2.2296,2.2313,2.2533,2.3274,2.341,2.3661,2.4404,2.5066,2.5508,2.5508,2.6156,2.63,2.5503,2.4695,2.4226,2.4208,2.4208,2.4375,2.4775,2.4804,2.4942,2.5298,2.5308,2.5308,2.5308,2.5308,2.5308,2.5308,2.5308,2.5308,2.5308,2.5308,2.5308,0.448,0.5177,0.5846,0.5706,0.0,0.0,0.7674,0.7787,0.8199,0.0,1.0342,1.0762,1.0889,0.0,0.0,0.0,0.0,0.0,0.0,0.0,0.0,0.0,0.0,0.0,0.0,0.0,0.0,0.0,0.0,0.0,0.0,0.0,0.0,0.0,0.0,0.0,1.65,1.65,1.65,1.65,1.65,1.65,1.65,1.6697,1.6911,1.7112,1.6873,1.6911,1.7144,1.7089,1.7055,1.7097,1.7483,1.7727,1.7927,1.8458,1.8746,1.8987,1.9512,1.9708,1.9708,1.9708,1.9708,1.9708,1.9708,1.9708,1.9764,2.0052,2.0124,2.0193,2.0532,2.1023,2.1353,2.1055,2.1676,2.2296,2.2296,2.2296,2.2448,2.297,2.3071,2.3308,2.4051,2.4169,2.4343,2.4858,2.5246,2.5691,2.6202,2.6469,2.6521,2.6264,2.6025,2.5658,2.5099,2.518,2.5127,2.482,2.4884,2.5041,2.5298,2.5308,2.5308,2.5308,2.5308,2.5308,2.5308,2.5308,2.5308,2.5308,2.5308,2.5308,0.4821,0.552,0.0,0.6288,0.7017,0.7783,0.8139,0.0,0.0,0.0,1.0478,1.0654,1.0654,0.0,0.0,0.0,0.0,0.0,0.0,0.0,0.0,0.0,0.0,0.0,0.0,0.0,0.0,0.0,0.0,0.0,0.0,0.0,0.0,0.0,0.0,0.0,1.65,1.65,1.65,1.65,1.65,1.65,1.65,1.65,1.671,1.7033,1.6884,1.7008,1.738,1.754,1.7626,1.7646,1.7967,1.8243,1.8458,1.8779,1.9024,1.9262,1.9584,1.9708,1.9708,1.9708,1.9708,1.9744,1.9892,1.9929,2.0035,2.0449,2.0583,2.0633,2.0926,2.1291,2.1536,2.1291,2.1781,2.2296,2.2296,2.2296,2.2516,2.3257,2.3393,2.3731,2.4746,2.4948,2.5173,2.5868,2.6351,2.6878,2.7482,2.7273,2.709,2.709,2.6796,2.641,2.5925,2.5687,2.5483,2.5295,2.5053,2.5182,2.5783,2.5481,2.5308,2.5308,2.5308,2.5308,2.5308,2.5308,2.5308,2.5308,2.5654,2.5823,0.5532,0.5985,0.6467,0.7355,0.7666,0.0,0.8818,0.9309,0.9737,1.0195,0.0,1.0303,0.0,0.0,0.0,0.0,0.0,0.0,0.0,0.0,0.0,0.0,0.0,0.0,0.0,0.0,0.0,0.0,0.0,0.0,0.0,0.0,0.0,0.0,0.0,0.0,1.65,1.65,1.65,0.0,1.65,1.65,1.65,1.65,1.6543,1.6595,1.7126,1.7374,1.7415,1.7947,1.8185,1.8185,1.8243,1.8535,1.8968,1.8968,1.9281,1.9708,1.9708,1.9708,1.9708,1.9708,1.9708,1.9782,2.0193,2.0297,2.0416,2.091,2.1039,2.1055,2.1118,2.14,2.1658,2.1658,2.1988,2.2296,2.2296,2.2296,2.2533,2.3342,2.3509,2.3968,2.5456,2.5742,2.6138,2.7228,2.8002,2.8577,2.8952,2.8356,2.7915,2.7915,2.7255,2.6785,2.6722,2.6056,2.5773,2.6094,2.5446,2.5551,2.6668,2.5808,2.5346,2.5423,2.5423,2.5423,2.5423,2.55,2.5538,2.5558,2.6351,2.6752,0.5068,0.516,0.0,0.6413,0.7471,0.8369,0.8887,0.9309,0.9737,1.0195,1.0303,0.0,0.0,0.0,0.0,0.0,0.0,0.0,0.0,0.0,0.0,0.0,0.0,0.0,0.0,0.0,0.0,0.0,0.0,0.0,0.0,0.0,0.0,0.0,0.0,1.65,1.65,1.65,1.65,0.0,1.65,1.65,1.65,1.65,1.6731,1.7146,1.7706,1.7927,1.7967,1.8516,1.8727,1.8765,1.9188,1.9424,1.953,1.953,1.9603,1.9708,1.9708,1.9708,1.9708,1.9708,1.9708,1.9782,2.0193,2.0297,2.0466,2.1243,2.1476,2.1568,2.193,2.2077,2.2149,2.2149,2.2223,2.2296,2.2296,2.2296,2.2699,2.4017,2.4254,2.4728,2.6201,2.6732,2.7217,2.8035,2.8565,2.8905,2.8994,2.8858,2.873,2.873,2.8583,2.8235,2.7603,2.7537,2.7354,2.6973,2.6925,2.7128,2.7596,2.6135,2.5615,2.6308,2.6327,2.6327,2.6327,2.7005,2.7332,2.7351,2.7525,2.7622,0.4953,0.5001,0.0,0.6416,0.0,0.8502,0.8906,0.9309,0.9801,1.0482,0.0,0.0,0.0,0.0,0.0,0.0,0.0,0.0,0.0,0.0,0.0,0.0,0.0,0.0,0.0,0.0,0.0,0.0,0.0,0.0,0.0,0.0,0.0,0.0,1.612,1.6237,1.65,1.65,1.65,1.65,1.65,1.6637,1.6879,1.6879,1.7034,1.7353,1.8145,1.8477,1.8516,1.9062,1.9086,1.8855,1.9465,1.9513,1.9256,1.9588,1.9708,1.9708,1.9708,1.9708,1.9708,1.9708,1.9821,2.007,2.05,2.0764,2.107,2.1749,2.1928,2.1988,2.2237,2.2296,2.2296,2.2296,2.2296,2.2296,2.2296,2.2296,2.279,2.4455,2.479,2.5313,2.6997,2.7587,2.796,2.8337,2.8749,2.9005,2.9005,2.9005,2.9005,2.9005,2.9005,2.8822,2.8411,2.8109,2.7902,2.7775,2.7517,2.7693,2.8442,2.7236,2.6755,2.7217,2.7217,2.7217,2.7217,2.7678,2.7895,2.7915,2.8299,2.849,0.4991,0.5205,0.5613,0.6807,0.7686,0.0,0.8799,0.9143,0.9677,0.0,0.0,0.0,0.0,0.0,0.0,0.0,0.0,0.0,0.0,0.0,0.0,0.0,0.0,0.0,0.0,0.0,0.0,0.0,0.0,0.0,0.0,0.0,1.5047,1.568,1.5693,1.5957,1.6488,1.65,1.65,1.65,1.6595,1.6879,1.7312,1.7483,1.7585,1.7626,1.8612,1.9043,1.9062,1.953,1.9361,1.8927,1.9465,1.9346,1.8942,1.9513,1.9708,1.9708,1.9782,1.9803,1.9818,1.9892,2.0156,2.0516,2.0959,2.1337,2.1703,2.218,2.2296,2.2296,2.2296,2.2296,2.2296,2.2296,2.2296,2.2296,2.2296,2.2398,2.3014,2.476,2.5355,2.6086,2.7709,2.8224,2.8433,2.8484,2.8803,2.9005,2.9005,2.9005,2.9005,2.9005,2.9005,2.9005,2.9005,2.8393,2.817,2.8606,2.8007,2.8134,2.9283,2.8679,2.8332,2.8332,2.8184,2.8107,2.8107,2.8255,2.8332,2.8352,2.9006,2.934,0.4991,0.0,0.6365,0.0,0.7447,0.7915,0.0,0.0,0.8935,0.0,0.0,0.0,0.0,0.0,0.0,0.0,0.0,0.0,0.0,0.0,0.0,0.0,0.0,0.0,0.0,0.0,0.0,0.0,0.0,0.0,0.0,1.4217,1.4676,1.5668,1.5693,1.5957,1.6488,1.65,1.65,1.6522,1.6972,1.7229,1.7333,1.8263,1.8688,1.8708,1.9332,1.9584,1.9603,1.9672,1.9648,1.9588,1.9678,1.9648,1.9588,1.9678,1.9708,1.9747,2.0089,2.0212,2.028,2.0698,2.0862,2.0975,2.1399,2.1552,2.1703,2.218,2.2296,2.2296,2.2296,2.2296,2.2296,2.2296,2.2296,2.2296,2.2296,2.2801,2.3609,2.4864,2.6409,2.7705,2.8241,2.8381,2.8527,2.8863,2.897,2.9005,2.9005,2.9005,2.9005,2.9005,2.9005,2.9005,2.9005,2.8895,2.904,2.95,2.9441,2.9619,3.02,3.0115,3.0077,3.0077,2.9313,2.8934,2.8934,2.9698,3.0077,3.0077,3.0173,3.0223,0.5241,0.5681,0.6209,0.0,0.7157,0.7544,0.8238,0.0,0.0,0.0,0.0,0.0,0.0,0.0,0.0,0.0,0.0,0.0,0.0,0.0,0.0,0.0,0.0,0.0,0.0,0.0,0.0,0.0,0.0,0.0,1.3584,1.3596,1.3979,1.479,1.4796,0.0,1.6045,1.6057,1.6187,1.6522,1.7034,1.7463,1.7767,1.8554,1.8893,1.893,1.946,1.9708,1.9708,1.9708,1.9256,1.8627,1.8986,1.8912,1.8627,1.9001,1.9521,2.0054,2.0229,2.0466,2.0731,2.0926,2.115,2.1368,2.1536,2.1794,2.2032,2.2237,2.2296,2.2296,2.2296,2.2296,2.2296,2.2296,2.2296,2.2398,2.2835,2.3357,2.4254,2.599,2.7518,2.8558,2.8713,2.8737,2.8803,2.8964,2.9005,2.9005,2.9005,2.9005,2.9005,2.9005,2.9005,2.9005,2.9005,2.9145,2.9355,2.9678,2.9804,3.0025,3.0392,3.0404,3.0404,3.0404,3.0019,2.9833,2.9833,3.0212,3.0404,3.0404,3.0404,3.0404,0.0,0.0,0.6072,0.6576,0.6948,0.7381,0.0,0.0,0.0,0.0,0.0,0.0,0.0,0.0,0.0,0.0,0.0,0.0,0.0,0.0,0.0,0.0,0.0,0.0,0.0,0.0,0.0,0.0,0.0,0.0,1.3198,1.3198,1.3483,1.4091,1.4103,1.4551,1.55,1.5618,1.6031,1.671,1.725,1.7787,1.8322,1.8855,1.9114,1.9132,1.953,1.9708,1.9708,1.9708,1.9106,1.8252,1.8762,1.871,1.8419,1.8918,1.9693,2.05,2.0584,2.0862,2.1166,2.1291,2.1522,2.1779,2.1779,2.2017,2.2296,2.2296,2.2296,2.2296,2.2296,2.2296,2.2296,2.2296,2.2431,2.2813,2.3641,2.4289,2.5271,2.7216,2.8342,2.9005,2.9005,2.9005,2.9005,2.9005,2.9005,2.9005,2.9005,2.9005,2.9005,2.9005,2.9005,2.9005,2.9005,2.9246,2.9503,2.9687,2.9893,3.0129,3.0398,3.0404,3.0404,3.0404,3.0404,3.0404,3.0404,3.0404,3.0402,3.0422,3.0422,3.0425,0.0,0.5731,0.0,0.6409,0.6906,0.0,0.0,0.0,0.0,0.0,0.0,0.0,0.0,0.0,0.0,0.0,0.0,0.0,0.0,0.0,0.0,0.0,0.0,0.0,0.0,0.0,0.0,0.0,0.0,0.0,1.3198,1.3198,1.3483,1.4091,1.4103,1.4362,1.4934,1.5449,1.6225,1.725,1.7807,1.8341,1.8874,1.9406,1.9657,1.9657,1.969,1.9708,1.9708,1.9708,1.9663,1.9603,1.9633,1.9869,2.017,2.0186,2.0535,2.1007,2.1399,2.1552,2.1643,2.2092,2.2254,2.2268,2.2268,2.2282,2.2296,2.2296,2.2296,2.2296,2.2296,2.2296,2.2296,2.2296,2.2835,2.3646,2.4783,2.5879,2.6992,2.8108,2.87,2.9005,2.9005,2.9005,2.9005,2.9005,2.9005,2.9005,2.9005,2.9005,2.9005,2.9005,2.9005,2.9005,2.9005,2.9246,2.9503,2.9687,2.9893,3.0129,3.0398,3.0404,3.0404,3.0404,3.0404,3.0404,3.0404,3.0404,3.0419,3.049,3.049,3.0529,0.0,0.0,0.0,0.6159,0.6717,0.7176,0.0,0.0,0.0,0.0,0.0,0.0,0.0,0.0,0.0,0.0,0.0,0.0,0.0,0.0,0.0,0.0,0.0,0.0,0.0,0.0,0.0,0.0,0.0,0.0,1.3198,1.3198,1.3303,1.3521,1.3521,1.3803,1.4374,1.5261,1.6066,1.6798,1.7676,1.838,1.893,1.946,1.9708,1.9708,1.9708,1.9708,1.9708,1.9708,1.9453,1.9061,1.9061,1.9324,1.9711,1.9711,2.0432,2.1399,2.1552,2.1794,2.2077,2.2254,2.2296,2.2296,2.2296,2.2296,2.2296,2.2296,2.2296,2.2296,2.2296,2.2296,2.2415,2.2885,2.4325,2.5687,2.6092,2.6681,2.7444,2.8561,2.8905,2.9005,2.9005,2.9005,2.9189,2.9684,2.9335,2.9189,2.9702,2.9317,2.9005,2.9005,2.9005,2.9005,2.9005,2.9365,2.9616,2.9696,3.0052,3.0305,3.0398,3.0404,3.0404,3.0404,3.0404,3.0404,3.0404,3.0404,3.0425,3.0498,3.0498,3.0537,0.5586,0.0,0.0,0.0,0.0,0.692,0.0,0.0,0.0,0.0,0.0,0.0,0.0,0.0,0.0,0.0,0.0,0.0,0.0,0.0,0.0,0.0,0.0,0.0,0.0,0.0,0.0,0.0,0.0,0.0,1.3198,1.3198,1.3198,1.3198,1.3198,1.3496,1.4091,1.4936,1.573,1.6437,1.7531,1.8318,1.8848,1.9426,1.9708,1.9708,1.9708,1.9708,1.9708,1.9708,1.9453,1.9049,1.9189,1.953,1.9955,2.0099,2.0871,2.1823,2.1823,2.2032,2.2296,2.2296,2.2296,2.2296,2.2296,2.2296,2.2296,2.2296,2.236,2.2422,2.2422,2.2706,2.3192,2.3932,2.5573,2.7045,2.7281,2.75,2.7943,2.8819,2.9005,2.9005,2.9005,2.9005,2.9189,2.9721,2.9335,2.9189,2.9721,2.9335,2.9021,2.9123,2.9134,2.916,2.9238,2.957,2.9796,2.9796,3.0188,3.0404,3.0404,3.0404,3.0404,3.0404,3.0404,3.0404,3.0404,3.0404,3.0451,3.0533,3.0533,3.0584,0.0,0.0,0.0,0.0,0.0,0.0,0.0,0.0,0.0,0.0,0.0,0.0,0.0,0.0,0.0,0.0,0.0,0.0,0.0,0.0,0.0,0.0,0.0,0.0,0.0,0.0,0.0,0.0,0.0,1.3198,1.3198,1.3198,1.3198,1.3198,1.3215,1.3501,1.4096,1.4514,1.5251,1.6318,1.7363,1.8156,1.8732,1.9361,1.9693,1.9708,1.9708,1.9708,1.9711,1.9693,1.9708,1.9747,2.0158,2.0583,2.1055,2.1445,2.1899,2.2296,2.2296,2.2296,2.2296,2.2296,2.2296,2.2296,2.2296,2.2296,2.2296,2.231,2.25,2.2708,2.2708,2.3581,2.4624,2.5331,2.645,2.7543,2.8258,2.842,2.854,2.8929,2.9005,2.9005,2.9005,2.9005,2.9005,2.9023,2.9042,2.9042,2.9042,2.9042,2.9149,2.9372,2.9412,2.9484,2.9687,2.9885,3.0006,3.0006,3.0254,3.0404,3.0404,3.0404,3.0404,3.0404,3.0404,3.0404,3.0404,3.0404,3.0472,3.0603,3.0609,3.0716,0.5902,0.0,0.0,0.0,0.0,0.0,0.0,0.0,0.0,0.0,0.0,0.0,0.0,0.0,0.0,0.0,0.0,0.0,0.0,0.0,0.0,0.0,0.0,0.0,0.0,0.0,0.0,0.0,1.3198,1.3198,1.3198,1.3198,1.3198,1.3198,1.3531,1.378,1.3954,1.4738,1.5482,1.6165,1.6844,1.7716,1.8717,1.8897,1.9226,1.9708,1.9708,1.9874,2.0106,1.9836,1.9874,2.0158,2.0246,2.0765,2.1445,2.1552,2.1899,2.2296,2.2296,2.2296,2.2296,2.2296,2.2296,2.2296,2.2296,2.2296,2.2335,2.2523,2.2634,2.2759,2.3009,2.4343,2.5614,2.5519,2.7048,2.85,2.8422,2.8633,2.8863,2.8982,2.9005,2.9005,2.9005,2.9005,2.9207,2.9776,2.9879,2.9879,2.9879,3.0046,2.997,2.9448,2.9532,2.9634,2.9696,2.9885,3.0006,3.0006,3.0254,3.0404,3.0404,3.0404,3.0404,3.0404,3.0404,3.0404,3.0404,3.0404,3.0472,3.0606,3.0752,3.0856,0.6587,0.0,0.0,0.0,0.0,0.0,0.0,0.7257,0.0,0.0,0.0,0.0,0.0,0.0,0.0,0.0,0.0,0.0,0.0,0.0,0.0,0.0,0.0,0.0,0.0,0.0,0.0,0.0,1.3198,1.3198,1.3198,1.3198,1.3198,1.3198,1.3665,1.3901,1.3901,1.4782,1.5366,1.5682,1.6459,1.7329,1.8281,1.8565,1.9061,1.9708,1.9874,2.0072,2.0297,2.026,2.0381,2.06,2.0781,2.0956,2.1167,2.1358,2.1608,2.1837,2.1837,2.204,2.2296,2.2296,2.2296,2.2296,2.2296,2.2296,2.2363,2.2621,2.291,2.3189,2.3533,2.4961,2.6254,2.6003,2.7506,2.894,2.8694,2.8839,2.9005,2.9005,2.9005,2.9005,2.9005,2.9005,2.9152,2.9629,2.9702,2.9731,2.9839,3.0004,2.9987,2.9681,2.9765,2.9861,2.9985,3.0095,3.0176,3.0176,3.0311,3.0404,3.0404,3.0404,3.0404,3.0404,3.0404,3.0419,3.0441,3.0414,3.0472,3.0609,3.0809,3.0898,0.7641,0.7889,0.0,0.0,0.0,0.0,0.8057,0.7279,0.0,0.0,0.0,0.0,0.0,0.0,0.0,0.0,0.0,0.0,0.0,0.0,0.0,0.0,0.0,0.0,0.0,0.0,1.2513,1.3002,1.3073,1.3135,1.3198,1.3198,1.3215,1.3284,1.3719,1.4,1.4019,1.4783,1.518,1.518,1.6142,1.695,1.7608,1.8281,1.8957,1.9621,2.0093,2.0331,2.0416,2.0878,2.1055,2.1102,2.146,2.1182,2.0626,2.1053,2.114,2.1072,2.1156,2.163,2.2178,2.2262,2.2296,2.2296,2.2296,2.2296,2.236,2.266,2.3236,2.3816,2.4113,2.5328,2.6502,2.6583,2.7758,2.8895,2.8987,2.9005,2.9005,2.9005,2.9005,2.9005,2.9005,2.9005,2.9005,2.9005,2.9102,2.9226,2.9372,2.9509,2.9701,2.9962,3.0021,3.0143,3.0373,3.0404,3.0404,3.0404,3.0404,3.0404,3.0404,3.0404,3.0404,3.0404,3.0404,3.0433,3.05,3.0446,3.0491,3.062,3.081,3.0898,0.815,0.8212,0.8298,0.8298,0.0,0.0,0.0,0.7746,0.0,0.0,0.0,0.0,0.0,0.0,0.0,0.0,0.0,0.0,0.0,0.0,0.0,0.0,0.0,0.0,0.0,0.0,1.1789,1.1902,1.23,1.2751,1.3173,1.3198,1.3374,1.3752,1.4165,1.4549,1.486,1.5404,1.5653,1.5668,1.589,1.6308,1.6921,1.7578,1.8252,1.8944,1.9878,2.0516,2.0894,2.1322,2.1476,2.1491,2.1567,2.1375,2.108,2.1164,2.0788,2.0318,2.0987,2.1292,2.1512,2.2124,2.2296,2.2296,2.2296,2.2296,2.2415,2.2952,2.3577,2.4113,2.418,2.4915,2.5797,2.6447,2.7328,2.8209,2.8858,2.9005,2.9005,2.9005,2.9005,2.9005,2.9005,2.9005,2.9005,2.9005,2.9725,3.0065,2.9467,3.03,3.0679,3.0068,3.0196,3.0349,3.0398,3.0404,3.0404,3.0404,3.0404,3.0404,3.0404,3.0404,3.0404,3.0404,3.0404,3.0421,3.0411,3.0501,3.0609,3.0684,3.0836,3.0898,0.8838,0.8889,0.9102,0.9102,0.0,0.0,0.0,0.0,0.7851,0.0,0.0,0.0,0.0,0.0,0.0,0.0,0.0,0.0,0.0,0.0,0.0,0.0,0.0,0.0,0.0,0.0,1.1274,1.1578,1.1979,1.2374,1.2776,1.3139,1.3529,1.3888,1.4485,1.4891,1.5104,1.558,1.5799,1.5799,1.5799,1.6114,1.6711,1.7399,1.8189,1.9121,2.0185,2.091,2.1337,2.1764,2.1726,2.1406,2.1406,2.1082,2.0568,2.0192,1.979,1.9558,2.0331,2.0856,2.1326,2.2073,2.2296,2.2296,2.2296,2.2508,2.2849,2.3311,2.3806,2.419,2.419,2.4805,2.5503,2.5907,2.6906,2.7915,2.8319,2.8712,2.9005,2.9005,2.9005,2.9005,2.9005,2.9005,2.9005,2.9005,2.9576,2.99,2.9579,3.0183,3.055,3.0227,3.0317,3.0404,3.0404,3.0404,3.0404,3.0404,3.0404,3.0404,3.0404,3.0404,3.0404,3.0404,3.0404,3.0425,3.0442,3.0559,3.0625,3.0659,3.0814,3.0898,0.0,0.0,0.0,0.0,0.0,0.9604,0.0,0.0,0.0,0.88,0.0,0.0,0.0,0.0,0.0,0.0,0.0,0.0,0.0,0.0,0.0,0.0,0.0,0.0,0.0,0.0,1.0682,1.1374,1.1592,1.1884,1.2298,1.3082,1.3627,1.3928,1.4682,1.5134,1.5225,1.561,1.5799,1.5799,1.5799,1.6083,1.6653,1.733,1.8234,1.9358,2.0448,2.1161,2.1627,2.1938,2.1735,2.119,2.119,2.0619,1.9727,1.9113,1.8809,1.8809,1.9693,2.0433,2.1123,2.2023,2.2335,2.2374,2.2391,2.2811,2.3357,2.361,2.3937,2.419,2.419,2.4677,2.5209,2.5356,2.6384,2.7431,2.7725,2.8319,2.8803,2.8968,2.9005,2.9005,2.9005,2.9005,2.9028,2.9067,2.928,2.9532,2.9739,2.9939,3.0157,3.0392,3.0404,3.0404,3.0404,3.0404,3.0404,3.0404,3.0404,3.0404,3.0404,3.0404,3.0404,3.0404,3.0404,3.0425,3.0503,3.0565,3.0611,3.063,3.0811,3.0898,0.0,0.0,0.0,0.0,1.0973,0.0,0.0,0.0,0.9391,0.8562,0.0,0.0,0.0,0.0,0.0,0.0,0.0,0.0,0.0,0.0,0.0,0.0,0.0,0.0,0.0,0.0,0.0,1.0733,1.0664,1.1018,1.1993,1.2977,1.3677,1.4084,1.4743,1.5314,1.5726,1.577,1.5799,1.5799,1.5799,1.6,1.6371,1.7036,1.7936,1.9026,2.0098,2.0944,2.1594,2.1398,2.1275,2.119,2.119,2.031,1.9012,1.8927,1.8488,1.8121,1.9524,2.0052,2.0386,2.1823,2.2463,2.266,2.2725,2.3153,2.366,2.3692,2.3937,2.419,2.419,2.4263,2.453,2.5227,2.554,2.6054,2.7486,2.786,2.8154,2.8858,2.9005,2.9005,2.9005,2.9005,2.9078,2.932,2.9523,2.9748,2.9947,3.0196,3.0361,3.0404,3.0404,3.0404,3.0404,3.0404,3.0404,3.0404,3.0404,3.0404,3.0404,3.0404,3.0404,3.0404,3.0404,3.0425,3.0503,3.0565,3.0638,3.0689,3.0836,3.0898,0.0,0.0,0.0,0.0,0.0,0.0,1.0194,0.0,0.9403,0.0,0.0,0.0,0.0,0.0,0.0,0.0,0.0,0.0,0.0,0.0,0.0,0.0,0.0,0.0,0.0,0.0,0.0,0.0,0.0,1.0479,1.1201,1.2419,1.3406,1.407,1.4644,1.521,1.5799,1.5799,1.5799,1.5799,1.5997,1.6163,1.633,1.7209,1.796,1.8681,1.9947,2.082,2.1396,2.17,2.1312,2.05,2.05,1.9858,1.8843,1.842,1.8065,1.8003,1.9478,2.0002,2.0276,2.1977,2.2612,2.2784,2.32,2.3506,2.3735,2.3945,2.4094,2.419,2.419,2.419,2.4281,2.4622,2.5429,2.6282,2.6961,2.7842,2.8601,2.8932,2.9005,2.9005,2.9005,2.9005,2.9089,2.9361,2.957,2.9763,2.9977,3.0222,3.0404,3.0404,3.0404,3.0404,3.0404,3.0404,3.0404,3.0404,3.0404,3.0404,3.0404,3.0404,3.0404,3.0404,3.0436,3.0467,3.0503,3.0614,3.0677,3.0696,3.0837,3.0898,1.1716,0.0,0.0,0.0,0.0,0.0,0.0,0.0,0.0,0.0,0.0,0.0,0.0,0.0,0.0,0.0,0.0,0.0,0.0,0.0,0.0,0.0,0.0,0.0,0.0,0.0,0.0,0.0,0.0,0.0,1.0579,1.1829,1.2986,1.3991,1.4529,1.5125,1.5784,1.5799,1.5842,1.5941,1.6177,1.6394,1.6594,1.7327,1.7981,1.8618,1.9837,2.0682,2.1241,2.1786,2.1214,1.9985,1.9778,1.9237,1.8538,1.8003,1.78,1.8014,1.96,2.0465,2.1086,2.2407,2.291,2.3069,2.3555,2.3756,2.3896,2.4123,2.419,2.419,2.419,2.419,2.419,2.419,2.5089,2.6062,2.6492,2.7519,2.8473,2.8913,2.9005,2.9005,2.9005,2.9055,2.9192,2.9435,2.9652,2.9853,3.0075,3.0273,3.0404,3.0404,3.0404,3.0404,3.0404,3.0404,3.0404,3.0404,3.0404,3.0404,3.0404,3.0404,3.0404,3.0404,3.0472,3.0516,3.0525,3.0633,3.072,3.0767,3.0858,3.0898,0.0,0.0,0.0,1.0994,0.0,0.0,0.0,0.0,1.0643,0.0,0.0,0.0,0.0,0.0,0.0,0.0,0.0,0.0,0.0,0.0,0.0,0.0,0.0,0.0,0.0,0.0,0.0,0.0,0.0,0.0,1.0334,1.1306,1.2437,1.3769,1.444,1.5125,1.5784,1.5799,1.5955,1.6287,1.6301,1.6644,1.7272,1.7301,1.7895,1.8932,1.9685,2.0471,2.119,2.1224,2.0754,1.993,1.9215,1.8488,1.7834,1.78,1.78,1.8059,1.9849,2.1628,2.3112,2.3159,2.3403,2.3671,2.3692,2.3927,2.418,2.4208,2.419,2.419,2.419,2.419,2.419,2.419,2.4245,2.4704,2.6264,2.6638,2.7134,2.8712,2.9005,2.9005,2.9005,2.9232,2.9464,2.9661,2.9861,3.0082,3.0355,3.0379,3.0404,3.0404,3.0404,3.0404,3.0404,3.0404,3.0404,3.0404,3.0404,3.0404,3.0404,3.0404,3.0404,3.0404,3.0472,3.0533,3.06,3.0671,3.0769,3.0898,3.0898,3.0898,0.0,0.0,1.2747,1.2011,0.0,0.0,0.0,0.0,0.0,0.0,0.0,0.0,0.0,0.0,0.0,0.0,0.0,0.0,0.0,0.0,0.0,0.0,0.0,0.0,0.0,0.0,0.0,0.0,0.0,0.0,0.0,1.1393,1.2209,1.3118,1.3795,1.4453,1.5125,1.5797,1.6191,1.6315,1.6747,1.7073,1.7308,1.7526,1.7827,1.8251,1.9473,2.0137,2.0471,2.1515,2.1164,1.9968,1.9727,1.8983,1.805,1.805,1.805,1.8327,2.0134,2.1829,2.3242,2.3448,2.3599,2.3735,2.3947,2.4103,2.419,2.419,2.419,2.419,2.419,2.419,2.419,2.419,2.5016,2.5952,2.6473,2.7427,2.8345,2.8895,2.9005,2.9062,2.9225,2.9455,2.9626,2.9687,2.9869,3.0089,3.0361,3.0404,3.0404,3.0404,3.0404,3.0404,3.0404,3.0404,3.0404,3.0404,3.0404,3.0404,3.0404,3.0404,3.0411,3.0472,3.0533,3.0606,3.0671,3.0788,3.0858,3.0898,3.0898,3.0898,1.1698,1.235,0.0,1.2253,1.2427,0.0,1.1157,0.0,0.0,0.0,0.0,0.0,0.0,0.0,0.0,0.0,0.0,0.0,0.0,0.0,0.0,0.0,0.0,0.0,0.0,0.0,0.9447,0.9733,0.9778,0.0,0.0,0.0,1.1865,1.2759,1.3451,1.4188,1.4968,1.5853,1.6421,1.6657,1.7085,1.7368,1.7491,1.7692,1.78,1.7884,1.936,2.0002,2.012,2.1654,2.14,2.0002,2.0002,1.9263,1.8198,1.8198,1.8672,1.951,2.0675,2.2164,2.3588,2.3806,2.3886,2.3917,2.4123,2.419,2.419,2.419,2.419,2.419,2.419,2.419,2.4263,2.4566,2.5419,2.6337,2.6906,2.7842,2.8656,2.895,2.9078,2.9211,2.9372,2.9635,2.9804,2.9804,3.0003,3.0202,3.0373,3.0404,3.0404,3.0404,3.0404,3.0404,3.0404,3.0404,3.0404,3.0404,3.0404,3.0404,3.0404,3.0404,3.0439,3.0498,3.0561,3.0621,3.0695,3.0837,3.0898,3.0898,3.0898,3.0898]}]]